GFSNW_500_spd_000.txt.gz
Wind_Speed
16 10 20 21 18 13 7 8 8 7 13 15 16 12 11 12 10 16 20 21 22 22 25 23 28 31 29 24 21 19 18 18 17 17 19 19 18 17 18 20 19 23 25 20
15 4 21 25 23 19 12 7 1 7 16 23 16 16 12 10 16 17 17 20 19 17 16 18 24 23 24 24 21 21 18 17 18 20 20 18 17 17 18 21 23 24 27 19
13 2 15 21 25 23 18 11 5 9 19 13 15 13 11 12 12 19 19 19 15 13 11 12 13 22 23 18 18 17 18 20 20 19 17 18 19 19 20 21 19 24 22 23
8 6 5 22 26 24 21 16 9 9 15 16 14 13 15 14 10 12 14 12 7 7 7 8 10 12 14 16 16 15 16 17 21 21 22 22 20 16 18 21 21 30 23 31
6 8 2 22 24 26 22 20 16 12 13 15 16 15 15 14 11 13 11 12 10 9 9 10 11 11 11 11 10 11 11 14 15 15 17 19 19 18 23 25 26 30 32 27
7 5 8 17 27 27 28 22 19 15 15 20 16 18 18 16 13 11 10 9 7 6 5 5 6 6 8 10 12 13 15 16 17 17 21 23 21 21 24 26 26 28 28 32
11 3 9 15 26 30 29 26 21 16 15 19 21 19 18 15 11 8 5 4 5 3 4 5 7 10 12 15 16 17 19 21 22 22 25 27 23 19 20 23 24 29 33 37
13 7 9 13 22 31 29 26 23 21 17 18 21 21 20 17 11 8 3 5 5 8 10 13 15 16 17 19 20 21 22 23 22 22 26 25 20 23 27 29 32 36 40 44
15 13 11 11 16 28 32 31 29 25 22 20 26 27 27 20 15 15 12 11 9 9 13 12 11 10 10 11 11 12 14 16 18 21 24 26 27 29 33 38 42 46 50 52
19 16 14 15 15 20 29 34 32 32 32 30 27 31 28 24 25 23 18 15 15 17 18 18 17 11 11 12 14 16 17 19 20 24 29 31 33 38 40 43 50 53 55 57
23 21 18 18 18 19 23 29 35 36 33 34 35 37 38 34 31 27 24 22 23 23 19 19 18 12 14 16 18 20 20 24 26 30 34 37 39 43 48 52 55 58 60 61
27 24 24 21 21 22 22 23 24 26 31 35 35 34 34 35 33 30 28 25 25 21 20 19 20 20 20 23 22 25 24 31 34 38 38 42 47 53 57 58 59 60 61 63
30 29 26 25 26 26 27 27 26 25 24 24 27 30 33 33 30 26 28 25 25 24 25 25 25 27 28 28 29 29 33 38 40 46 42 47 54 56 61 62 61 63 66 69
32 32 32 29 27 29 31 33 32 30 29 30 28 29 28 28 29 30 30 29 29 30 32 29 29 33 35 36 36 36 45 46 49 51 53 58 59 60 62 63 65 69 72 73
34 33 33 33 31 31 34 35 37 36 34 33 34 36 33 33 33 33 34 34 34 36 36 36 35 36 42 43 41 38 48 49 53 56 56 59 60 63 65 68 72 74 76 79
35 34 34 34 34 33 37 39 39 41 41 38 36 37 37 37 36 36 38 40 40 41 40 40 38 40 46 48 42 47 53 53 56 57 59 61 63 65 68 70 72 75 77 79
37 36 35 35 34 35 37 40 42 43 44 43 41 39 39 40 40 41 41 42 43 44 45 42 44 46 51 51 47 52 52 56 58 59 61 62 65 68 70 74 75 77 81 83
39 40 37 36 38 39 37 41 45 46 45 44 45 41 39 41 43 44 45 45 46 49 52 50 51 55 52 47 50 51 54 55 56 58 61 64 66 69 72 72 75 79 82 82
40 43 43 40 36 38 40 43 47 47 49 46 43 41 41 45 47 48 49 51 52 58 57 56 58 55 50 51 53 53 56 58 59 60 62 65 68 69 72 75 79 77 75 71
41 41 41 39 36 38 42 45 49 52 51 46 42 42 45 48 50 54 56 60 58 62 64 64 62 58 53 59 55 56 58 60 62 62 64 66 67 69 72 74 71 71 68 62
40 40 42 40 38 40 43 47 49 52 53 50 46 47 49 51 55 60 63 64 64 65 67 67 66 59 57 56 58 58 60 61 62 63 63 66 69 72 74 71 69 66 61 59
41 41 40 43 41 40 42 41 44 49 52 54 54 53 54 57 61 64 63 63 64 64 62 60 57 53 55 58 57 57 59 60 62 63 66 70 73 74 72 70 67 60 58 58
47 47 47 47 46 43 42 43 39 40 49 54 56 58 59 60 61 61 61 59 56 56 58 55 48 52 56 57 57 58 60 60 61 63 68 72 72 71 66 62 57 55 56 55
49 52 52 50 47 47 46 42 41 41 41 45 48 51 53 53 54 55 56 57 56 56 55 48 49 55 55 57 57 58 60 61 63 68 71 72 69 61 55 53 53 55 54 54
56 55 55 51 49 49 49 47 46 46 46 46 46 48 48 49 50 51 52 53 53 51 42 49 55 57 58 57 58 60 61 64 68 70 69 65 58 54 53 53 54 53 51 52
61 60 56 57 56 54 50 49 51 51 49 48 48 48 50 51 52 52 51 50 45 41 48 53 56 58 58 58 61 64 66 69 70 68 61 54 51 52 53 53 51 50 50 52
62 59 60 60 60 60 58 53 53 54 50 48 49 50 52 54 54 51 48 42 44 50 53 54 55 57 57 60 64 67 70 70 65 57 51 50 52 53 52 49 48 49 51 55

GFSNW_500_spd_003.txt.gz
Wind_Speed
18 13 16 18 10 7 6 9 8 2 6 9 9 13 13 14 20 20 23 28 21 27 33 31 36 34 31 31 31 28 28 26 25 22 25 22 20 19 17 18 16 15 14 17
13 17 12 21 17 11 4 2 7 4 7 9 9 11 13 12 12 20 23 23 22 19 26 31 28 35 27 27 28 24 24 22 23 24 20 18 17 16 16 15 14 16 15 15
9 15 7 24 21 14 8 2 3 5 12 10 14 11 10 10 13 18 17 16 20 21 19 25 32 31 29 30 28 23 22 20 16 13 12 15 15 14 14 16 14 18 12 17
7 15 6 23 25 19 12 7 1 7 16 13 8 7 8 10 14 20 21 18 18 17 16 17 18 20 23 26 23 22 21 18 15 14 15 12 11 12 16 14 16 19 15 16
9 11 10 21 28 26 18 11 7 9 13 15 13 13 10 10 11 14 15 13 13 12 13 12 14 15 18 19 19 18 17 17 16 17 16 12 11 12 15 16 17 19 20 15
10 8 13 19 30 25 22 17 12 7 12 17 16 15 15 14 13 12 15 14 13 14 14 12 13 12 10 8 6 6 8 9 11 13 13 12 9 14 15 16 15 16 19 21
12 6 13 8 28 29 28 24 17 12 9 18 18 21 19 15 12 12 10 12 10 10 10 11 9 8 7 7 9 11 12 13 15 17 17 14 14 17 16 13 17 22 25 28
14 8 9 10 27 31 31 29 23 16 12 14 17 19 20 18 14 11 6 8 8 3 3 4 6 9 10 12 14 15 17 18 20 21 21 16 16 17 18 22 23 29 31 34
16 11 10 12 12 30 34 31 29 23 19 15 17 19 21 20 15 10 4 5 6 6 5 4 5 7 9 11 11 12 12 14 17 18 17 16 20 22 27 29 31 33 35 39
19 17 12 16 14 17 31 36 33 32 25 22 20 22 24 26 20 14 9 8 7 8 8 9 11 11 14 14 13 13 14 15 16 19 20 20 24 26 29 32 35 39 44 48
23 21 19 15 18 16 20 33 33 34 33 32 27 23 25 29 27 24 19 18 17 16 16 16 13 14 19 19 14 16 17 18 21 22 24 26 29 34 35 38 43 48 52 55
26 24 22 21 17 20 20 23 34 33 35 34 34 32 31 31 33 30 29 28 26 22 21 18 16 18 16 17 18 21 22 25 26 25 28 33 36 39 43 48 51 53 56 59
28 27 26 24 21 21 23 25 23 32 35 36 36 36 37 39 39 40 38 35 33 31 26 20 21 23 21 22 24 25 27 33 29 31 32 37 40 45 49 51 53 56 58 61
30 29 28 29 27 24 25 25 27 28 27 28 30 37 39 40 41 40 37 37 35 32 27 25 27 28 26 24 26 30 38 35 35 35 38 41 43 48 51 53 55 58 59 61
32 31 30 30 31 30 27 27 28 28 31 31 30 29 30 31 32 34 34 33 32 31 30 30 31 33 32 29 30 35 41 38 40 39 43 47 48 51 54 56 57 59 61 64
33 33 33 32 32 33 33 30 29 32 33 32 32 32 32 32 32 32 32 33 33 33 32 33 33 36 38 33 33 43 41 42 43 44 49 51 52 53 53 55 58 60 64 67
34 34 34 33 34 34 33 33 33 33 35 36 36 38 37 36 36 36 35 35 35 36 35 35 38 42 43 36 39 44 45 47 49 53 53 52 53 54 55 58 62 65 67 71
35 34 34 33 33 34 33 33 35 36 36 37 39 39 39 40 41 41 41 41 41 41 40 40 42 44 44 40 48 47 50 53 55 55 56 59 57 57 60 64 66 69 71 71
38 35 33 32 33 34 36 35 35 38 39 38 39 39 41 43 43 45 47 48 49 50 48 48 49 47 45 51 49 53 56 57 58 60 62 60 59 61 63 65 68 69 69 71
44 42 39 37 36 34 37 41 40 38 39 40 42 42 42 44 45 46 47 48 50 53 52 55 56 52 51 54 55 58 61 63 64 63 59 57 60 62 65 66 66 67 70 74
49 48 43 42 40 40 41 40 39 39 38 39 41 42 44 46 48 50 53 54 55 58 58 59 59 57 57 57 61 63 62 59 56 55 56 57 60 62 63 64 66 69 73 76
50 52 49 47 43 42 41 40 41 39 36 35 37 43 46 49 52 56 59 59 61 61 61 61 59 60 60 59 57 56 55 54 54 56 57 58 60 61 63 66 70 73 76 74
50 50 48 49 46 43 39 44 38 36 35 34 36 36 37 40 46 51 55 57 57 56 56 54 55 52 53 55 55 54 55 55 54 54 55 57 59 61 64 69 72 74 72 64
53 52 52 51 49 46 43 40 43 41 42 40 37 37 37 36 36 38 38 40 41 43 43 46 46 49 53 54 53 53 52 51 53 53 54 56 59 64 69 73 74 69 60 55
54 55 56 51 51 50 49 48 46 46 45 43 42 41 38 36 37 38 39 41 43 44 44 45 48 50 50 51 52 52 51 53 54 54 56 61 65 70 73 74 65 57 53 52
60 58 55 52 52 54 54 51 48 48 49 46 45 44 44 44 44 42 42 43 42 40 47 49 50 50 51 52 52 53 54 54 56 58 62 66 71 74 73 64 55 52 51 50
65 58 57 56 56 58 59 57 55 53 52 52 51 49 49 49 48 44 44 42 41 46 49 51 52 52 53 54 55 55 56 58 59 62 67 71 74 71 61 53 51 50 49 49

GFSNW_500_spd_006.txt.gz
Wind_Speed
14 19 21 16 15 7 4 10 5 6 7 11 18 11 13 15 15 17 25 30 32 41 42 39 43 41 45 38 36 41 38 35 34 32 31 31 28 27 26 22 18 15 13 14
11 18 17 15 17 11 7 5 5 6 6 8 16 16 14 16 16 23 22 22 32 38 36 33 35 35 37 33 31 32 32 32 33 34 32 29 26 24 21 20 18 15 15 16
9 16 14 14 16 16 10 3 4 10 9 11 15 12 12 11 20 18 19 19 26 33 36 36 35 39 35 30 30 30 30 29 26 22 19 21 22 21 20 18 16 16 13 18
6 15 11 12 14 17 10 2 2 12 12 10 12 15 12 14 18 22 18 20 23 23 23 34 34 32 32 29 28 27 26 23 22 23 23 22 21 20 19 16 19 17 18 17
7 12 11 8 13 18 15 5 1 11 13 10 8 11 12 14 17 20 21 19 18 15 20 26 30 31 29 28 30 25 21 22 19 20 19 18 18 19 19 19 21 19 20 16
10 9 13 6 11 20 19 12 6 7 11 11 12 13 12 13 15 15 18 16 18 17 16 18 23 23 27 29 33 34 36 30 29 25 21 19 20 20 20 21 21 20 15 17
12 10 14 7 9 23 23 18 11 6 8 14 16 14 13 15 14 21 20 20 19 17 16 18 19 18 19 15 19 18 15 16 16 18 17 20 21 23 22 22 22 17 17 21
15 14 13 9 6 23 26 23 17 12 8 13 16 17 16 16 19 17 17 16 17 16 16 14 14 13 13 13 13 13 15 16 18 19 20 20 21 21 20 19 21 22 22 24
19 16 15 14 8 18 26 25 24 20 15 13 15 19 19 19 18 15 16 14 11 10 11 10 7 8 9 13 14 16 19 20 21 20 20 20 20 20 20 23 24 25 28 31
23 19 19 17 15 12 26 27 30 26 25 20 18 21 22 22 20 16 14 14 16 14 10 7 7 7 9 12 14 16 17 17 16 15 16 17 19 19 23 24 26 30 34 37
26 23 22 21 19 17 17 30 33 32 28 29 25 24 24 26 26 22 17 13 13 12 12 10 10 11 13 15 19 19 19 18 18 18 18 20 19 24 27 29 31 34 37 41
28 26 25 25 23 22 20 20 30 36 34 33 32 29 27 29 29 30 26 21 18 16 17 18 16 16 17 18 18 21 22 20 20 22 23 23 27 29 30 33 37 40 43 47
30 29 27 28 27 26 25 21 20 27 37 36 37 36 32 32 32 33 34 31 30 28 27 25 24 23 22 21 20 24 23 25 24 26 28 32 33 34 37 38 41 44 46 48
31 30 29 28 29 28 28 26 24 22 25 33 35 34 35 35 35 35 35 38 38 37 37 35 34 29 28 26 26 26 29 28 28 29 31 36 37 40 41 43 45 47 49 50
33 31 32 30 29 30 28 27 28 27 27 25 26 29 31 32 35 37 39 40 42 43 40 37 33 31 29 29 30 31 34 31 30 30 34 36 39 43 46 48 50 52 53 55
34 32 32 32 30 29 29 29 28 28 31 30 30 29 27 26 26 26 27 31 35 37 37 36 31 29 29 29 28 37 33 32 34 37 39 41 42 45 48 51 53 56 58 61
35 33 32 32 32 31 29 29 29 30 29 29 31 32 31 31 30 29 28 29 30 33 33 32 30 30 30 30 31 41 36 38 40 42 45 46 47 50 54 57 59 60 62 62
36 34 34 33 33 32 31 30 31 31 31 31 30 27 29 31 32 33 32 33 34 35 34 34 35 33 34 33 39 40 42 44 45 47 49 52 56 59 61 62 63 61 60 59
41 38 36 34 34 34 34 34 33 33 33 32 30 29 29 30 32 35 35 36 37 37 37 38 40 37 33 40 40 42 44 47 49 54 58 60 62 64 64 59 56 55 58 60
42 45 40 36 36 37 36 35 36 37 36 33 31 32 32 33 33 33 36 38 39 39 39 40 42 37 39 41 43 47 51 54 58 60 62 62 62 58 54 53 55 57 58 60
42 38 42 42 40 38 37 37 35 35 33 33 34 34 34 35 36 37 39 40 42 44 43 46 46 42 47 50 54 57 59 60 59 58 56 52 51 52 53 55 56 57 59 60
43 41 43 44 42 42 43 44 40 37 37 36 33 33 36 36 36 37 38 40 44 47 46 49 50 51 52 53 53 53 52 50 49 48 49 50 51 52 53 54 55 56 58 62
47 46 45 45 47 48 48 45 42 38 29 28 31 32 33 34 37 39 40 43 44 43 44 45 47 46 46 46 46 46 46 46 46 49 50 50 51 51 52 54 56 59 62 66
50 50 49 48 49 47 47 47 45 41 36 33 33 33 32 32 32 34 37 40 39 40 39 40 40 40 43 45 46 47 46 46 48 50 51 52 52 53 56 58 60 63 67 70
56 56 54 51 48 46 46 44 44 45 43 36 34 37 36 36 37 37 36 36 38 38 39 38 40 42 43 44 46 46 47 49 51 52 53 54 57 59 60 61 63 67 69 72
60 59 55 53 50 49 48 47 46 45 45 44 42 42 41 40 38 36 36 38 41 42 41 42 43 45 46 47 48 49 50 51 53 54 56 57 58 60 61 64 67 69 71 70
68 61 58 56 55 53 51 49 49 49 49 50 47 45 45 44 43 40 39 42 45 44 45 46 47 47 48 50 51 51 52 54 56 57 58 59 61 62 63 66 70 71 69 64

GFSNW_500_spd_009.txt.gz
Wind_Speed
16 18 20 17 16 6 5 13 6 3 9 9 11 5 7 9 9 18 21 29 29 25 36 45 42 44 36 35 32 30 36 34 33 35 35 35 35 33 32 31 25 24 20 16
16 15 20 15 14 6 9 9 4 3 3 7 13 10 3 10 16 17 25 30 27 27 32 39 38 43 34 34 34 34 33 37 34 36 37 35 32 31 29 28 24 20 18 15
15 14 18 12 11 6 9 7 3 6 5 5 11 10 5 6 13 17 23 25 23 31 33 40 36 35 34 35 34 30 33 34 34 30 24 25 26 26 26 26 22 16 19 21
15 15 17 10 10 6 13 8 3 9 9 7 7 10 10 7 11 14 19 23 28 31 28 33 35 30 28 34 32 31 36 33 28 25 26 28 27 26 26 23 21 24 21 24
17 17 17 9 9 8 13 8 4 12 9 6 7 11 12 10 10 13 13 23 29 25 25 26 27 29 35 32 26 24 24 26 25 26 28 27 27 26 26 25 24 24 26 27
19 19 19 11 9 9 14 13 6 11 11 5 8 13 11 15 16 15 14 14 21 24 25 27 32 35 32 29 25 24 24 25 26 24 25 28 29 25 24 25 26 26 27 25
22 19 21 13 10 12 18 17 12 7 11 10 11 9 10 12 14 18 17 17 11 14 17 28 24 32 32 32 34 35 29 28 26 24 25 28 25 28 28 28 26 26 21 21
25 20 23 17 12 13 21 19 16 11 11 14 12 11 11 11 12 19 18 15 14 13 10 19 29 29 26 32 33 34 36 30 29 28 31 32 30 25 24 24 23 22 24 24
27 21 23 21 15 13 22 23 20 16 11 16 15 15 18 18 20 18 20 22 20 21 21 18 16 15 16 13 11 9 12 12 17 18 19 18 24 23 24 26 28 24 25 27
28 23 24 24 18 16 19 25 23 23 17 16 17 19 21 21 19 17 19 19 17 17 17 15 14 15 13 12 12 13 14 18 21 24 25 25 24 25 25 27 22 24 26 29
29 25 25 27 22 20 18 24 26 26 25 22 19 20 24 23 21 18 19 20 19 19 18 13 11 10 9 10 12 15 17 19 19 20 18 17 18 20 23 23 25 27 30 33
30 27 27 28 27 23 22 20 27 30 29 28 27 24 24 25 26 23 19 19 18 17 17 15 13 12 12 12 15 15 19 19 19 21 19 19 21 23 25 27 29 31 34 38
32 30 29 29 30 28 25 24 22 27 32 32 31 30 28 28 29 30 30 26 24 22 20 19 18 17 16 17 18 19 20 21 22 24 22 25 26 28 30 32 34 37 40 43
34 33 30 30 31 31 28 26 26 24 25 32 36 35 33 33 30 31 34 34 35 34 31 28 26 25 25 24 25 25 26 26 22 25 27 30 32 33 35 36 38 41 44 47
37 35 31 30 31 33 32 29 27 28 27 24 29 36 36 35 35 35 34 35 38 39 38 37 36 35 36 33 31 27 30 30 29 27 30 33 34 37 38 41 44 46 47 50
38 36 33 32 32 33 35 33 30 26 27 27 27 27 34 36 35 34 35 36 38 40 42 41 42 42 41 37 30 30 30 29 30 30 33 37 39 41 44 45 47 49 52 55
39 37 35 33 33 34 34 35 33 31 29 28 30 29 29 28 29 30 30 30 31 33 33 34 33 30 30 26 24 33 30 30 31 35 38 41 43 45 47 49 53 55 60 61
39 38 36 36 35 34 34 35 35 35 35 33 30 29 29 29 30 31 31 31 32 31 30 28 29 29 29 27 32 36 32 33 36 40 41 42 45 48 50 54 58 60 60 59
41 40 38 38 37 35 34 35 36 35 35 34 32 30 28 29 29 31 32 34 35 35 35 33 33 32 31 34 34 35 37 39 41 44 46 47 50 53 57 60 60 58 56 54
44 42 40 38 37 37 37 36 36 36 35 33 30 30 31 32 31 31 32 33 36 37 35 36 36 30 33 38 38 38 40 43 46 47 50 53 57 60 58 56 54 53 54 55
46 43 40 39 41 43 40 40 40 38 36 33 31 30 29 30 30 31 33 33 35 36 34 36 33 28 32 38 36 39 42 45 49 53 55 54 53 52 50 50 51 52 53 53
46 44 42 40 35 39 44 45 42 39 36 30 29 29 29 31 34 34 31 32 34 37 33 35 33 29 33 37 40 44 47 49 51 50 47 45 46 47 48 49 49 51 52 53
50 49 49 47 43 41 37 36 39 38 31 31 32 30 32 33 35 32 31 35 38 35 36 35 33 33 36 37 39 40 40 40 39 41 43 44 44 46 48 50 51 52 53 56
50 49 47 48 50 48 44 35 31 36 37 37 36 34 33 33 32 33 34 35 34 35 35 31 32 34 35 36 36 35 36 37 39 41 43 45 46 48 48 50 51 54 56 57
57 54 52 45 47 47 43 38 33 32 33 34 36 37 36 37 37 35 33 34 36 36 36 36 35 33 33 34 35 37 39 40 42 44 46 48 49 50 51 53 54 56 57 59
64 57 52 49 46 45 45 41 38 35 35 35 36 36 38 39 39 34 35 36 37 37 37 34 34 35 36 37 39 41 42 45 47 49 51 52 54 55 56 57 58 60 61 63
70 62 55 53 49 49 46 45 44 42 40 39 39 40 40 40 38 40 40 40 39 38 39 38 37 38 39 41 45 47 48 49 50 53 55 56 57 58 58 59 60 61 64 66

GFSNW_500_spd_012.txt.gz
Wind_Speed
25 26 26 20 15 17 10 3 14 12 8 12 17 22 12 5 7 8 4 9 18 29 39 48 48 51 44 35 37 37 37 36 34 37 38 38 39 37 33 32 32 27 24 20
25 25 25 19 14 14 11 4 12 7 5 7 9 14 10 9 10 5 9 10 24 28 34 37 38 34 33 30 34 33 33 37 38 37 37 39 37 33 33 31 29 27 25 19
26 25 25 19 12 10 11 5 9 6 0 2 5 9 11 3 4 11 15 17 27 34 32 30 30 32 30 27 25 28 32 33 35 33 29 26 31 27 27 28 30 25 24 20
27 24 25 19 12 9 13 8 8 9 5 1 2 5 7 6 4 12 20 20 18 22 24 32 28 34 30 29 25 25 27 29 32 26 26 29 29 29 29 30 26 29 21 26
27 23 25 21 13 10 14 10 7 11 7 3 3 3 3 3 7 11 16 17 17 22 23 25 19 30 26 22 27 27 23 25 25 26 26 26 27 29 30 29 28 27 24 25
30 24 23 23 14 13 14 14 9 13 11 6 5 5 5 6 13 14 16 18 21 24 24 28 26 24 22 19 23 25 24 23 27 28 28 27 30 28 27 26 26 26 26 24
32 24 23 24 17 15 17 19 14 11 16 9 7 6 10 11 13 14 15 20 19 18 18 24 27 25 25 27 25 25 22 21 23 21 24 28 23 25 25 26 25 26 25 24
33 26 24 24 19 17 19 23 19 13 14 14 11 8 8 14 13 13 14 18 14 15 17 27 28 26 28 28 28 26 25 23 21 21 23 21 24 25 25 27 27 28 28 23
33 28 25 25 20 19 18 25 23 18 13 16 14 11 10 15 20 17 17 14 17 19 16 19 21 22 23 22 24 25 26 28 27 25 25 26 23 27 26 26 24 22 21 23
34 30 27 26 22 21 19 28 27 23 17 16 17 16 16 18 18 21 22 18 17 18 18 16 27 25 24 16 14 11 15 20 21 29 33 36 32 23 27 26 25 24 28 29
36 33 29 27 24 22 23 24 31 28 23 18 22 21 20 18 17 15 20 21 21 21 19 19 20 17 17 19 17 19 20 22 22 24 24 25 23 26 28 27 26 26 26 29
39 35 31 29 27 24 25 22 33 33 29 25 21 21 25 20 21 19 15 17 16 16 17 16 16 16 14 14 15 16 16 16 16 19 18 19 19 20 22 23 24 26 28 31
40 36 31 30 29 26 26 26 26 36 35 32 28 24 21 26 25 21 19 19 19 20 20 19 17 17 15 14 13 13 13 14 15 18 18 20 21 23 25 27 29 30 32 33
39 38 33 32 32 29 29 28 26 29 37 38 35 33 29 26 25 27 26 25 23 21 21 20 20 20 18 17 17 16 17 19 19 21 23 25 26 29 30 31 32 34 36 38
38 37 33 33 33 33 30 31 30 29 32 35 39 38 36 34 32 29 28 31 33 32 31 30 29 28 28 26 25 24 27 27 25 24 27 29 31 31 31 32 34 37 40 43
38 35 34 33 33 35 34 31 32 30 30 31 32 40 41 39 38 37 35 34 33 34 36 37 38 37 37 35 31 29 33 33 30 28 27 30 31 31 33 36 39 42 45 49
38 36 36 34 33 36 36 32 29 30 29 31 33 33 33 39 42 41 39 38 38 38 39 38 38 38 38 37 36 32 37 34 29 28 27 30 33 35 38 40 43 47 50 52
43 42 40 37 34 36 36 35 33 33 33 33 33 30 30 30 31 36 38 37 37 37 37 37 38 38 37 37 30 29 32 30 30 31 32 33 36 38 40 44 48 50 54 57
45 45 43 41 38 38 38 36 36 35 35 34 29 26 28 32 33 34 33 33 33 34 34 33 32 30 28 27 29 32 32 31 32 33 34 37 39 41 45 48 52 56 60 62
49 46 42 41 39 38 38 39 38 38 36 33 31 30 28 28 27 28 30 33 36 37 35 35 35 31 32 35 35 35 36 36 36 37 37 38 41 44 48 52 57 56 51 49
47 43 43 41 41 41 41 41 41 40 38 35 31 30 30 30 30 30 32 33 34 34 34 37 33 30 34 37 35 32 32 32 35 36 38 41 44 48 50 47 44 45 46 47
47 45 44 43 43 43 44 43 41 41 39 35 32 32 33 32 32 32 33 34 35 36 33 35 31 29 32 33 34 32 32 34 36 38 40 42 41 39 40 41 42 44 47 48
51 49 49 45 45 45 43 40 36 33 33 32 33 34 34 34 34 34 35 37 38 36 35 32 27 28 29 30 30 31 32 33 34 36 35 34 36 37 39 42 44 46 48 50
53 51 49 47 45 43 42 36 28 24 29 36 37 36 33 31 31 33 34 35 37 40 38 29 24 26 27 25 25 27 29 31 32 31 33 36 38 40 43 46 48 50 51 52
54 51 53 49 45 43 43 40 34 29 26 26 30 36 39 38 39 37 34 33 33 31 28 25 24 23 22 23 25 27 29 30 32 34 36 38 41 44 46 47 49 50 52 54
62 59 53 48 46 46 44 42 39 37 33 30 29 31 33 35 37 35 32 31 28 29 30 29 26 24 24 26 28 29 30 32 34 37 41 43 44 45 48 50 51 52 54 56
63 59 55 52 49 46 44 42 37 35 37 36 34 32 31 31 32 29 26 27 29 31 33 33 32 31 30 30 32 34 37 40 43 44 46 47 49 50 53 54 54 55 57 60

GFSNW_500_spd_015.txt.gz
Wind_Speed
38 33 28 27 26 22 22 18 12 9 9 10 15 19 17 3 10 8 12 7 21 27 37 43 52 55 49 47 42 42 42 42 41 39 37 36 35 32 30 30 27 25 23 19
36 32 27 26 25 21 20 16 13 6 5 7 12 14 15 5 1 7 3 5 18 32 37 43 47 51 52 44 37 33 36 39 40 42 43 40 38 35 35 33 29 27 26 24
36 31 27 25 24 19 18 15 13 2 4 5 9 12 13 2 4 3 3 10 21 25 29 35 39 44 43 39 34 31 34 34 33 35 33 32 31 31 31 33 33 28 26 20
34 31 28 25 23 18 18 15 14 5 4 1 2 3 6 3 4 5 9 10 25 27 27 32 33 37 34 28 26 29 31 31 33 36 35 34 33 33 33 33 29 31 21 24
35 32 29 25 22 17 18 15 14 9 9 7 3 1 4 3 3 8 13 19 22 28 27 23 24 29 35 30 26 27 28 28 31 32 35 34 35 32 32 34 33 30 25 23
34 30 29 25 22 17 18 16 17 13 12 9 6 2 2 7 7 11 17 16 17 23 25 27 28 29 28 25 18 18 17 17 19 22 27 26 27 23 26 27 27 26 25 20
36 31 30 25 22 18 19 17 19 17 14 12 7 5 4 9 11 11 14 17 21 18 21 27 23 25 25 23 20 19 19 19 20 23 25 27 20 23 24 25 26 25 23 23
36 32 29 27 24 19 20 19 22 18 17 16 10 8 8 10 15 16 14 20 24 17 18 24 24 24 24 21 21 22 28 26 23 23 25 20 17 18 21 21 23 25 23 24
37 33 30 28 25 21 21 20 24 22 19 18 14 10 10 13 17 16 19 14 17 23 16 20 22 22 21 24 26 25 23 19 20 23 24 18 14 15 18 23 23 23 24 29
38 35 33 28 27 23 23 22 25 26 22 19 17 13 13 19 21 21 20 19 16 16 16 14 24 27 25 20 18 22 20 21 23 20 20 20 20 20 25 27 20 24 27 27
40 36 32 30 29 25 25 24 25 28 26 22 21 17 16 16 24 23 22 19 19 20 15 18 17 19 17 15 13 14 16 19 22 22 23 26 22 19 27 31 29 23 23 27
40 36 33 33 30 27 26 25 24 31 30 26 24 22 21 18 15 19 26 26 23 23 19 16 16 18 16 23 18 17 15 16 15 19 18 19 19 21 22 25 27 26 26 27
41 36 34 33 32 29 28 27 24 32 33 31 26 23 23 23 18 18 15 20 21 21 20 21 21 20 19 18 16 14 12 12 11 13 14 17 18 20 22 24 24 24 24 26
45 38 35 34 33 32 30 29 26 28 37 36 31 28 25 27 24 27 18 18 19 18 18 20 21 21 21 20 18 17 13 13 13 13 15 18 20 23 24 25 26 28 29 31
42 42 38 36 36 35 33 31 30 27 35 39 38 34 31 28 27 29 28 25 22 22 23 22 22 23 23 22 20 16 17 19 20 20 19 19 22 26 28 29 30 31 33 34
47 46 41 38 38 37 35 32 32 29 27 36 40 41 39 36 33 30 29 29 29 28 27 27 27 26 27 27 25 24 26 27 27 27 27 28 28 28 29 31 32 33 36 38
52 44 40 40 39 39 36 30 28 31 30 29 36 40 42 42 40 38 36 34 32 31 32 32 32 32 35 34 32 30 30 32 34 33 33 32 31 31 31 32 34 36 37 39
44 43 41 40 40 39 35 32 31 32 33 33 32 32 37 40 43 43 41 40 39 39 37 36 35 35 35 33 30 32 33 35 37 36 32 30 30 32 33 34 35 36 38 41
46 45 42 41 40 38 35 34 32 31 34 35 32 28 28 36 35 39 42 43 44 43 41 41 40 39 38 34 33 30 30 33 33 32 32 32 32 32 33 34 37 39 41 45
51 50 47 45 43 38 37 37 35 36 35 32 31 30 28 29 28 34 36 36 39 42 41 43 44 39 33 31 29 30 31 31 31 30 31 33 34 35 35 36 39 42 45 46
48 45 43 42 42 44 44 42 40 39 37 34 30 30 30 31 28 27 29 31 34 35 34 37 35 30 32 36 35 34 34 35 33 33 33 32 32 33 37 40 42 42 40 38
44 41 41 45 45 46 45 43 40 41 38 34 29 30 31 31 31 30 29 29 30 30 28 29 25 21 26 28 28 28 29 30 30 31 33 33 35 37 39 39 38 36 36 38
48 49 50 45 45 46 43 40 36 36 33 32 29 30 31 33 33 33 32 33 33 31 30 27 24 25 26 28 29 30 31 32 32 33 35 36 37 37 37 34 34 37 39 42
49 47 43 41 41 39 37 33 31 32 33 32 31 33 35 34 34 35 35 35 34 33 29 24 27 28 28 29 30 31 31 32 32 33 34 35 34 33 34 35 37 41 44 45
51 47 45 44 39 37 34 34 32 32 35 35 33 35 38 38 38 37 37 36 36 31 23 25 26 26 26 27 28 30 30 29 30 31 31 31 32 33 35 39 42 43 45 48
54 51 48 46 45 41 36 35 33 34 35 32 28 30 32 34 37 37 38 37 34 30 30 28 25 22 24 26 26 24 25 27 29 31 33 34 36 38 41 44 45 47 50 53
59 54 52 49 45 43 40 38 36 34 34 35 33 31 28 26 27 29 31 31 32 33 32 29 27 26 25 26 26 26 26 29 31 33 34 34 37 41 45 46 49 52 54 57

GFSNW_500_spd_018.txt.gz
Wind_Speed
43 42 33 33 31 27 24 21 20 18 15 13 7 12 15 4 9 8 13 8 15 14 24 35 42 42 38 43 46 41 43 45 49 42 36 35 41 39 35 36 33 30 23 22
42 38 32 33 30 25 23 19 17 16 14 12 5 8 14 1 6 5 11 5 12 17 26 37 46 40 36 38 42 41 42 41 40 43 43 45 28 28 31 32 32 30 27 22
39 36 32 32 29 24 21 17 15 13 13 10 3 7 6 2 2 5 2 8 9 20 31 35 43 47 38 31 29 39 40 38 38 38 39 32 33 30 28 27 29 28 28 24
40 35 33 31 30 24 21 16 14 13 13 10 3 3 9 9 7 0 3 4 5 15 22 31 36 42 41 36 30 29 35 34 33 34 33 35 36 37 37 36 31 34 26 29
42 36 34 33 29 23 20 17 13 13 14 10 6 4 3 2 9 5 8 16 11 16 18 19 28 37 40 34 32 28 24 27 28 32 34 37 40 40 38 36 36 32 33 30
46 37 34 31 31 22 19 17 14 14 16 12 11 6 2 4 7 9 11 9 18 23 22 29 27 31 30 31 26 24 28 27 28 31 33 33 34 36 36 35 35 30 33 21
52 44 36 32 30 24 21 19 14 15 17 14 10 9 6 9 13 13 15 12 25 23 33 30 29 32 30 28 23 21 22 23 27 26 32 33 27 30 32 33 32 29 24 25
49 40 37 33 30 25 22 20 16 16 19 16 16 12 6 14 15 15 17 17 20 24 27 25 26 31 31 28 27 23 23 19 19 19 20 20 21 24 23 23 22 24 25 26
46 41 37 34 31 27 23 22 18 19 22 19 18 14 9 18 18 17 18 23 24 23 26 28 25 29 27 29 27 23 24 23 21 18 18 18 20 21 23 24 21 20 22 24
51 42 36 34 32 28 25 23 20 20 24 20 21 18 14 19 21 17 20 27 23 23 22 26 25 27 27 26 23 24 26 28 30 26 16 18 23 25 22 18 16 20 23 26
46 42 39 36 33 30 26 24 23 22 27 24 22 20 18 18 24 22 22 21 23 22 20 19 22 22 26 20 18 25 24 22 22 19 20 16 14 18 21 20 23 23 24 23
50 42 39 38 35 32 29 25 24 23 28 27 23 23 19 16 26 29 24 21 21 19 21 17 18 27 25 20 19 17 18 20 17 13 13 13 14 14 21 21 20 23 25 25
55 50 41 39 36 34 30 27 26 24 28 30 25 25 21 18 19 28 29 21 23 24 23 24 20 18 23 21 20 21 15 15 14 14 12 12 13 16 18 20 21 22 23 25
52 52 44 40 37 34 31 30 27 25 26 32 29 27 26 23 18 17 22 30 28 29 27 23 23 23 21 25 24 20 18 15 13 12 11 11 12 15 18 20 22 23 24 25
51 48 44 40 38 35 33 31 29 27 25 30 34 32 28 28 26 22 20 18 18 20 20 21 22 21 21 22 22 18 16 15 13 12 13 15 16 17 19 22 25 28 30 31
52 46 44 40 38 36 34 33 32 28 26 26 33 35 32 29 31 29 28 24 23 22 23 23 23 23 25 24 23 23 21 18 17 19 21 23 23 25 26 27 28 30 31 32
45 45 45 41 39 37 36 33 29 30 29 26 28 34 37 34 31 32 31 33 32 30 25 26 24 25 27 28 26 24 24 25 27 28 28 28 29 31 31 30 30 30 30 31
47 45 41 43 41 39 38 35 32 33 31 29 27 29 33 37 37 36 35 35 36 35 35 33 32 33 33 32 27 26 28 30 31 32 32 34 35 35 34 32 30 30 31 33
47 46 47 44 45 43 38 36 35 35 35 33 29 27 25 30 35 38 40 41 40 40 38 37 37 35 34 30 30 31 32 33 35 38 39 38 34 32 32 31 31 31 32 35
50 50 45 49 49 44 40 39 38 39 37 33 27 25 25 28 28 33 38 40 42 44 43 43 42 38 35 36 35 35 35 37 38 36 31 30 29 29 30 32 35 37 36 37
50 47 45 47 45 43 42 42 41 40 37 31 28 26 27 28 28 28 29 32 36 36 37 42 44 41 39 40 39 38 37 34 33 33 34 36 36 36 33 32 32 34 36 37
43 43 43 46 48 47 47 48 46 45 39 34 30 29 29 29 30 30 28 27 27 28 27 29 27 25 29 31 33 34 32 31 32 30 29 29 30 32 33 33 34 35 37 37
46 47 50 51 51 52 48 44 40 37 31 31 29 29 29 30 31 30 30 31 31 29 27 24 22 26 27 26 25 26 27 28 30 31 32 32 33 33 33 34 35 35 35 35
51 52 47 48 44 36 34 33 28 31 33 33 31 33 31 30 31 33 34 33 31 31 27 24 27 28 28 28 29 30 31 31 31 31 32 33 33 33 33 32 32 33 35 36
51 53 53 45 37 35 32 30 28 31 33 33 33 34 34 35 36 35 35 34 35 30 26 27 29 27 27 27 29 30 31 32 33 33 33 32 30 30 31 32 32 34 37 39
53 52 47 43 42 40 33 30 31 31 31 34 33 34 36 36 37 36 36 34 31 27 26 28 28 28 27 26 27 28 29 29 30 30 26 27 29 31 32 34 36 37 39 43
57 52 47 43 38 37 36 33 32 31 31 32 31 31 34 33 34 32 31 30 30 31 31 32 31 30 31 31 30 28 28 28 28 28 30 32 33 34 36 37 40 42 44 46

GFSNW_500_spd_021.txt.gz
Wind_Speed
35 50 46 42 34 32 30 25 24 22 22 23 20 20 15 18 9 8 11 4 7 9 15 22 31 20 26 41 43 35 27 26 41 57 48 43 37 36 36 34 34 33 29 28
44 49 50 38 35 32 30 24 23 20 19 19 18 19 12 11 9 8 8 2 6 11 18 28 29 27 33 32 40 29 21 41 32 47 42 40 38 36 36 37 37 33 29 28
41 48 40 37 34 32 30 24 22 19 18 19 16 14 11 8 7 6 4 8 3 12 21 31 34 36 34 31 38 33 34 38 28 23 26 34 36 32 32 32 34 33 30 31
44 48 39 38 36 34 30 24 20 18 16 18 14 12 11 10 10 8 6 10 4 14 24 33 37 32 31 33 31 36 35 36 35 30 30 26 23 35 19 33 32 31 30 32
49 46 39 38 37 35 28 24 20 18 17 16 15 9 5 6 8 10 6 5 4 18 21 25 32 31 32 32 34 28 26 28 27 25 25 25 27 28 29 26 27 28 27 26
49 42 41 40 37 32 27 25 22 17 17 17 16 13 7 10 7 10 7 10 9 15 24 30 37 30 26 26 23 18 22 28 25 25 23 24 28 30 31 30 30 31 29 27
50 50 45 40 37 32 29 26 23 18 18 16 16 12 12 11 11 10 10 13 18 20 23 30 31 36 36 32 28 25 20 18 25 27 26 27 26 27 31 33 34 33 31 33
45 42 43 40 36 34 28 27 23 19 18 18 17 11 8 9 14 17 14 10 22 31 28 29 30 29 28 31 31 27 23 23 23 24 24 26 23 25 27 31 31 35 34 35
50 50 46 40 36 33 31 28 24 20 19 19 19 17 12 9 16 16 17 15 16 26 29 31 29 30 29 30 27 25 22 23 21 20 18 17 20 24 25 27 23 24 24 25
46 47 43 43 38 34 32 29 24 22 20 21 22 17 14 13 18 16 21 19 20 21 22 20 23 26 31 31 25 26 22 23 21 20 17 15 17 21 21 20 19 22 23 24
37 49 49 44 42 37 33 29 25 23 21 23 23 21 18 20 21 15 16 20 22 22 23 26 24 21 24 23 26 21 20 24 24 20 21 16 16 18 20 19 20 19 20 21
44 46 43 42 41 38 35 30 25 24 21 24 25 18 20 17 25 24 24 24 23 21 23 28 26 23 24 23 25 25 26 23 24 26 21 18 16 16 15 17 21 21 21 23
45 48 45 42 41 38 35 31 27 24 23 25 25 22 20 20 23 23 23 23 23 26 23 20 19 24 22 21 24 18 16 27 24 20 19 14 14 14 15 15 17 20 19 19
48 43 46 48 41 38 36 32 28 25 24 23 26 24 19 23 22 21 27 21 19 27 22 22 22 23 25 25 28 24 23 20 17 16 13 14 14 13 13 14 15 17 19 21
47 47 43 45 41 40 37 34 31 27 25 23 27 27 22 22 21 22 29 31 26 28 28 27 24 22 23 23 25 22 23 16 15 16 15 11 10 10 12 14 16 18 20 23
42 47 44 43 41 40 39 36 33 27 25 26 23 29 26 22 23 22 20 22 31 33 33 30 26 24 24 24 22 27 21 19 17 16 14 12 14 16 18 20 23 25 26 28
42 48 49 51 45 41 40 36 31 30 27 26 24 25 31 28 25 24 24 21 21 27 26 22 20 21 20 20 19 22 21 19 19 19 19 19 21 23 24 25 27 30 32 33
39 42 47 51 49 44 41 37 32 30 29 27 26 21 24 31 28 26 25 27 25 24 26 25 24 25 25 24 22 22 22 24 26 27 27 27 27 28 29 31 34 35 34 31
41 45 51 52 49 45 40 37 37 34 32 29 28 26 24 24 29 30 29 29 29 31 30 30 31 31 29 22 24 26 29 30 31 32 33 33 33 33 35 37 38 34 31 30
42 43 43 50 47 46 41 39 39 38 37 36 32 28 26 24 23 25 31 34 33 33 32 33 35 32 30 33 32 32 34 36 37 40 40 37 37 38 39 37 33 31 31 33
43 47 44 37 43 49 46 43 43 43 41 36 35 29 28 27 28 27 28 28 33 38 38 37 37 33 34 38 38 38 37 37 37 38 38 39 40 39 37 36 36 35 33 32
46 45 45 41 41 43 47 49 48 46 40 37 35 31 28 28 29 29 28 27 26 26 28 32 33 29 35 38 39 40 41 41 41 40 40 38 37 37 36 33 31 32 33 34
49 47 46 49 46 46 45 46 44 45 39 36 32 32 30 31 31 30 30 30 29 27 27 23 19 23 26 27 27 28 29 30 30 30 29 29 30 31 32 32 32 33 34 34
54 51 49 49 48 44 41 41 42 42 38 33 34 33 35 32 31 32 32 31 30 31 27 23 24 26 26 27 27 26 25 25 26 28 29 30 31 32 32 32 32 33 32 32
58 51 50 44 41 37 39 40 40 41 40 38 39 37 36 34 36 36 35 33 35 30 24 24 26 26 27 28 28 28 28 29 30 30 31 31 32 32 32 32 30 30 31 32
54 51 46 41 35 29 29 32 32 35 38 38 37 37 37 36 36 36 37 35 32 27 26 27 28 27 27 26 27 27 26 26 27 28 29 29 28 29 29 29 30 32 35 36
57 54 49 43 40 37 31 30 32 32 32 33 32 34 35 34 34 33 31 28 28 29 29 29 29 28 28 28 27 27 28 28 28 28 28 28 29 30 31 32 35 36 38 40

GFSNW_500_spd_024.txt.gz
Wind_Speed
45 45 44 44 49 50 48 39 36 30 28 28 23 20 21 21 19 18 15 13 5 6 11 10 9 12 14 17 23 27 24 11 17 29 34 29 42 37 39 40 35 30 27 28
36 39 37 44 43 44 41 37 34 30 28 24 21 20 18 16 18 15 13 10 6 9 14 20 14 8 16 13 18 22 19 9 23 34 29 28 41 37 34 40 33 28 25 24
40 46 34 32 48 42 38 37 35 28 23 22 20 19 16 11 13 12 10 8 7 8 12 15 27 15 13 16 20 26 9 7 12 38 33 27 29 29 29 32 29 26 26 26
50 42 33 42 43 45 39 38 31 24 22 23 18 17 15 13 17 13 9 6 5 11 14 18 22 22 29 23 20 20 13 15 15 38 38 26 24 22 27 30 29 31 31 27
43 40 31 34 36 48 40 34 29 25 22 22 16 18 11 8 12 15 9 2 4 14 15 19 21 24 21 24 27 21 20 23 12 12 30 27 31 29 28 28 31 30 30 25
45 45 32 40 47 45 37 33 28 26 24 20 17 17 10 8 8 7 8 5 5 19 20 25 26 19 16 20 21 20 14 21 22 17 14 12 14 13 24 30 19 28 25 20
42 40 37 41 42 42 37 30 30 27 22 19 18 14 9 8 9 9 13 8 8 15 23 26 25 21 22 21 19 20 18 20 20 19 16 16 13 15 16 22 21 22 25 25
46 35 35 43 43 40 36 32 30 25 22 17 18 15 10 6 10 14 15 10 13 16 26 30 31 28 23 20 19 18 14 12 10 16 17 15 15 15 19 20 22 25 26 28
48 37 34 40 44 37 34 32 29 25 23 19 19 13 5 8 10 16 14 10 16 23 26 33 34 34 31 26 23 20 21 18 15 15 14 12 14 15 18 20 22 25 28 30
42 44 38 43 42 40 34 32 29 26 23 20 20 17 15 11 13 12 16 10 10 24 24 29 31 30 29 28 27 26 22 21 17 15 14 13 10 15 15 16 18 21 22 23
45 37 40 43 41 39 32 32 29 26 23 19 21 21 13 12 10 15 18 15 13 17 23 21 24 24 21 24 21 20 19 21 17 17 16 15 16 14 14 13 17 20 22 22
39 35 36 37 41 35 33 31 29 26 24 20 21 22 14 15 12 17 16 16 15 16 17 16 17 16 16 16 23 22 20 18 18 20 18 16 15 11 14 16 18 19 19 18
47 40 39 37 42 40 33 31 29 27 24 20 22 21 17 16 14 19 19 21 17 16 17 17 19 17 17 17 20 23 21 20 18 19 18 17 17 17 14 12 12 14 15 16
44 40 40 39 41 39 36 32 31 27 25 20 21 21 20 15 16 19 21 23 22 20 19 20 21 19 21 19 16 20 19 17 17 18 14 16 16 12 12 11 11 11 12 14
45 42 36 38 45 41 34 36 32 29 26 22 21 22 20 18 16 16 18 23 22 24 21 22 21 20 18 23 19 17 21 17 15 19 19 14 13 12 8 8 9 10 11 13
47 40 37 40 42 38 35 36 34 31 28 25 20 21 23 20 16 14 20 17 28 26 26 24 24 23 21 18 22 21 21 20 16 16 15 14 12 11 10 11 12 15 17 19
42 41 38 38 45 40 37 35 31 30 28 25 22 18 22 22 19 15 12 12 20 25 27 27 27 25 21 20 20 19 20 23 19 17 16 18 16 12 13 14 17 19 21 24
41 37 35 43 44 47 40 34 32 29 28 26 24 20 17 23 22 19 16 15 14 15 29 31 29 28 22 17 18 20 22 23 21 21 21 19 18 17 20 22 23 25 28 30
45 37 37 46 43 43 37 36 35 33 32 31 24 20 18 18 23 26 23 20 18 16 14 19 33 31 20 15 14 14 16 17 20 22 21 23 24 25 27 29 31 31 33 35
43 44 39 44 43 42 41 38 37 38 36 32 28 23 21 19 17 20 24 24 24 22 19 22 21 17 23 23 22 23 24 25 28 29 28 28 29 32 34 36 35 35 35 32
53 46 38 38 45 49 48 44 42 42 42 37 32 28 22 22 19 16 16 18 24 27 24 25 24 19 21 28 30 31 31 31 32 32 31 31 34 35 35 35 36 36 34 34
49 45 39 34 42 47 51 51 50 49 43 38 33 30 27 24 26 26 24 23 24 22 20 25 27 24 28 29 30 28 31 33 34 34 34 35 35 36 36 35 34 33 34 32
53 49 43 40 41 46 47 36 41 44 38 35 33 30 28 28 27 27 28 28 26 23 23 17 14 19 20 25 27 28 29 29 28 27 28 29 31 31 31 31 30 31 32 32
54 52 46 41 36 34 34 35 32 38 38 36 35 33 31 30 31 33 30 29 28 27 23 18 20 22 21 19 20 21 21 21 20 21 23 24 25 27 28 29 30 31 31 31
56 53 47 36 34 36 34 31 30 29 33 39 38 37 37 35 37 35 34 32 32 27 22 22 23 25 25 24 24 23 23 24 24 24 25 26 28 28 28 29 29 30 31 33
56 55 49 42 39 40 35 31 31 30 33 37 41 42 41 39 38 36 33 31 28 24 25 26 25 25 24 24 23 23 23 23 23 24 24 25 26 27 29 29 30 31 32 32
54 53 52 46 41 39 34 32 30 31 33 33 36 40 39 37 35 35 32 26 24 25 26 27 27 26 26 25 25 25 24 24 25 25 26 27 27 28 29 29 30 31 33 34

GFSNW_500_spd_027.txt.gz
Wind_Speed
21 28 52 35 40 32 31 41 48 43 36 41 37 23 21 22 20 18 27 20 14 12 14 6 4 10 5 12 5 8 6 6 10 22 31 31 47 42 29 26 15 20 31 29
24 36 48 44 42 35 41 42 42 41 38 37 27 24 22 18 14 21 24 13 14 13 16 12 5 7 7 7 10 18 15 4 8 12 16 25 30 31 15 16 24 32 27 26
30 33 41 41 35 40 42 44 43 35 41 31 27 23 19 16 13 18 13 7 11 11 13 13 10 5 3 7 18 16 8 12 1 11 10 11 21 32 36 32 30 25 21 24
34 40 41 39 38 37 39 41 42 41 33 28 26 24 18 17 18 17 13 6 8 8 13 11 12 14 9 9 7 7 19 14 9 13 10 10 39 33 31 31 29 25 26 19
42 43 47 37 35 34 32 39 39 36 32 25 28 22 15 19 15 17 15 9 6 8 8 10 14 10 8 6 8 9 17 14 25 12 19 20 24 27 26 30 31 26 20 17
43 47 34 36 33 30 28 36 40 30 30 25 23 18 18 17 14 13 11 11 5 12 15 19 16 15 12 11 7 10 14 15 16 26 23 22 17 17 18 24 28 24 22 21
39 46 35 38 37 32 29 41 35 30 28 27 22 17 15 13 12 7 16 13 12 20 22 19 22 21 14 17 18 11 12 14 7 8 12 9 23 21 24 22 24 20 18 23
43 45 39 40 33 33 39 40 38 35 28 24 21 16 22 10 9 5 17 15 14 13 18 24 26 20 16 15 16 14 9 8 8 9 10 11 12 15 19 24 26 23 22 28
50 46 41 34 36 31 40 38 37 33 26 22 18 17 13 15 4 6 16 15 12 12 18 24 25 27 21 18 14 11 10 8 4 3 8 8 10 12 14 17 19 21 20 21
50 42 34 30 33 32 45 42 37 28 25 22 18 21 11 10 2 8 21 15 12 15 17 20 26 29 27 21 18 16 13 8 5 6 9 11 10 13 13 15 17 19 20 21
47 42 33 31 36 31 38 38 31 27 24 21 18 23 13 10 9 11 19 16 10 13 22 24 26 27 26 26 25 22 19 17 11 8 6 12 13 12 13 12 14 14 15 16
41 38 35 34 28 31 40 33 28 25 24 18 19 23 12 13 10 7 15 16 11 10 16 17 20 22 21 18 17 17 14 12 12 13 12 13 12 11 11 13 13 12 14 15
44 39 36 36 29 36 37 31 27 24 22 19 19 20 16 11 11 6 18 19 14 12 11 16 14 15 15 14 14 18 16 14 11 11 13 15 13 12 11 9 13 12 14 15
43 39 39 36 29 31 37 29 25 25 23 21 16 21 21 11 12 11 13 17 16 15 17 16 14 15 13 11 14 15 16 16 16 14 15 16 16 14 13 13 13 11 10 10
46 42 35 35 30 31 37 30 27 25 23 23 16 19 20 17 12 10 17 19 17 17 18 19 16 12 14 12 13 14 13 16 14 11 15 15 14 12 12 13 12 9 7 7
49 41 38 32 29 29 37 35 28 24 22 23 16 16 19 18 14 11 12 16 19 22 22 20 16 17 17 14 13 16 14 12 16 13 14 18 15 16 13 11 9 8 10 11
51 43 36 33 30 32 32 33 27 25 25 24 20 15 17 18 15 13 12 15 22 27 25 25 19 24 18 16 15 15 19 16 15 16 19 19 17 18 15 11 9 10 12 14
50 44 38 35 31 31 33 35 31 29 27 25 24 19 14 18 18 15 11 10 11 12 19 20 24 23 20 19 17 15 16 17 18 22 19 18 18 17 15 13 14 15 17 18
51 47 37 35 31 30 35 35 32 31 30 29 24 20 18 13 19 19 14 12 11 10 9 11 22 25 23 21 19 17 20 20 27 23 20 18 19 20 19 19 20 22 24 26
49 50 42 40 32 25 37 34 34 35 34 32 29 24 18 17 14 19 21 19 16 13 11 10 8 11 22 20 19 16 14 16 17 18 20 20 20 19 22 26 27 28 30 30
49 47 42 37 32 31 38 42 40 39 37 33 29 25 22 20 16 13 15 19 21 20 18 17 11 11 20 21 25 23 23 22 21 20 19 20 22 25 27 27 29 31 32 32
50 46 41 34 34 37 37 36 44 45 40 35 29 26 25 20 18 19 13 16 20 20 18 19 15 17 20 20 20 22 23 25 25 24 25 25 27 28 30 31 32 33 32 30
53 51 48 40 39 37 37 34 36 40 42 31 27 27 26 26 21 20 26 25 21 17 16 13 11 17 18 24 27 27 25 26 27 28 30 30 29 29 29 29 29 28 27 27
52 51 52 45 37 32 34 36 36 33 35 33 29 28 29 30 30 30 28 28 27 24 17 14 18 18 17 17 18 20 23 25 26 25 23 22 21 23 24 24 24 25 26 28
53 52 50 43 34 30 29 30 32 31 35 38 34 35 36 34 35 33 30 31 29 21 17 18 19 19 19 19 19 19 19 18 19 20 20 21 22 24 25 26 27 28 29 30
52 56 51 44 38 29 28 24 23 26 31 35 34 37 36 36 37 34 31 29 24 20 22 23 23 22 22 22 21 21 22 22 22 23 24 24 25 26 26 26 27 28 28 29
52 57 55 48 43 36 30 26 24 26 27 25 24 26 30 31 34 33 30 27 24 26 26 26 24 22 21 21 21 21 22 22 22 22 23 24 24 25 25 25 26 27 28 28

GFSNW_500_spd_030.txt.gz
Wind_Speed
15 10 10 25 41 55 46 45 37 33 42 37 42 42 33 26 27 26 24 27 27 24 18 15 11 13 13 10 8 14 12 10 9 7 9 6 13 32 35 46 47 36 39 38
17 10 22 24 44 54 43 39 32 34 37 36 35 34 29 27 24 23 24 25 26 23 18 17 12 11 8 9 11 12 9 4 11 8 2 6 1 22 33 43 46 40 21 30
23 22 21 33 47 54 49 47 42 43 37 41 33 31 31 24 23 24 21 20 19 14 15 15 15 12 6 12 12 9 8 3 3 5 9 9 15 27 45 42 24 13 26 24
21 27 32 49 51 53 51 52 46 39 39 43 33 30 27 24 25 24 22 16 15 11 13 13 16 11 7 16 14 15 9 20 19 5 11 12 15 19 12 13 13 14 18 27
27 35 46 52 51 49 44 46 46 29 29 36 33 30 24 23 25 25 25 21 17 12 11 17 19 15 11 10 6 7 13 25 15 3 4 6 18 14 14 8 21 23 26 32
35 36 47 48 53 42 39 35 27 33 36 29 30 26 21 22 24 25 21 18 18 11 17 18 15 12 13 5 2 4 11 21 19 9 24 22 14 23 10 23 27 23 25 22
43 43 47 44 37 33 37 32 28 35 31 30 24 22 21 21 24 20 17 20 16 16 20 28 20 18 19 10 6 6 8 14 19 16 13 16 18 20 20 18 18 18 16 20
38 40 34 33 38 38 34 27 30 31 27 21 27 23 19 22 22 13 15 18 16 10 22 27 26 19 14 9 8 3 5 6 8 15 13 10 16 17 16 16 20 24 21 19
36 39 33 31 34 35 28 21 24 39 28 29 27 22 23 22 12 11 14 18 12 14 20 24 22 17 12 10 8 6 3 7 6 5 8 10 13 14 15 18 17 17 15 15
40 35 35 37 34 30 24 26 29 33 33 26 22 22 18 14 15 12 18 21 14 15 17 22 24 23 18 15 14 12 10 8 5 3 7 8 9 11 12 16 20 20 21 19
41 39 31 34 31 30 28 25 36 38 33 23 22 18 17 16 13 11 22 23 15 15 20 22 25 26 24 21 20 15 14 10 6 5 6 10 12 12 14 16 17 18 19 19
44 38 35 29 33 28 24 28 38 36 27 23 21 17 18 15 14 15 22 20 15 13 16 19 20 20 20 21 20 19 17 15 15 11 8 9 10 11 14 13 15 15 14 13
46 42 38 27 29 27 24 22 34 31 24 25 17 20 17 13 13 10 20 21 13 9 12 17 13 16 19 18 18 17 16 14 14 13 13 10 12 12 11 10 11 11 11 10
45 43 38 29 29 27 20 25 35 28 26 22 14 19 19 17 13 9 12 22 17 11 14 18 17 16 15 17 17 15 17 16 14 12 8 10 13 11 13 9 11 13 12 12
47 42 36 34 29 21 18 24 36 27 26 21 12 19 19 14 16 12 11 18 20 15 15 17 18 17 16 14 14 13 13 15 13 13 14 14 19 18 15 13 15 14 11 9
48 46 37 36 29 23 20 24 32 27 25 17 15 15 22 19 10 14 15 16 16 17 17 20 19 18 14 14 10 12 14 12 15 13 10 15 17 15 15 14 13 13 12 10
55 43 37 36 34 27 24 24 28 26 26 24 16 12 19 21 16 12 14 10 14 18 20 22 21 17 15 16 15 13 15 16 12 12 15 11 18 18 20 18 16 12 9 9
53 42 38 32 33 26 21 22 33 28 26 24 19 12 15 20 20 17 11 14 15 17 19 22 22 18 15 18 16 15 14 17 16 14 14 18 20 20 21 17 14 11 9 11
54 43 39 34 32 24 21 24 33 29 28 27 25 20 13 13 21 19 14 10 15 14 16 16 16 16 19 21 18 16 13 13 16 16 23 21 17 21 18 18 16 15 16 17
53 47 41 37 27 24 22 26 29 30 34 30 26 24 19 15 11 19 18 14 14 12 11 8 10 15 20 22 20 17 15 16 19 22 24 23 22 24 21 21 23 25 23 25
50 46 43 37 29 27 23 26 30 31 35 33 27 23 21 18 15 12 19 20 16 15 13 11 9 11 14 18 21 21 21 20 20 20 23 23 24 26 27 26 25 25 27 28
54 48 45 39 35 32 29 28 29 27 35 33 25 23 23 20 18 17 14 16 20 20 18 15 14 17 15 15 15 15 15 18 18 18 19 18 18 19 22 25 28 29 31 32
50 51 50 47 43 37 34 33 30 29 29 28 24 25 24 22 22 20 19 16 14 17 13 13 18 19 18 19 19 18 18 19 21 22 24 26 26 27 28 30 32 33 33 31
47 47 48 50 43 34 33 30 23 20 23 29 27 27 27 25 23 22 24 23 21 18 13 15 14 16 17 18 19 20 21 23 26 27 27 28 28 29 29 30 27 26 26 24
48 46 49 48 39 33 30 28 20 21 25 28 31 32 29 29 32 32 33 27 23 16 17 18 17 17 17 16 17 17 17 16 18 20 22 23 23 23 24 24 23 23 23 24
52 49 47 45 41 35 29 25 20 18 22 29 33 34 36 37 38 34 29 29 21 17 21 23 21 20 19 18 18 18 18 19 20 21 22 22 23 24 25 25 25 26 26 27
55 54 51 49 46 43 38 33 31 24 22 29 31 32 33 34 38 36 30 25 23 25 25 23 22 22 22 21 19 19 19 20 20 21 22 22 23 24 25 25 25 25 25 26

GFSNW_500_spd_033.txt.gz
Wind_Speed
18 10 1 10 33 30 53 53 49 42 47 49 49 25 34 36 32 34 34 31 30 25 22 19 20 18 21 23 22 21 20 25 21 25 16 7 22 26 41 39 32 38 38 40
24 9 8 11 39 36 43 60 50 37 37 39 40 29 26 30 32 33 31 29 26 23 17 20 17 17 21 20 19 16 18 25 23 18 20 24 20 11 29 28 34 29 37 30
27 15 10 14 42 36 42 51 39 36 36 39 38 20 22 26 30 29 28 27 21 17 17 19 15 17 17 17 16 21 25 24 24 23 17 17 25 25 15 19 36 28 37 22
10 18 11 12 38 44 49 46 26 34 25 35 33 23 28 28 27 28 30 23 17 13 14 18 16 16 15 18 20 26 25 24 20 13 10 17 7 8 7 13 22 29 27 36
15 23 13 23 42 41 36 31 33 26 25 28 32 26 23 25 28 27 25 18 19 13 15 17 19 16 15 16 20 19 14 17 16 12 8 8 4 9 11 7 11 9 36 38
31 23 24 32 46 45 38 30 24 29 29 25 24 23 24 25 27 22 21 18 20 18 20 19 18 17 18 17 11 5 11 12 7 12 13 10 11 7 18 15 25 34 33 34
20 25 22 42 43 39 39 31 32 33 28 26 28 29 29 22 20 16 18 20 22 18 22 22 18 15 20 8 5 6 9 7 5 10 9 12 11 11 19 22 14 24 32 36
25 28 39 40 43 45 46 31 35 30 30 24 26 28 20 22 18 14 21 18 20 21 17 23 24 22 23 12 1 6 8 10 5 4 5 6 4 3 4 10 13 15 25 27
39 39 40 39 43 44 39 30 22 21 28 27 26 22 23 25 14 19 17 14 19 17 21 29 28 24 17 11 7 1 3 9 7 1 2 3 3 1 2 5 4 9 9 11
39 41 40 37 35 35 29 28 22 21 26 24 22 22 25 17 15 16 12 12 18 15 20 28 24 19 15 12 8 3 9 8 8 5 1 2 3 2 1 4 4 9 14 14
41 38 31 30 31 30 29 25 19 20 29 23 20 22 19 18 15 13 11 18 17 14 15 22 23 22 21 16 13 11 10 4 4 2 1 4 6 8 8 8 10 12 13 13
37 36 31 33 35 31 27 21 18 15 35 23 23 23 19 14 14 13 15 20 17 12 14 16 20 19 19 18 15 14 13 10 7 6 6 5 8 7 8 8 8 9 10 12
37 36 34 34 36 31 22 20 24 22 28 26 25 19 15 14 11 15 17 20 16 12 14 15 17 20 22 19 21 20 20 18 15 15 14 11 9 10 10 12 12 13 14 14
44 38 33 33 32 26 23 18 12 23 27 27 23 11 13 13 13 13 15 20 17 13 13 16 17 19 23 22 23 22 19 17 17 17 15 16 13 13 10 12 12 13 14 14
46 39 38 31 23 25 23 17 16 25 26 26 16 9 11 14 13 12 16 18 19 12 10 14 18 18 19 22 21 15 16 17 18 16 13 10 12 14 11 14 11 13 14 14
47 41 35 30 26 24 19 14 20 25 29 23 14 8 14 14 15 11 13 20 23 16 13 12 16 18 18 16 14 15 13 14 17 17 15 13 14 15 15 15 12 14 14 12
48 42 39 31 25 22 15 14 24 30 27 21 12 9 14 20 11 16 14 15 15 17 16 14 18 17 16 15 18 16 15 16 16 17 13 9 13 16 16 14 14 13 12 9
50 44 41 35 29 26 17 17 28 30 27 26 17 10 12 19 20 10 14 12 12 15 18 16 21 22 19 14 18 18 14 15 15 13 12 15 12 17 15 18 18 16 11 9
50 43 40 34 31 28 19 18 25 31 29 28 21 13 9 15 19 20 12 11 11 11 13 15 18 23 20 15 17 16 15 14 16 19 17 14 14 18 20 22 21 17 14 12
49 42 39 34 28 26 24 21 24 32 31 28 26 19 13 11 13 20 22 13 11 15 13 12 16 18 19 17 14 17 15 13 11 13 16 16 18 18 20 26 23 19 20 19
48 44 39 32 28 28 28 24 23 29 35 29 27 26 20 15 10 10 17 21 14 14 14 12 11 14 17 17 15 18 17 14 12 13 18 21 22 22 25 24 22 24 25 25
45 44 43 39 34 32 29 26 25 26 29 28 25 24 22 19 16 12 12 18 22 16 16 14 13 15 11 11 13 14 14 15 15 17 20 21 22 23 26 29 29 28 28 28
45 43 44 44 40 36 28 26 23 21 21 19 25 26 23 21 18 18 18 14 13 16 19 16 19 16 14 11 10 11 10 11 14 17 16 16 16 17 19 21 23 26 28 29
47 43 46 46 42 37 29 23 18 12 12 18 25 25 24 23 21 23 22 20 17 11 12 17 18 18 17 16 15 15 16 17 18 19 20 22 23 25 26 27 28 27 27 26
49 48 47 48 42 38 32 26 21 18 16 18 23 30 29 26 28 27 24 23 23 17 15 18 16 15 16 15 14 14 14 14 14 15 19 22 24 26 26 26 25 23 23 23
51 49 44 48 47 43 39 35 27 24 21 20 23 26 33 35 35 34 30 24 21 23 22 20 19 18 16 17 17 16 16 15 16 16 17 17 17 18 20 21 23 24 25 25
54 46 45 48 49 48 45 41 34 29 25 19 20 24 30 36 38 36 32 26 26 29 29 25 21 19 20 21 21 20 19 19 19 19 20 21 22 22 23 23 24 24 24 24

GFSNW_500_spd_036.txt.gz
Wind_Speed
17 5 7 12 9 5 15 33 49 62 35 38 45 39 33 28 28 29 35 36 37 37 35 27 25 24 27 21 16 18 25 21 25 24 32 38 40 36 35 42 42 38 34 27
10 20 7 12 9 14 17 36 55 31 29 27 40 39 34 29 30 28 32 33 33 34 28 26 21 25 24 14 15 18 22 21 29 32 34 35 36 40 36 28 32 29 33 21
6 10 2 6 15 22 26 41 34 35 28 27 39 32 25 20 24 28 28 31 30 27 26 22 20 20 20 10 14 18 24 25 34 42 27 34 36 31 35 31 21 21 27 5
5 16 6 9 19 25 27 43 32 21 33 26 26 39 28 18 23 26 25 24 25 27 21 20 14 16 12 11 14 16 23 29 26 17 19 19 22 18 7 15 14 19 16 23
10 22 13 9 24 34 34 25 23 17 36 26 25 26 23 24 24 20 19 21 27 23 18 14 16 10 10 10 13 17 23 10 16 15 14 16 17 15 12 8 13 13 28 28
12 26 20 14 34 42 34 22 18 22 29 25 28 27 22 19 21 20 19 21 20 20 23 16 16 10 10 6 10 19 10 8 12 13 18 16 26 16 14 13 13 18 25 21
15 20 20 23 38 34 41 22 23 21 13 18 27 25 22 19 20 19 17 17 18 21 22 20 14 15 11 7 12 3 3 3 8 13 18 18 21 18 15 20 17 29 19 32
13 13 13 35 41 38 32 24 20 18 15 21 24 26 24 20 17 14 13 15 14 18 20 18 16 17 13 8 3 2 4 4 4 10 12 12 12 17 18 14 15 19 20 27
14 10 20 35 42 33 24 20 21 14 14 15 18 22 21 16 16 15 17 14 16 19 20 19 21 21 15 14 12 6 3 2 1 2 6 8 6 8 12 12 18 19 22 23
9 22 34 35 34 35 27 17 12 14 18 20 16 18 18 16 20 19 12 14 18 19 21 21 23 23 21 15 10 5 5 2 4 3 4 5 7 7 8 9 9 10 13 16
26 34 35 32 31 34 28 19 16 14 12 17 18 19 19 21 21 14 11 13 13 15 17 20 29 27 22 15 12 9 8 2 1 5 6 3 6 7 6 10 10 11 13 13
32 30 28 29 32 30 26 24 21 19 10 17 18 19 18 20 15 11 12 12 16 15 15 22 28 25 23 19 15 14 13 9 6 6 6 6 5 4 4 2 8 12 11 9
34 31 30 29 28 27 26 22 19 8 7 20 21 18 19 16 9 10 12 13 19 14 14 17 21 25 23 20 19 17 15 12 12 12 12 9 7 6 5 5 5 6 8 9
38 36 30 30 29 31 24 19 13 12 14 21 20 17 15 10 8 10 11 16 20 14 11 13 18 22 24 25 22 21 19 17 17 18 15 11 10 8 7 7 8 7 7 9
40 38 32 30 32 29 26 17 12 9 15 20 22 13 5 5 9 7 10 16 17 13 10 11 15 19 21 24 25 21 21 20 18 18 12 9 8 9 10 8 8 8 9 8
45 38 35 33 31 29 24 18 11 13 19 22 16 8 4 12 11 5 8 16 16 15 10 9 12 15 18 18 18 21 17 16 15 15 14 11 11 9 10 9 10 7 9 11
43 40 35 30 29 24 19 14 13 18 22 20 13 8 5 13 12 11 9 14 20 20 12 10 11 15 12 13 15 17 16 14 13 14 14 15 12 14 13 13 12 10 13 13
43 42 38 32 23 20 17 16 17 22 23 18 13 9 8 16 12 14 14 9 15 18 17 16 14 13 15 16 18 15 14 12 13 11 15 14 13 9 13 13 13 13 13 14
44 43 37 30 26 22 17 15 20 25 24 23 17 10 7 13 17 11 11 13 13 12 12 15 17 18 16 19 14 16 17 16 14 15 13 12 12 13 14 14 17 18 17 13
46 41 35 32 30 23 24 17 18 26 26 23 23 13 8 6 12 19 14 12 11 13 10 11 12 15 16 21 15 14 15 15 13 13 16 16 15 11 12 17 20 22 22 18
45 41 35 32 31 27 27 23 19 23 26 25 24 23 14 9 6 9 16 18 11 10 11 9 11 13 15 17 17 18 17 13 13 11 13 14 14 16 17 19 21 23 24 18
42 40 36 33 31 30 30 27 22 20 22 28 25 24 24 19 13 10 7 13 20 14 12 11 12 7 7 9 14 16 15 12 12 12 13 15 17 18 21 23 24 26 26 25
39 39 36 34 38 34 29 27 22 14 12 21 29 24 23 22 20 15 13 9 9 19 15 15 15 11 8 7 7 7 8 12 14 15 15 14 15 16 18 20 23 25 26 27
35 38 39 38 40 34 28 24 20 16 14 19 28 29 28 25 23 21 18 17 12 9 11 17 17 16 15 13 12 11 12 12 12 13 14 15 17 17 17 18 20 22 23 25
30 37 40 44 43 38 33 28 22 20 17 18 23 25 28 30 30 27 24 21 21 16 15 13 12 12 11 11 12 12 13 13 13 15 16 18 20 21 22 24 25 25 25 23
29 38 40 41 42 43 40 35 29 26 23 20 19 22 26 30 35 32 29 26 20 20 23 21 18 16 15 14 14 15 15 15 16 16 16 16 16 16 18 18 18 19 20 21
16 40 43 43 43 43 44 42 36 34 29 24 23 22 23 25 31 32 32 25 21 26 26 27 24 21 19 19 18 18 18 19 18 18 18 19 19 19 19 20 20 22 23 23

GFSNW_500_spd_039.txt.gz
Wind_Speed
38 18 6 8 6 2 4 11 13 38 64 49 39 26 34 38 27 23 28 35 37 38 37 34 30 22 25 26 27 29 27 23 11 13 23 30 37 41 42 51 55 51 47 36
32 14 7 4 5 4 15 25 15 37 66 42 39 36 35 31 26 24 24 29 37 38 36 32 28 20 26 29 28 25 18 14 17 18 24 29 30 31 36 36 38 43 39 24
25 5 9 7 7 9 23 21 24 31 54 34 27 28 36 33 25 22 21 26 31 32 32 31 23 23 29 29 25 18 10 13 22 24 19 25 28 26 29 23 25 22 20 2
19 6 13 7 13 13 25 25 22 47 34 31 35 38 36 25 24 22 21 20 22 27 25 21 23 26 26 19 15 9 7 15 17 16 18 20 17 19 15 17 13 3 2 10
13 5 13 15 20 18 25 37 27 21 21 32 45 41 30 21 22 21 21 21 25 21 19 23 24 22 16 13 9 4 7 10 9 9 11 20 18 18 12 3 13 8 9 14
10 5 13 20 27 31 42 24 22 20 25 30 32 31 31 20 18 20 21 20 16 18 22 23 22 16 15 10 8 3 7 5 4 11 14 17 22 27 12 9 3 1 8 20
15 8 10 26 37 31 27 21 20 20 23 18 19 27 30 18 18 21 18 14 14 17 20 22 21 14 14 11 4 1 1 1 3 7 10 14 22 21 12 14 7 7 18 21
15 4 13 42 37 29 25 25 26 20 23 13 21 23 19 20 16 16 16 13 11 13 19 19 18 16 13 11 10 5 2 2 2 6 11 13 13 13 17 7 3 1 10 16
4 4 23 37 30 24 23 23 22 20 18 20 26 21 18 18 15 17 16 14 12 15 18 19 16 15 17 17 12 3 3 3 2 4 8 10 11 9 12 9 7 9 12 14
3 17 30 30 31 25 23 22 17 13 14 17 19 20 18 19 13 17 17 14 14 19 21 18 17 20 23 16 10 6 6 3 4 3 7 9 10 8 8 8 9 9 10 15
10 26 36 34 32 25 19 18 15 12 8 11 10 14 19 19 17 20 20 16 14 15 19 16 19 23 25 18 12 12 10 5 3 3 6 6 7 7 5 7 12 12 10 11
15 25 32 37 29 25 21 15 13 8 4 8 15 16 19 17 20 20 22 14 10 7 12 16 22 24 23 21 15 15 14 10 6 4 6 9 7 3 5 3 9 10 10 10
25 23 30 32 26 24 22 13 11 6 6 7 15 15 14 15 16 17 12 10 12 11 13 18 23 24 26 24 19 15 15 11 9 8 8 12 9 6 2 4 5 6 8 8
31 29 26 24 27 24 20 16 13 10 5 5 12 13 12 13 11 11 11 11 11 17 14 16 19 22 25 23 20 16 15 16 15 11 12 14 11 6 3 3 7 8 5 7
36 37 29 27 28 27 22 18 13 11 7 8 12 14 8 5 9 9 8 10 16 19 15 15 16 20 23 24 22 18 21 21 18 15 13 10 8 5 5 4 5 7 5 5
34 36 34 29 30 25 25 19 13 9 7 9 10 10 8 2 7 5 5 11 18 17 13 12 14 18 21 22 22 28 23 18 14 13 11 10 6 6 5 6 6 7 7 8
35 37 34 29 24 25 25 18 14 12 9 13 12 4 5 2 11 7 3 11 17 17 15 11 8 13 13 15 16 23 16 11 10 10 10 11 10 10 8 9 7 3 5 8
35 38 35 29 26 26 26 21 18 14 12 17 12 7 3 8 11 10 6 4 11 17 12 10 10 7 9 14 22 11 11 11 10 10 9 8 8 8 5 10 10 8 10 11
37 40 35 28 24 26 24 20 17 15 14 19 14 8 3 10 10 8 9 8 7 13 14 12 12 10 11 18 13 10 13 13 10 9 11 9 11 9 11 10 11 10 11 14
37 39 35 30 27 23 21 18 15 13 16 18 18 12 5 4 12 10 8 10 9 10 11 11 12 15 16 18 16 12 11 15 15 14 11 13 13 11 8 11 13 17 21 19
37 37 36 31 29 24 22 18 14 10 13 18 20 17 10 5 4 12 14 10 7 6 9 9 10 10 11 14 17 18 15 14 14 11 11 12 13 12 12 11 13 17 23 20
34 35 34 32 27 27 23 21 16 8 9 17 21 21 20 13 7 5 6 12 16 13 7 8 7 7 7 9 13 15 15 14 14 11 12 12 13 14 16 15 16 20 21 22
32 37 36 32 30 30 26 20 18 13 13 13 20 24 22 22 20 14 9 7 7 15 16 12 9 7 6 6 5 8 11 14 14 14 12 11 12 13 13 14 18 19 21 21
24 34 35 34 33 30 26 21 19 19 18 14 16 23 27 24 23 21 19 15 12 8 12 17 14 11 10 9 10 9 9 10 11 11 11 12 14 14 13 13 14 15 16 18
10 28 34 37 36 33 30 26 22 21 21 17 18 21 28 30 27 24 22 19 17 14 12 10 12 14 15 14 14 14 14 14 15 15 15 15 16 17 17 17 18 20 21 22
15 14 31 36 38 37 33 33 30 26 23 21 19 19 24 27 29 25 27 25 20 18 19 18 16 12 11 11 11 12 13 13 14 15 15 15 15 15 16 18 19 19 19 19
22 13 16 33 37 38 40 39 36 33 29 27 24 21 20 24 27 26 28 26 24 25 24 24 23 21 19 16 15 16 17 17 18 17 17 17 17 17 18 18 18 19 20 21

GFSNW_500_spd_042.txt.gz
Wind_Speed
61 40 13 2 5 3 1 10 6 24 55 60 50 38 33 31 31 28 23 25 31 33 31 32 29 27 26 24 25 23 23 20 16 17 21 23 30 32 34 37 39 44 44 44
50 33 6 2 6 13 16 13 4 23 51 55 40 32 36 35 28 24 24 27 30 36 36 30 30 28 27 26 24 21 19 18 10 13 20 23 23 23 30 34 38 36 38 40
43 28 5 15 14 16 16 8 12 22 39 39 32 34 29 32 33 22 22 27 31 33 35 36 31 28 27 25 23 20 19 13 10 10 15 15 16 17 25 35 36 31 29 29
37 23 5 21 22 25 14 15 13 29 41 34 32 32 27 33 31 23 19 20 26 32 35 34 31 29 26 24 20 18 15 12 6 10 5 8 16 19 25 27 25 27 26 27
31 20 10 22 21 21 17 26 20 39 24 28 29 30 31 31 26 22 16 20 26 29 28 29 25 23 24 21 18 17 14 8 7 3 5 10 12 17 24 22 18 22 22 19
26 16 10 20 24 23 18 21 27 40 20 23 26 30 31 25 24 21 21 18 18 19 22 21 21 20 17 17 16 17 12 8 7 7 6 10 14 14 22 19 11 13 11 7
21 11 19 24 29 24 26 26 35 26 19 26 27 30 29 23 19 19 17 20 19 19 18 19 20 16 14 16 19 15 9 8 10 4 6 7 10 15 19 16 11 5 14 15
15 16 23 28 26 21 22 23 26 27 27 27 32 31 28 19 12 14 17 20 19 17 17 17 15 14 16 18 20 14 8 10 7 3 4 6 7 10 16 12 14 2 6 6
11 25 29 28 20 19 25 25 23 20 19 22 27 28 25 18 14 18 20 19 17 12 12 10 11 16 17 21 19 12 8 5 3 4 2 4 7 9 11 11 9 4 9 5
6 30 28 26 27 24 25 25 21 18 13 21 25 25 20 17 15 17 17 19 17 12 10 12 12 17 20 23 18 13 8 6 7 5 3 6 8 9 11 9 5 7 5 9
11 37 34 29 30 25 22 21 17 13 15 23 24 20 18 17 14 11 18 18 13 11 12 14 16 20 26 25 19 15 12 9 6 6 5 4 5 6 5 4 2 8 9 4
4 36 36 32 24 21 19 21 16 13 11 11 14 17 18 18 16 17 17 19 15 11 12 16 20 24 30 27 20 16 13 9 7 6 2 4 2 4 4 2 4 3 2 6
12 34 36 29 25 19 19 17 12 7 4 10 15 17 18 19 19 21 17 19 16 14 11 17 21 25 30 27 20 16 14 13 10 7 5 5 3 1 4 5 6 9 4 2
21 22 38 30 23 25 20 10 6 5 3 6 13 16 16 14 15 13 15 15 17 14 17 17 19 24 32 29 23 16 14 14 13 11 8 8 5 3 4 4 7 6 6 4
26 32 38 34 26 22 16 11 10 9 5 6 10 14 15 9 8 11 14 15 16 15 20 17 19 26 28 28 22 17 16 14 14 13 12 11 5 2 4 6 3 9 4 4
26 37 36 31 27 26 21 16 13 8 9 6 9 11 5 7 5 9 8 9 14 19 19 18 21 24 24 22 18 20 18 20 15 14 13 8 6 4 2 5 4 6 7 5
22 42 38 31 26 22 21 18 14 12 10 7 9 7 3 3 7 6 3 5 14 19 17 17 17 17 16 17 18 25 18 18 17 13 9 8 8 9 6 7 6 4 9 7
22 43 37 30 26 25 23 22 18 14 12 8 15 9 3 7 9 8 3 4 13 17 17 15 12 10 11 15 24 21 18 18 17 12 8 10 10 10 8 8 9 10 9 12
27 41 38 33 26 23 21 24 21 17 15 9 15 9 4 8 8 10 7 3 5 12 15 13 11 9 11 17 17 17 15 14 13 8 7 8 9 9 7 7 10 10 8 9
30 37 35 31 24 20 22 23 20 18 13 13 17 12 7 6 10 7 6 6 4 6 11 12 12 13 10 14 15 13 12 11 11 10 11 10 10 9 8 7 12 12 14 14
27 33 31 28 24 22 19 21 19 14 10 15 20 16 9 6 4 10 8 7 6 4 5 7 6 9 12 14 16 14 14 11 9 12 9 11 12 14 12 10 12 14 14 15
22 32 30 28 23 22 21 20 16 12 9 15 20 20 16 10 7 6 9 11 8 6 3 4 6 8 9 10 14 16 17 16 12 13 12 13 12 12 12 12 12 12 13 16
16 31 33 31 29 27 24 20 16 16 10 9 16 20 21 18 13 9 6 5 5 9 11 8 7 7 8 8 7 10 13 14 12 11 12 13 13 12 12 13 14 15 14 15
6 28 33 36 35 31 27 23 19 17 17 14 13 16 21 23 23 19 15 11 7 5 4 12 12 10 8 7 6 6 6 9 12 13 13 13 12 12 12 12 12 12 13 14
13 11 31 39 37 34 31 27 25 22 20 21 19 17 17 21 25 24 21 18 15 12 10 8 10 14 15 13 12 11 10 11 11 11 11 11 11 11 12 12 13 15 16 17
14 11 9 29 39 38 36 32 30 27 24 22 23 21 18 18 21 24 25 20 17 17 17 16 14 13 12 12 13 14 15 15 15 15 15 15 14 14 14 15 16 17 18 17
14 13 12 5 25 37 39 38 35 32 32 28 25 25 22 19 19 18 23 25 26 26 26 23 23 22 20 17 15 15 16 16 16 16 16 16 16 16 16 16 16 16 17 18

GFSNW_500_spd_045.txt.gz
Wind_Speed
77 52 31 11 9 8 12 13 7 6 21 36 47 41 32 28 36 32 28 26 30 28 27 30 31 31 30 29 28 26 25 22 19 22 25 25 23 22 29 34 36 43 46 46
68 47 16 13 9 7 14 10 4 14 29 39 42 42 35 29 32 25 25 27 28 30 25 27 28 28 28 27 25 24 21 18 17 21 23 20 19 21 23 29 35 37 41 38
60 40 11 13 10 11 17 4 10 20 39 38 35 38 36 33 33 23 22 23 29 31 27 27 26 26 25 24 23 21 19 16 18 18 19 17 14 16 20 29 35 36 29 42
52 29 12 12 13 20 12 13 26 33 40 36 40 33 26 31 23 19 18 20 25 29 31 29 27 27 26 25 23 19 16 15 16 19 18 13 11 14 19 29 31 31 25 34
47 18 11 13 16 19 12 15 23 24 42 31 31 31 22 28 26 20 15 19 24 30 30 31 33 31 28 25 21 17 14 16 17 18 11 11 14 17 22 26 21 19 25 25
41 9 14 11 13 17 15 13 35 34 27 28 27 26 26 30 27 19 15 11 14 23 27 28 27 29 29 24 17 16 16 18 15 15 12 16 15 15 17 16 12 12 12 19
33 6 20 10 12 13 10 10 30 28 26 24 25 26 27 26 21 16 16 13 12 17 20 22 24 24 21 17 17 16 17 17 14 15 12 14 12 12 14 11 11 13 15 17
24 4 19 17 19 10 16 14 25 17 21 25 27 27 23 18 13 11 13 13 15 17 18 18 18 18 16 16 15 16 16 15 15 13 11 9 8 8 10 12 13 16 16 13
13 17 15 17 17 16 20 25 12 13 15 18 27 27 22 16 11 9 14 18 19 18 18 17 17 16 16 16 16 17 18 14 10 11 8 7 4 6 10 12 12 12 13 14
9 17 13 17 13 15 20 18 19 14 17 19 24 22 20 14 10 12 16 19 19 17 16 16 15 15 15 17 18 20 18 10 12 10 7 4 5 7 8 9 9 8 9 11
12 18 18 20 19 19 15 14 15 15 13 16 22 20 20 18 16 18 16 18 18 17 14 13 15 15 17 16 21 25 15 12 12 8 4 2 5 6 7 7 9 4 10 12
24 22 26 23 22 20 20 19 16 14 15 13 20 21 21 20 15 13 13 17 19 16 12 12 15 18 18 21 26 21 16 16 14 7 4 3 6 7 5 7 7 5 6 8
25 24 30 31 26 24 21 20 17 15 15 18 21 21 18 17 17 16 16 14 20 19 14 14 17 20 21 25 29 22 19 18 13 10 9 6 8 9 8 6 8 8 10 5
31 30 40 32 26 25 23 19 12 8 6 12 17 19 21 19 18 19 18 19 20 21 18 18 19 22 22 28 29 22 19 19 15 14 11 9 10 11 9 6 8 7 5 5
36 25 46 42 35 27 22 16 10 7 6 4 7 17 19 17 16 17 16 17 19 19 18 19 19 22 25 31 32 23 20 20 16 13 12 12 12 12 9 6 6 4 4 5
37 24 47 42 30 31 24 14 8 8 6 7 7 13 17 17 11 12 14 14 16 18 18 20 18 21 27 34 29 27 24 19 16 15 13 11 10 11 7 4 4 6 5 5
34 25 40 45 36 33 22 13 10 10 8 9 9 9 6 4 7 9 7 10 13 16 17 18 20 24 31 30 26 30 24 19 18 17 16 14 10 12 10 6 7 6 8 7
27 27 40 43 36 25 18 17 16 12 11 12 10 12 6 5 7 7 5 4 11 15 15 16 18 23 22 20 31 27 20 20 21 17 14 15 12 12 13 11 11 10 8 8
14 32 43 38 29 25 22 18 17 16 15 13 15 13 8 5 8 8 8 2 7 15 16 15 16 15 15 23 21 21 21 19 15 13 13 14 11 9 11 9 9 14 13 11
3 33 34 32 28 21 19 20 21 20 17 16 15 14 9 6 10 9 9 9 6 9 13 14 11 12 12 13 15 14 15 14 13 14 14 12 10 10 12 9 10 11 11 10
5 29 32 29 24 21 22 21 22 20 17 16 13 16 12 7 6 11 11 10 9 9 11 13 12 11 13 14 14 12 13 14 13 11 14 12 15 15 14 9 9 11 12 12
6 27 29 27 25 21 21 20 20 18 16 14 12 18 16 10 8 6 6 9 10 9 8 10 9 8 9 12 14 16 16 16 15 11 11 11 12 13 15 14 13 13 14 15
3 26 30 31 30 25 21 20 17 16 14 12 12 18 20 17 12 9 6 4 4 5 7 6 6 8 8 9 11 14 18 17 15 14 11 11 13 14 14 13 13 13 12 16
11 13 32 34 34 28 21 21 21 19 19 18 13 13 18 22 20 16 12 8 4 2 3 10 10 8 8 8 7 5 6 10 12 12 12 12 13 15 15 15 14 12 12 12
6 5 15 31 34 33 30 28 26 24 21 19 19 18 16 17 20 23 21 17 13 10 9 7 10 13 12 9 7 7 7 7 8 8 9 9 10 11 11 11 12 13 15 15
7 6 5 8 27 34 36 35 33 30 28 28 24 23 22 20 18 19 22 22 20 18 17 16 14 13 14 15 15 15 14 14 14 14 13 13 13 14 14 15 15 15 16 17
8 8 6 5 7 17 35 39 39 37 35 33 31 28 24 23 21 16 17 21 25 25 24 23 21 21 18 17 16 16 16 15 15 16 16 16 15 15 16 17 17 17 17 17

GFSNW_500_spd_048.txt.gz
Wind_Speed
76 63 29 18 19 19 27 21 11 7 22 39 41 33 27 27 27 26 25 22 26 24 27 31 29 27 27 26 24 23 23 22 17 22 21 21 20 22 24 26 29 30 32 38
70 57 16 22 24 27 20 17 11 17 42 46 31 29 32 30 24 26 22 24 26 25 27 32 30 28 26 25 23 23 21 18 18 19 21 19 21 23 23 26 28 23 35 35
67 50 12 22 28 24 15 11 19 25 48 34 29 31 25 25 24 22 21 24 28 25 26 27 25 25 24 23 22 20 20 17 18 19 18 19 18 19 21 25 25 31 28 33
62 43 11 18 24 19 26 20 28 30 39 25 25 29 26 27 22 19 21 22 26 25 25 26 26 25 24 23 21 19 16 14 15 18 22 17 15 19 20 22 23 29 24 25
57 30 9 16 17 22 18 19 25 37 29 30 24 26 19 20 20 15 17 19 23 23 22 22 22 22 22 19 18 15 12 14 15 20 16 14 13 17 19 21 22 23 24 19
54 32 5 13 14 17 13 26 27 29 33 24 26 22 15 25 20 17 10 10 13 17 22 22 23 22 21 18 17 14 13 16 14 15 15 16 16 18 19 18 20 21 22 24
51 32 6 5 12 13 14 21 25 24 18 22 22 24 31 25 18 11 8 5 7 12 18 21 22 21 20 20 19 16 17 15 13 16 18 16 13 16 15 17 20 19 20 17
41 28 6 3 8 10 19 20 20 15 17 19 22 24 26 17 12 10 6 6 7 9 11 16 18 18 18 17 14 16 15 14 13 17 16 13 11 13 13 14 11 15 14 17
37 12 5 8 4 9 23 15 18 22 19 20 23 26 18 15 11 8 7 8 10 10 11 11 13 14 15 15 15 15 15 14 14 15 12 11 10 10 9 7 10 12 13 14
34 8 4 5 4 10 20 10 14 14 16 19 19 18 14 10 7 6 9 11 11 12 11 12 13 15 15 15 15 14 13 14 13 13 10 11 10 7 7 8 8 8 12 14
33 11 13 6 6 7 11 12 12 12 13 17 18 17 17 15 9 9 11 11 13 13 13 14 15 16 16 17 16 14 15 14 13 10 11 11 9 8 8 6 6 10 10 11
33 25 21 18 13 12 12 16 16 15 16 16 17 19 17 13 11 10 9 10 13 15 17 16 17 17 16 17 16 14 16 16 12 12 10 6 7 9 9 8 7 7 10 12
33 31 15 25 21 18 16 16 18 18 15 12 17 19 16 17 15 11 11 8 11 16 19 17 15 16 18 18 17 16 19 18 17 14 12 9 10 12 12 10 9 8 7 7
34 32 12 32 28 22 22 19 17 15 13 12 14 16 17 18 18 16 16 15 16 16 21 19 14 15 19 19 18 19 21 18 19 18 13 12 13 14 14 9 10 10 6 3
37 35 12 36 34 30 26 21 16 14 10 8 10 15 20 20 20 19 17 18 20 19 21 20 18 18 20 22 20 19 22 23 21 19 14 15 15 15 14 10 9 9 5 3
39 38 14 39 38 34 29 19 13 9 8 6 6 9 14 18 19 17 18 20 16 19 22 20 19 19 21 23 18 24 28 26 21 17 17 15 15 15 12 8 7 6 5 3
40 37 15 47 40 34 27 18 15 11 10 5 7 10 11 13 17 20 19 18 17 20 22 19 19 20 20 17 18 26 30 26 20 15 17 19 18 15 14 10 7 8 5 10
38 22 19 51 41 35 28 19 14 10 8 6 8 14 10 10 11 10 11 10 11 13 14 17 19 18 14 12 24 31 30 25 21 23 21 20 18 14 16 15 12 12 10 8
29 2 21 40 43 35 31 22 16 11 11 8 8 13 13 8 6 9 8 7 5 8 9 12 14 12 8 22 27 25 24 25 25 27 21 18 17 14 16 16 14 15 17 14
18 9 20 35 39 28 27 20 16 13 13 11 11 14 11 9 6 9 9 9 6 6 10 12 10 13 18 16 16 18 20 25 28 22 17 16 14 14 14 12 12 12 11 13
9 11 17 28 36 31 25 21 18 16 15 15 13 15 12 10 6 6 9 10 10 10 11 11 13 14 14 16 15 18 21 21 21 18 16 16 15 14 13 14 13 10 10 12
5 17 24 28 27 24 23 22 20 19 18 16 15 14 11 14 8 7 3 3 8 8 9 14 16 15 14 14 16 17 17 16 15 16 13 15 16 13 16 16 16 14 13 12
6 14 28 31 29 28 25 22 18 18 16 14 12 11 11 14 12 9 6 5 2 4 5 7 13 12 10 11 12 14 16 18 17 17 17 14 16 15 15 14 15 15 14 12
5 2 21 32 35 28 24 21 20 18 17 17 15 11 9 11 15 15 12 9 5 5 4 7 8 9 11 10 9 8 10 15 17 17 15 13 13 13 15 16 16 16 14 14
7 4 5 16 30 31 29 28 25 22 22 20 19 17 15 13 13 15 17 18 14 8 6 6 7 9 8 7 5 7 10 8 9 9 10 10 11 12 12 12 12 13 13 14
9 7 6 5 12 26 34 34 33 28 26 25 24 22 18 17 17 14 15 17 19 18 15 12 11 10 10 12 12 11 10 10 9 9 9 9 10 10 10 10 11 12 14 15
11 10 9 9 7 6 17 35 37 37 35 33 32 29 28 25 21 18 18 17 19 23 24 21 19 17 16 15 13 13 14 15 16 15 15 14 14 13 13 13 14 14 14 15

GFSNW_500_spd_051.txt.gz
Wind_Speed
68 70 51 34 39 39 26 14 15 40 49 38 40 36 31 28 30 27 31 26 25 23 22 30 25 25 26 25 24 21 19 18 16 19 17 16 15 14 15 19 23 24 28 20
65 66 47 35 39 35 19 20 37 48 36 29 42 31 24 24 28 28 29 27 28 28 25 30 25 25 26 24 22 20 19 18 17 17 16 13 12 16 19 22 23 16 23 23
59 60 40 34 36 26 25 28 36 35 35 42 34 30 26 22 21 21 21 19 20 24 24 30 25 23 24 23 21 19 18 16 15 14 12 11 16 19 21 18 18 17 18 23
53 53 36 30 29 19 27 43 36 31 31 29 24 27 27 18 18 16 17 19 19 21 20 28 22 22 21 20 20 17 14 13 12 12 12 15 16 20 18 15 17 20 15 24
48 47 29 27 26 16 29 34 24 26 26 26 26 21 21 16 15 14 16 18 17 18 20 23 21 20 19 18 17 14 12 11 12 15 15 15 12 15 15 15 19 18 23 18
44 43 26 22 19 14 37 21 19 24 28 26 20 23 19 20 19 16 12 13 17 15 18 19 20 20 18 17 15 14 12 10 13 16 15 10 11 12 13 17 16 18 19 19
40 37 23 17 14 21 28 21 15 17 19 20 18 18 21 18 18 17 13 10 9 14 15 16 16 16 16 15 15 13 11 12 12 14 12 11 10 13 13 14 11 13 13 14
36 31 19 14 10 20 16 16 13 16 15 14 13 21 20 17 17 16 13 10 6 6 8 13 16 16 17 16 16 15 13 16 14 14 12 10 10 10 10 9 9 9 7 10
31 27 12 11 6 14 22 13 10 15 12 13 16 22 18 13 12 11 8 3 1 1 5 8 11 13 14 15 14 15 18 15 13 12 9 11 11 7 8 7 7 5 7 8
31 25 11 3 3 18 13 17 19 17 14 15 18 22 15 10 8 5 3 4 5 6 7 9 10 11 12 13 15 17 15 13 12 10 9 11 8 7 9 8 8 7 5 11
30 23 17 9 5 18 19 17 11 15 18 16 21 20 15 12 10 3 3 7 10 11 10 10 11 11 13 12 14 16 14 11 10 10 11 12 8 6 7 8 10 9 5 6
29 27 19 17 15 11 20 16 17 13 14 20 19 18 16 11 8 7 9 8 9 10 12 12 11 11 12 14 16 15 15 13 13 12 12 8 6 3 6 8 11 11 6 5
29 30 25 19 26 22 23 21 21 18 16 18 16 17 16 15 13 9 8 6 6 8 12 14 13 13 14 16 18 16 15 15 15 14 12 9 7 6 10 12 10 10 8 3
32 33 30 25 27 29 25 22 24 20 20 19 17 18 20 19 16 14 13 13 12 10 10 13 15 15 16 19 20 16 16 17 17 16 13 11 9 9 12 13 11 12 9 6
33 34 34 28 26 33 28 25 23 21 19 16 14 17 18 17 17 17 18 18 19 18 15 14 18 18 19 20 20 18 18 21 20 18 14 13 12 12 13 14 10 10 5 2
34 35 38 28 30 37 32 28 24 20 18 14 11 10 13 19 22 21 20 20 18 16 18 16 19 21 20 21 18 22 17 24 22 16 16 15 14 14 14 12 10 9 7 3
33 36 38 18 36 37 32 27 23 20 15 8 6 6 8 13 15 18 18 17 19 17 15 16 19 23 19 18 16 23 22 25 22 18 17 16 17 16 16 14 12 11 10 8
31 34 27 10 40 37 34 28 23 17 13 9 5 6 3 7 10 11 15 16 15 14 16 18 20 21 15 12 22 24 24 23 22 20 20 20 18 19 17 15 12 14 13 11
27 23 12 29 38 35 35 25 19 14 11 9 6 6 12 6 11 11 13 11 11 11 11 12 14 13 12 20 26 22 23 21 23 23 24 23 22 22 19 15 14 15 15 16
21 8 5 33 37 37 32 28 18 10 11 6 7 6 11 9 8 9 10 10 8 7 7 8 9 12 19 22 21 18 18 19 21 24 25 24 22 20 16 13 13 11 12 11
14 3 15 34 35 27 25 25 21 16 12 8 9 8 11 10 7 7 8 9 9 9 8 10 13 17 15 16 17 18 18 20 22 23 24 23 19 16 14 13 14 14 11 11
10 6 14 25 32 33 29 28 25 17 15 13 11 11 11 11 10 9 7 6 1 4 3 7 13 16 15 16 16 17 18 19 19 21 19 17 16 16 16 16 18 15 14 13
8 5 17 23 33 33 31 25 23 22 18 14 12 11 9 7 9 10 9 6 6 3 3 5 6 13 18 16 16 16 16 15 16 16 15 15 16 17 17 15 16 19 19 17
8 5 11 26 28 29 30 29 26 23 20 18 17 14 11 6 5 8 10 9 6 4 2 4 7 6 15 13 10 9 9 11 15 16 17 18 18 17 17 17 16 15 16 15
10 10 6 9 26 32 33 31 28 25 23 21 20 18 14 13 11 8 9 12 12 9 7 5 4 5 6 11 9 10 8 10 7 12 15 16 16 16 17 15 14 14 14 13
13 11 10 10 11 20 34 36 34 32 31 25 24 23 19 16 14 12 11 11 13 14 14 13 9 7 6 6 7 7 10 11 13 13 14 14 14 14 13 13 11 6 13 13
15 14 10 13 11 9 11 24 36 35 34 33 30 26 25 22 21 19 16 16 17 16 16 17 16 16 14 12 10 10 10 13 15 15 15 15 14 14 13 12 13 14 15 14

GFSNW_500_spd_057.txt.gz
Wind_Speed
40 43 46 24 12 13 21 25 20 19 26 20 19 17 24 36 29 34 28 30 24 21 20 24 25 26 26 24 22 19 18 18 18 19 22 21 20 18 16 16 14 14 15 14
36 38 41 16 7 6 12 22 19 22 24 20 13 15 16 23 24 26 28 26 25 21 23 24 25 26 23 21 20 18 19 18 19 19 18 16 14 15 15 15 13 13 12 15
32 33 36 12 6 7 3 14 16 15 21 22 14 18 15 18 20 25 25 22 20 20 21 22 20 20 18 19 19 20 19 19 18 16 14 14 15 15 15 15 14 14 13 15
29 29 31 13 7 6 5 4 7 15 21 25 21 22 18 17 15 21 20 17 18 16 15 21 17 17 18 17 18 19 17 15 13 13 13 14 14 14 15 13 17 12 16 15
26 24 27 20 7 7 6 5 2 4 12 19 21 20 20 15 14 15 15 16 15 15 20 22 17 16 17 15 16 17 16 14 13 12 13 14 15 15 13 14 15 11 12 17
23 21 22 24 6 9 11 6 6 7 8 12 12 15 14 12 10 11 11 12 15 14 20 19 16 16 17 17 17 17 14 13 13 14 15 14 13 13 12 12 11 11 12 12
19 17 20 21 14 14 13 8 5 0 6 5 11 11 11 11 12 12 11 11 12 11 22 18 15 15 14 15 15 15 15 15 15 13 11 10 11 11 9 9 10 10 9 10
17 14 17 17 15 12 17 14 13 12 7 6 9 10 8 8 11 14 12 9 10 10 13 17 17 16 15 15 15 15 15 14 14 13 11 9 9 9 6 8 8 6 7 5
14 12 12 14 14 10 21 16 13 15 10 11 11 11 9 10 10 13 14 11 9 10 10 9 11 15 17 16 14 15 16 16 15 13 11 9 9 7 7 6 5 6 7 8
13 12 12 11 12 12 18 26 18 16 14 12 15 13 11 11 11 8 6 7 7 8 9 12 14 16 16 16 17 19 19 19 17 15 12 10 8 9 9 7 7 7 8 9
15 12 12 12 10 11 15 24 33 23 17 16 17 18 16 13 11 8 7 6 5 7 8 9 12 14 17 18 19 20 20 20 19 14 12 11 10 10 8 6 7 7 6 9
16 15 13 14 14 12 13 20 26 34 33 28 21 19 24 19 16 12 11 9 8 10 12 13 12 13 14 16 17 17 15 16 15 13 13 11 11 10 7 4 4 7 8 10
17 16 14 16 17 17 15 17 29 35 39 36 34 29 25 29 22 17 15 11 8 10 14 12 13 15 15 16 16 16 16 14 15 13 14 14 14 15 11 7 7 8 9 9
20 19 19 20 20 22 25 23 31 38 34 28 23 28 29 29 27 21 17 13 10 8 9 9 12 15 17 17 17 15 17 16 16 14 17 16 17 17 11 9 8 9 8 10
19 21 23 23 25 28 32 28 29 41 37 31 24 21 23 24 25 22 21 19 16 15 13 12 14 15 19 22 19 17 23 16 14 16 19 18 19 16 12 10 9 8 6 8
25 25 25 25 30 35 35 28 32 39 36 28 21 19 20 22 24 25 25 23 21 21 21 20 18 22 24 23 20 25 24 22 18 19 20 21 21 19 16 13 10 9 7 7
25 26 24 27 32 37 30 18 27 32 27 22 18 16 15 19 22 23 24 25 25 25 24 22 20 21 27 21 19 30 27 22 21 22 20 23 23 20 17 13 10 10 11 10
22 26 24 28 31 31 9 25 25 23 21 22 19 17 17 15 18 23 27 27 26 25 23 21 21 23 26 20 20 26 28 24 22 22 21 25 22 20 18 15 11 12 13 14
24 23 24 26 22 9 28 27 24 23 24 21 17 16 15 13 12 17 20 20 17 17 17 17 18 20 22 21 24 26 29 25 20 21 22 26 25 22 19 16 14 17 15 16
22 21 20 15 8 26 27 26 23 23 23 19 16 15 14 13 6 9 14 14 14 13 14 16 15 15 19 23 23 23 24 22 18 21 24 27 28 25 19 16 15 16 14 15
22 20 14 6 21 26 26 25 23 23 19 16 14 11 11 11 9 7 12 12 12 12 14 18 16 14 13 11 12 16 17 18 17 21 24 26 29 27 21 18 16 15 14 13
21 19 11 13 25 27 27 26 25 23 20 13 10 7 7 10 8 9 11 11 11 11 11 16 16 15 14 13 13 14 15 17 18 20 24 25 26 25 22 18 17 15 15 14
20 18 15 19 28 33 31 29 26 26 19 14 13 10 10 10 9 9 10 11 11 12 11 11 9 9 10 13 14 14 14 15 16 17 20 23 24 24 20 18 17 17 17 18
21 20 17 22 28 34 33 29 29 28 26 22 20 18 15 16 13 12 10 11 12 12 12 8 6 7 9 7 11 16 14 12 12 12 14 17 19 20 18 17 16 16 17 18
23 20 19 15 22 28 34 35 34 32 31 27 25 24 23 20 19 17 15 11 10 10 12 12 10 5 6 8 7 11 12 12 13 10 11 15 16 17 17 16 17 17 17 17
22 16 19 18 18 24 31 32 37 37 38 36 33 31 29 25 23 20 18 15 12 12 11 11 11 10 8 4 7 12 12 14 13 13 12 8 10 11 15 17 16 16 17 17
20 15 20 19 18 15 17 26 31 33 40 38 38 38 33 30 28 24 19 18 18 16 13 11 12 12 12 12 9 7 10 14 21 18 14 15 14 11 13 14 17 17 20 19

GFSNW_500_spd_060.txt.gz
Wind_Speed
33 32 34 32 22 11 21 18 29 21 18 18 19 20 22 23 23 22 22 22 18 19 17 20 22 23 22 23 20 20 18 17 17 18 21 23 23 22 22 20 16 13 13 15
30 29 31 31 20 10 13 22 27 21 15 15 18 18 20 21 17 16 23 19 18 19 20 20 21 21 21 20 19 18 17 17 18 18 18 18 17 17 16 15 14 12 13 16
27 27 27 29 19 13 6 14 20 25 20 17 15 16 13 13 18 19 20 15 15 15 18 19 18 20 18 17 17 16 17 17 17 14 13 13 14 14 13 13 12 12 14 15
25 24 22 25 16 8 10 9 12 19 17 13 13 13 13 15 15 17 15 11 11 13 15 15 15 21 16 16 15 16 15 13 12 11 13 13 14 14 14 13 15 11 16 16
22 19 19 21 15 5 5 9 11 10 16 13 14 12 8 12 10 11 7 9 12 13 14 18 20 18 18 16 16 16 14 12 12 12 13 13 14 13 12 13 12 13 16 18
23 19 16 16 15 2 1 3 5 2 8 8 9 7 7 9 9 8 10 10 11 9 16 16 14 14 16 15 16 16 14 13 12 12 12 11 11 11 12 13 13 13 14 15
22 15 13 12 13 3 4 8 1 4 2 2 3 5 3 2 4 6 7 8 9 9 18 14 12 11 13 13 14 14 13 13 13 12 10 9 11 12 12 11 11 12 13 14
20 13 12 11 11 7 8 12 12 10 7 4 4 2 3 3 4 6 7 7 6 9 18 15 11 10 11 13 12 13 13 13 13 11 9 8 9 12 13 12 11 12 12 11
18 13 12 11 10 9 5 12 16 15 13 10 9 10 4 4 7 8 9 9 8 9 15 15 14 13 13 13 13 14 14 14 14 13 10 10 10 11 12 13 11 10 11 9
20 16 12 11 12 10 9 9 18 15 13 14 12 14 11 9 8 8 6 5 6 9 9 11 12 17 17 16 16 16 16 17 17 15 13 11 10 12 13 12 8 8 8 9
25 16 12 12 12 13 11 10 12 22 19 17 17 18 15 12 12 9 7 6 4 5 7 10 13 15 17 17 18 19 19 19 19 19 17 14 12 12 13 12 9 9 8 7
25 20 15 14 14 14 14 13 13 16 28 23 23 22 21 19 16 13 9 9 7 8 9 10 11 13 15 18 20 21 20 20 19 18 17 13 13 13 13 11 8 8 10 10
25 22 16 15 17 17 17 18 16 16 19 31 36 28 24 20 23 20 15 13 12 12 13 16 14 14 14 15 17 18 18 16 16 17 16 14 16 16 16 13 9 8 8 9
28 26 19 21 19 21 21 22 21 21 26 29 35 38 36 31 25 27 23 19 16 15 11 11 13 13 14 16 16 17 18 16 17 16 17 17 18 18 19 14 10 9 9 8
26 27 16 21 26 24 23 26 28 25 28 35 38 36 37 35 30 30 31 26 22 18 15 12 12 12 14 15 17 20 22 18 15 17 19 17 19 19 20 16 12 11 9 7
21 20 20 26 28 28 28 30 32 33 31 38 36 33 26 25 27 28 28 28 27 23 20 20 18 18 21 18 18 24 23 21 19 19 21 19 23 22 23 20 15 13 10 10
21 22 23 28 28 30 32 33 38 32 27 28 28 29 24 21 23 25 27 28 29 25 25 23 23 23 28 22 16 23 26 24 23 21 23 21 24 24 24 22 18 15 13 12
24 24 25 30 31 30 31 31 15 18 27 26 25 23 19 18 20 21 23 25 26 23 24 24 25 26 28 22 19 23 28 27 24 21 22 25 24 26 26 24 20 17 15 13
20 22 24 26 26 25 14 12 26 26 26 22 20 22 21 19 16 16 20 24 25 24 23 24 25 24 23 20 22 22 24 25 22 22 22 27 26 27 27 25 23 21 18 17
18 22 27 23 19 9 16 23 23 23 23 20 19 19 18 15 15 13 16 18 20 19 20 24 24 21 20 22 23 25 25 24 23 20 22 26 28 27 29 27 24 21 19 18
21 25 24 18 11 19 22 23 21 21 21 20 18 16 10 9 12 10 7 10 14 15 18 21 20 17 19 17 17 17 20 22 20 21 23 26 29 28 30 30 25 21 20 18
20 24 21 16 13 24 25 23 22 21 20 17 11 10 9 8 8 9 9 8 12 12 12 15 13 17 20 19 17 16 16 17 19 21 22 23 28 28 28 30 27 24 21 20
22 26 19 18 17 27 28 25 21 21 19 18 15 12 9 6 4 6 8 9 12 12 11 10 10 12 13 13 13 16 17 16 18 19 20 22 24 24 26 28 28 26 24 21
26 24 18 21 19 24 30 27 25 26 26 25 20 15 13 10 8 8 10 10 10 12 12 10 9 8 9 11 11 13 16 15 14 16 16 17 19 19 22 25 27 27 24 21
28 23 20 19 19 19 28 32 31 31 31 31 27 22 18 18 17 14 13 14 14 11 10 13 14 13 9 6 6 8 12 15 14 15 12 12 13 14 17 19 22 23 21 19
26 20 20 20 20 22 27 33 37 34 35 35 34 32 28 25 22 21 18 16 14 16 13 11 14 14 12 10 6 5 8 9 11 14 14 11 13 14 14 15 17 20 21 20
19 17 20 23 20 20 20 26 32 37 39 37 36 37 37 34 31 25 22 18 19 19 18 13 12 13 13 12 12 10 7 7 13 13 18 15 15 17 17 15 16 17 17 17

GFSNW_500_spd_063.txt.gz
Wind_Speed
32 30 29 30 26 18 15 27 34 19 23 13 18 16 22 23 24 23 22 22 18 15 16 16 17 21 20 16 16 15 16 18 20 18 19 22 25 26 23 23 20 18 17 18
31 26 27 27 24 17 14 17 27 15 17 18 14 13 13 15 18 22 18 15 17 17 15 15 18 18 18 19 16 16 16 15 15 17 19 19 19 21 21 19 18 17 17 18
26 25 24 24 22 14 12 13 20 16 11 13 17 12 12 9 11 14 15 13 11 12 14 17 17 15 15 17 15 12 13 13 14 15 15 17 19 21 19 18 17 16 18 19
23 25 21 21 21 14 7 7 14 15 11 9 9 11 6 11 13 11 8 7 7 11 15 15 15 17 14 14 12 13 15 12 13 14 14 16 16 17 17 17 17 16 18 17
22 23 18 19 18 13 5 5 7 10 11 8 7 6 5 7 9 8 6 2 5 6 9 12 14 18 18 17 16 14 15 14 15 15 16 15 15 14 14 14 13 16 14 16
23 20 16 16 17 12 3 1 4 5 8 6 2 4 4 2 5 7 4 5 6 7 8 10 16 15 13 13 14 15 17 16 14 13 13 12 11 10 11 11 11 12 16 16
22 20 16 14 15 14 5 4 4 4 6 8 7 5 3 1 1 3 4 6 7 5 9 14 14 14 14 13 14 14 13 13 13 12 11 9 9 9 10 11 12 15 16 14
19 18 14 13 14 14 12 7 10 10 9 7 9 9 6 2 2 2 4 6 6 8 15 13 11 12 13 13 13 14 14 14 12 10 10 8 7 8 10 11 12 13 13 13
23 19 17 14 13 14 12 10 12 14 13 12 11 12 9 6 4 4 4 4 4 8 17 15 13 12 12 13 13 14 14 13 12 10 9 8 8 8 10 12 13 12 13 12
27 23 18 15 16 17 14 12 12 17 15 14 15 15 13 9 8 6 5 5 6 5 13 16 14 13 13 13 14 14 14 14 13 12 11 10 10 11 12 13 13 10 11 11
30 25 22 18 16 19 18 15 13 14 21 21 18 18 16 14 11 9 7 5 5 7 9 11 13 14 17 16 16 16 16 16 16 16 15 14 12 13 13 14 13 11 11 11
32 31 25 21 18 20 23 20 17 16 17 24 23 20 23 19 15 14 13 9 6 5 6 8 10 14 16 18 18 20 19 20 19 18 18 18 15 15 15 14 14 13 10 11
26 25 25 22 22 21 23 25 22 22 20 21 24 29 27 26 22 18 17 14 11 10 10 10 11 11 13 14 17 18 20 19 19 18 19 18 17 17 17 17 15 13 8 6
25 24 24 24 23 21 23 27 28 27 25 25 25 27 35 35 34 25 21 18 18 15 13 13 12 10 13 14 15 15 18 18 18 18 19 19 18 18 19 19 17 13 8 8
25 23 18 17 17 20 27 30 31 29 30 30 31 30 31 42 41 36 30 24 22 22 18 17 16 10 11 11 10 15 16 16 17 17 20 18 20 19 20 20 20 16 10 9
22 20 19 17 18 23 28 29 30 32 33 35 36 36 35 36 46 40 34 30 27 26 27 24 21 19 19 13 9 16 16 18 18 20 22 19 22 20 21 23 25 19 14 12
20 22 21 21 23 27 27 29 31 33 36 38 36 35 32 31 28 27 25 27 27 27 29 27 25 25 25 17 13 18 24 19 18 20 24 23 23 21 23 24 27 23 18 15
22 20 19 20 24 28 28 28 31 30 29 24 19 18 21 25 24 22 23 25 26 26 28 29 28 26 25 19 18 22 22 22 20 20 23 25 25 26 25 27 28 27 23 20
25 21 20 21 25 29 27 25 22 11 12 19 19 19 17 20 20 19 19 22 22 24 26 25 25 23 21 21 23 22 22 23 22 23 22 23 26 28 28 28 29 29 27 24
24 24 20 20 23 24 21 7 14 17 18 19 21 18 21 19 19 18 18 18 21 25 26 26 26 26 25 24 22 21 23 25 23 21 22 24 24 28 29 29 30 30 30 26
24 26 21 20 18 18 11 13 15 15 15 15 14 16 19 21 16 17 15 11 15 16 18 22 23 20 23 23 21 22 23 22 22 23 24 22 24 27 28 30 31 31 30 26
25 22 19 20 18 17 18 19 17 17 18 19 18 19 19 11 8 6 8 8 10 10 13 16 13 16 18 20 21 22 22 20 19 21 24 24 25 27 28 31 30 32 31 28
25 22 20 20 19 19 16 26 21 18 17 16 17 17 12 10 7 6 6 4 5 7 10 9 9 9 12 13 15 17 19 21 20 19 21 23 24 25 26 29 30 31 33 31
24 22 22 23 19 17 16 27 27 23 22 21 21 17 13 12 11 7 4 3 6 8 7 6 7 7 7 8 10 13 13 17 19 18 18 20 21 22 23 25 28 28 29 30
24 26 28 25 20 18 18 26 32 32 28 26 27 24 20 18 15 12 9 6 6 8 10 7 9 12 12 12 7 6 6 8 14 16 15 17 19 18 18 20 23 24 26 28
30 30 26 23 21 19 18 23 34 35 34 32 32 33 29 25 20 16 14 11 9 10 11 12 10 10 12 10 7 6 7 8 5 12 14 15 15 16 16 16 16 18 21 23
25 23 20 17 20 20 19 18 23 33 37 35 37 38 36 34 31 26 22 18 17 18 17 14 13 13 11 10 11 11 9 6 6 7 11 12 13 14 17 19 16 16 18 18

GFSNW_500_spd_066.txt.gz
Wind_Speed
30 23 26 28 29 16 16 20 18 19 17 17 14 20 19 17 23 20 17 20 20 20 15 17 19 20 23 21 17 12 13 14 19 18 19 21 23 25 25 25 21 19 19 19
28 21 21 24 26 18 12 19 14 14 17 15 14 15 16 13 13 16 15 13 17 17 16 15 18 20 21 15 14 13 13 12 21 18 18 19 20 22 23 22 23 21 21 23
27 22 20 20 22 19 5 13 16 10 12 14 11 12 10 11 12 12 11 11 11 14 15 16 18 18 17 15 13 14 14 11 14 17 16 18 19 22 23 22 20 20 23 25
25 22 19 19 20 19 4 5 11 13 13 8 10 8 9 8 10 10 8 7 6 8 12 15 16 14 14 15 14 12 13 11 10 12 14 14 15 15 18 20 21 24 25 24
26 19 19 16 18 18 12 4 2 6 12 9 7 6 4 5 6 5 5 5 4 6 8 10 12 12 14 18 15 13 14 12 12 12 11 12 12 13 15 17 20 22 21 23
25 19 16 13 16 16 14 7 7 4 6 9 8 6 2 2 4 3 2 1 2 5 8 9 7 10 13 13 11 13 14 16 16 16 15 16 16 16 17 19 21 21 22 21
25 22 14 12 13 16 14 12 10 10 6 6 7 9 5 3 3 6 6 6 5 4 6 11 12 16 14 13 13 15 17 15 13 13 14 14 15 16 16 16 16 18 17 17
28 27 22 16 14 16 16 13 12 13 13 10 8 8 9 7 2 3 6 8 9 8 8 13 14 13 14 13 14 15 15 14 13 12 13 12 12 12 14 15 16 17 17 17
29 30 27 20 17 16 18 16 15 15 16 14 12 9 9 9 8 4 5 6 8 9 11 14 13 13 13 15 14 16 15 14 13 13 12 12 10 9 9 12 15 15 15 15
31 32 29 24 17 16 18 20 17 16 17 20 17 13 10 9 9 7 5 6 5 6 13 18 13 13 13 14 15 15 15 15 14 14 14 12 11 9 8 10 13 12 12 13
29 32 29 22 25 20 17 19 21 19 17 19 22 19 15 13 11 9 9 6 6 6 8 15 18 16 14 14 14 16 16 16 16 15 15 14 11 11 10 10 12 12 13 13
30 32 28 23 22 20 21 22 23 23 21 22 19 25 23 21 16 13 12 10 8 7 6 8 11 14 17 19 18 17 16 17 17 17 16 16 16 14 14 13 14 15 14 13
32 33 28 23 20 24 27 26 26 27 25 25 23 22 26 27 23 20 18 16 12 10 7 6 8 10 13 16 19 19 19 20 21 20 20 19 18 18 17 16 16 16 14 12
34 34 30 25 21 20 24 27 29 29 28 27 28 26 25 26 32 28 26 21 16 16 13 10 9 6 9 13 15 16 18 19 20 20 21 19 19 19 19 18 18 17 15 14
38 33 28 24 20 21 23 26 26 29 31 31 30 30 29 29 29 34 35 32 25 20 20 16 14 12 11 9 11 15 15 16 17 20 22 20 21 21 21 21 21 21 18 16
41 33 27 21 21 21 23 25 25 27 28 30 32 34 33 33 34 34 38 42 36 28 24 23 20 19 18 15 9 13 12 14 16 19 21 21 21 22 23 22 23 22 23 19
38 30 27 24 21 22 23 25 26 28 31 32 33 34 37 37 36 36 37 40 40 35 30 27 24 25 25 20 15 19 22 18 16 19 23 24 24 23 24 24 25 26 26 23
31 28 25 26 23 23 24 26 30 34 33 31 32 35 36 36 33 31 30 27 29 31 30 27 26 28 28 21 18 24 24 23 19 18 22 24 26 26 25 26 26 27 29 27
23 24 22 26 23 22 24 27 25 20 19 17 15 8 11 11 17 20 20 22 25 27 27 28 31 27 27 23 22 23 24 24 23 21 22 24 26 28 28 27 27 28 29 30
20 27 23 25 23 21 21 19 11 2 12 21 19 14 12 15 17 15 16 16 18 20 21 26 28 24 26 27 26 25 23 23 23 22 22 22 25 29 30 30 29 29 30 31
23 24 20 21 22 20 17 11 6 11 14 17 14 11 13 19 20 18 19 15 13 16 19 23 23 26 29 29 30 28 26 23 22 24 24 22 24 27 30 30 30 31 31 32
18 17 18 20 19 19 13 10 14 12 11 11 11 15 19 18 19 19 16 17 16 14 15 16 14 19 22 26 24 23 23 23 23 24 23 22 25 26 28 30 29 30 32 32
16 15 17 20 17 16 12 12 17 17 14 14 12 11 15 16 20 15 13 9 6 5 6 10 13 15 16 16 17 18 20 23 25 25 23 21 22 25 28 29 28 29 32 33
17 20 18 18 14 15 14 14 22 24 19 18 16 21 21 19 15 13 11 7 6 3 1 3 5 7 8 6 4 10 14 16 17 19 20 20 20 20 23 24 25 27 30 32
16 19 20 21 20 21 18 17 19 30 27 24 21 22 22 21 19 15 12 9 4 2 1 4 1 5 7 5 5 6 7 10 12 14 15 16 17 18 20 21 22 23 26 29
17 18 18 20 22 23 21 20 18 29 34 30 28 27 30 27 24 20 17 11 8 6 6 5 5 6 6 5 7 7 8 7 6 6 12 16 16 15 15 17 16 18 21 25
20 24 27 27 25 21 20 20 19 21 33 37 34 33 32 32 30 25 21 15 17 15 12 10 10 9 9 11 9 7 6 6 7 6 7 10 13 13 13 15 17 17 16 16

GFSNW_500_spd_069.txt.gz
Wind_Speed
35 30 28 29 30 29 22 11 16 17 13 18 16 15 14 10 16 15 12 13 15 15 14 15 18 19 21 22 15 14 18 13 13 14 16 16 22 27 29 23 22 22 20 20
34 27 25 26 28 27 22 18 9 15 12 12 11 10 8 10 13 14 10 11 13 11 12 12 12 14 18 23 11 10 12 13 15 18 18 18 19 25 24 20 20 21 21 18
34 27 24 24 23 24 23 15 11 10 8 12 9 6 6 6 7 8 9 8 6 7 9 12 13 14 18 15 13 10 11 11 16 18 14 15 16 20 23 25 24 23 24 19
33 29 24 22 21 21 20 16 11 7 10 11 9 5 2 5 6 6 5 5 5 6 8 10 13 15 17 14 12 11 12 10 11 16 17 17 18 19 22 22 22 26 27 26
34 30 26 20 20 22 17 17 14 8 7 9 9 7 3 3 1 1 3 3 5 7 8 10 12 13 13 14 14 12 13 11 11 13 14 16 16 18 18 22 24 24 26 26
38 32 28 22 19 21 21 16 16 15 9 6 6 6 5 5 6 6 4 2 3 6 8 9 9 9 11 13 14 12 12 13 13 12 13 12 13 15 17 21 27 27 23 22
40 34 31 27 21 23 23 19 16 15 16 13 8 6 5 6 9 9 10 8 6 7 7 9 11 12 14 15 14 13 14 14 13 12 13 14 13 15 16 17 17 21 21 19
43 35 32 31 24 23 27 24 19 16 16 18 16 10 6 5 5 8 9 9 10 10 9 11 14 14 16 15 14 14 14 14 13 13 13 12 15 15 16 17 17 19 19 19
44 34 31 31 30 22 25 26 23 20 17 17 20 17 12 7 6 5 7 8 9 11 11 11 14 14 14 14 14 14 16 16 14 13 14 14 13 14 15 16 18 18 18 18
44 36 31 30 31 28 26 28 28 24 20 19 18 21 18 14 9 6 5 7 9 11 14 16 15 14 14 13 15 14 15 15 14 15 14 13 12 12 12 13 14 16 17 16
46 42 34 32 30 32 27 30 30 29 23 21 19 19 23 19 16 11 9 8 8 9 10 16 19 15 14 14 14 16 15 16 16 16 15 15 13 12 11 11 10 13 17 17
55 44 42 39 35 34 30 30 32 30 29 27 23 20 20 26 23 18 15 12 10 8 8 10 17 20 19 17 15 15 15 16 17 17 17 16 15 14 14 12 11 13 16 16
67 63 50 44 40 36 30 29 30 30 32 30 26 23 22 20 25 27 21 17 15 13 10 8 10 12 16 18 20 20 19 19 19 19 19 18 18 18 18 18 15 15 17 17
78 67 56 48 41 38 30 30 28 30 31 30 27 25 23 23 23 25 30 26 20 18 16 13 10 9 9 10 14 18 20 22 23 23 24 23 22 22 20 20 18 17 17 18
79 78 49 41 39 36 30 31 27 28 29 29 26 28 29 26 25 26 26 32 29 25 22 20 17 13 11 9 8 13 16 19 21 23 24 23 23 22 22 22 21 19 19 19
83 60 39 38 36 28 31 24 26 26 28 26 23 26 28 31 31 29 27 27 30 34 30 26 23 20 19 14 9 12 11 15 17 19 22 23 23 24 24 23 23 22 21 22
69 45 29 27 24 24 27 25 23 26 27 28 30 27 26 29 33 33 34 32 33 30 34 37 31 27 27 22 16 17 20 18 18 17 18 22 25 25 24 25 25 25 23 24
27 25 15 16 22 20 23 23 26 26 29 32 33 35 35 34 33 34 35 35 34 34 34 34 36 35 31 27 22 21 24 25 22 19 20 22 24 27 27 26 26 27 25 26
20 18 13 16 20 19 21 23 21 27 30 31 30 27 24 24 26 30 28 31 32 31 28 30 33 36 34 27 27 28 28 25 25 24 23 22 24 25 27 29 28 28 28 27
19 14 16 16 16 18 20 17 19 23 20 8 11 14 10 9 9 14 23 17 24 26 22 25 29 29 31 32 30 30 30 26 23 23 24 24 24 24 27 30 30 30 30 29
15 15 12 12 17 15 14 16 17 7 9 13 10 9 6 12 18 12 15 17 16 18 18 21 23 24 28 29 29 30 28 27 27 27 27 27 25 25 27 30 31 32 32 30
12 12 15 15 14 13 13 12 12 11 8 9 8 5 8 16 16 19 22 19 16 15 14 18 17 21 26 26 29 30 32 30 31 31 30 28 24 24 27 29 30 31 32 33
7 7 12 12 10 9 12 10 11 16 16 12 9 6 13 13 13 21 16 18 17 16 17 16 16 19 19 21 23 25 27 28 30 29 28 27 27 25 26 28 30 30 31 31
12 10 11 11 8 7 8 10 12 13 22 16 11 12 14 15 19 17 14 15 15 12 10 3 4 12 13 14 16 17 18 19 19 20 21 21 23 23 23 23 27 29 30 31
12 11 13 10 11 14 16 17 16 15 19 25 18 18 15 18 20 19 17 15 10 8 9 6 1 3 11 8 4 5 6 8 10 12 15 17 18 19 19 19 20 21 24 26
16 15 12 11 15 17 17 16 19 19 17 27 27 25 21 23 23 23 20 17 11 12 10 6 3 3 1 3 6 8 8 8 8 9 9 10 13 15 15 15 17 19 20 21
17 17 16 16 19 22 23 20 20 21 21 22 31 32 30 27 27 24 24 21 20 20 17 13 9 6 6 9 9 6 7 8 6 8 11 10 10 15 18 17 15 15 16 15

GFSNW_500_spd_072.txt.gz
Wind_Speed
56 53 40 36 32 30 30 28 25 18 16 16 12 12 11 12 10 9 10 12 13 14 16 14 7 4 5 3 8 6 6 11 15 13 12 15 19 29 31 33 33 27 26 21
55 51 44 37 32 28 29 24 22 18 14 13 10 7 6 7 8 7 7 6 7 7 8 8 8 10 9 9 7 6 9 7 8 10 11 12 17 22 28 28 26 27 29 24
57 54 47 35 34 28 26 23 20 16 15 13 10 5 3 3 3 2 1 1 2 2 4 8 9 12 15 16 9 7 9 12 14 15 14 14 14 19 21 24 24 17 19 17
56 52 46 38 35 30 25 25 21 17 16 15 10 7 3 1 1 2 1 2 4 5 6 8 9 10 13 14 12 10 10 12 13 14 18 18 18 19 20 21 22 22 21 18
56 57 48 42 35 32 24 24 23 19 16 15 14 11 7 6 5 3 2 2 4 6 7 8 10 10 13 13 12 13 11 12 10 10 17 19 18 18 18 21 24 25 24 24
57 56 55 46 37 34 27 23 23 21 18 16 15 14 12 9 7 9 8 6 6 7 9 9 9 9 11 13 14 13 11 12 12 12 13 15 17 18 19 20 23 26 26 25
57 56 51 46 39 35 34 23 23 22 21 18 18 17 16 13 9 10 11 10 9 10 10 11 11 12 13 13 12 11 11 11 12 13 13 15 14 16 17 19 21 23 23 23
58 51 55 52 33 32 35 31 24 23 23 20 19 20 19 16 13 10 10 10 10 12 12 11 13 15 14 15 15 13 13 12 12 11 10 10 12 12 14 16 16 17 21 21
60 59 54 53 42 31 33 37 28 28 26 23 22 20 20 20 16 11 10 10 9 10 13 15 14 15 14 16 14 14 13 12 13 11 11 12 10 12 13 13 14 15 15 16
58 61 64 58 54 42 35 39 38 28 31 27 23 22 19 22 21 16 11 11 10 11 12 14 14 13 13 12 13 14 14 14 15 13 12 10 12 11 12 13 12 16 16 16
62 65 64 65 60 58 46 42 42 35 29 30 26 23 23 20 24 22 16 14 12 11 11 12 16 16 14 13 13 13 14 14 14 13 13 12 11 11 11 9 10 11 14 16
62 66 72 72 69 67 59 47 41 36 28 30 30 24 26 24 22 25 22 17 16 12 11 11 14 18 17 15 13 13 13 13 13 14 13 14 13 13 14 11 9 10 12 15
66 70 77 75 76 77 69 48 35 32 28 28 28 27 26 25 23 23 28 24 19 17 13 11 11 13 17 19 18 16 14 14 14 15 15 16 16 15 16 15 14 12 12 14
71 77 84 82 86 77 54 38 27 25 24 24 25 24 27 24 26 25 24 31 26 21 19 16 13 11 12 13 14 18 18 19 19 19 19 18 18 17 18 17 18 17 16 16
79 85 87 86 82 61 36 29 19 21 21 24 16 19 26 25 25 23 26 25 28 28 24 22 19 15 13 11 9 9 13 17 18 21 21 23 20 21 22 21 21 20 20 19
81 84 87 79 55 34 19 13 16 18 20 19 13 17 20 17 20 22 24 26 25 27 31 28 24 21 20 16 11 11 9 9 13 16 17 21 20 22 23 23 23 22 22 21
81 86 76 54 29 11 11 12 15 17 15 14 19 17 16 18 19 21 22 25 25 28 28 33 32 29 26 22 17 16 15 13 13 14 16 17 18 17 22 23 25 25 23 23
79 65 47 27 10 11 15 15 12 12 12 18 21 26 27 26 26 25 24 26 29 31 31 30 29 31 33 31 24 23 24 21 19 18 18 18 19 19 21 23 24 27 27 25
51 32 20 15 12 9 11 13 6 12 15 19 22 25 29 29 29 28 26 27 30 31 31 31 29 30 32 29 32 29 29 29 25 21 21 22 23 21 21 22 24 26 29 29
9 6 8 13 12 8 12 7 5 12 17 22 13 5 6 9 13 12 14 13 16 25 26 27 27 23 21 26 29 34 34 33 28 24 23 21 23 24 23 23 24 26 28 29
6 10 12 9 7 8 8 7 6 8 7 5 6 5 4 3 8 21 14 6 9 15 19 15 16 14 17 24 27 32 33 34 31 28 29 28 25 26 25 27 27 26 27 30
9 10 8 8 8 8 5 5 3 2 5 6 5 2 4 2 13 12 9 13 10 11 11 13 10 14 19 21 23 25 31 32 31 29 29 27 27 28 30 29 29 30 30 29
8 7 6 7 6 4 3 5 4 2 10 12 6 4 3 6 9 9 11 11 15 12 11 11 14 17 19 18 18 21 25 27 30 31 31 31 32 34 32 31 30 30 31 30
11 7 4 6 4 5 5 3 5 5 4 12 13 8 9 8 13 12 14 14 13 14 11 11 6 8 13 15 15 16 18 20 22 25 27 30 30 29 29 30 30 29 30 29
18 9 9 7 8 9 9 8 10 13 11 11 15 16 15 13 12 10 15 17 15 12 14 11 8 8 4 9 6 5 7 8 9 11 13 14 19 21 23 24 24 24 24 24
20 14 12 9 9 11 12 13 13 16 16 16 16 22 22 19 16 17 15 14 13 15 13 12 11 7 2 7 9 8 8 8 9 9 10 9 8 10 13 14 16 18 20 21
16 16 17 15 13 14 16 17 19 22 22 20 21 20 29 26 23 20 19 16 18 21 17 14 11 7 5 3 3 4 4 5 7 8 5 8 11 10 10 14 17 18 16 17

GFSNW_500_spd_075.txt.gz
Wind_Speed
52 58 59 59 56 50 38 29 27 24 23 22 19 13 14 14 13 12 12 12 10 11 5 5 14 8 10 19 23 19 18 19 21 20 18 22 27 23 27 31 32 22 18 15
51 56 60 59 59 48 39 31 26 24 21 20 22 15 10 11 11 10 8 6 9 6 5 4 3 2 6 9 9 12 17 17 19 14 12 17 20 23 24 23 26 27 33 25
53 55 58 61 58 47 45 36 26 23 21 19 18 17 12 9 9 7 9 7 2 2 3 2 1 5 6 11 12 10 10 9 10 8 9 11 13 17 18 21 25 26 28 26
54 56 57 61 64 57 47 37 29 24 22 21 16 15 14 11 8 6 6 7 6 3 3 5 6 7 9 11 8 4 5 6 9 12 14 17 16 16 19 21 24 25 26 17
54 56 58 62 65 60 50 43 35 26 21 21 19 16 13 12 13 11 7 7 8 8 8 9 11 11 10 11 12 9 8 8 10 13 16 20 21 20 18 20 21 20 22 18
53 58 59 59 61 62 58 45 34 38 28 22 23 20 18 14 14 15 13 12 10 11 10 10 10 11 13 15 15 14 12 12 12 12 12 19 22 21 19 20 21 22 22 19
54 58 62 63 62 61 58 51 40 40 38 29 22 23 21 20 16 16 14 15 15 14 12 12 12 13 13 14 14 14 13 12 12 15 15 15 17 20 20 20 23 22 22 24
53 57 62 66 65 68 64 63 54 38 41 39 31 23 25 24 21 18 16 14 16 16 15 13 13 14 14 13 13 13 13 13 13 14 12 12 14 16 16 17 18 18 19 20
52 56 64 67 69 72 71 70 68 62 49 43 37 33 24 25 25 22 20 15 15 16 16 16 15 15 16 18 17 16 15 12 12 12 11 10 12 15 13 13 14 12 13 15
50 56 62 68 73 75 78 80 77 74 69 49 37 32 31 26 25 25 22 18 15 15 16 15 14 14 14 14 13 15 14 14 13 14 11 10 12 12 12 13 9 11 13 15
49 54 61 66 75 78 81 85 87 86 72 36 25 27 26 24 26 26 24 24 18 16 15 15 14 14 14 14 13 13 13 13 13 15 13 12 9 10 10 10 9 10 12 16
52 59 64 73 77 86 88 89 91 81 46 19 20 22 23 23 25 26 29 25 22 19 16 15 14 14 17 16 13 13 11 12 12 13 13 13 11 11 11 10 8 9 10 11
54 58 63 71 80 92 92 90 80 54 20 13 16 20 20 20 24 19 25 30 27 22 19 17 14 13 15 19 16 13 12 12 12 13 13 13 12 13 13 13 12 11 10 11
52 61 69 76 84 94 92 72 46 24 10 12 12 15 17 21 22 20 23 29 31 27 23 21 17 14 13 16 19 20 18 16 15 14 14 13 12 14 14 13 14 14 13 14
57 64 72 82 89 95 85 43 30 15 7 9 8 13 16 18 18 19 21 26 29 32 28 25 21 17 15 14 13 14 16 19 18 19 17 17 17 18 18 17 18 18 18 17
61 66 73 83 90 83 52 28 20 8 6 4 9 13 12 12 17 19 23 22 22 26 30 29 25 23 21 16 13 14 13 13 14 14 16 18 17 18 19 20 21 21 21 20
62 73 80 85 75 47 30 18 6 5 7 7 6 5 5 7 9 11 15 21 22 25 25 28 31 27 27 22 17 18 16 14 11 10 10 9 10 12 15 17 19 21 22 23
71 75 82 74 45 22 10 7 6 6 5 4 7 10 10 12 14 15 16 16 18 23 25 25 27 32 32 27 23 23 24 21 18 17 14 13 13 13 15 17 18 19 22 24
72 74 73 40 17 4 7 8 7 2 4 5 9 13 18 17 18 18 19 20 20 21 20 22 26 25 25 25 30 32 29 30 28 25 23 20 18 17 20 21 21 21 20 22
74 76 39 19 13 11 5 9 5 2 5 8 6 6 4 6 6 6 14 19 22 25 25 25 25 23 24 24 25 33 33 38 36 32 28 25 24 22 21 23 24 22 22 21
70 54 22 19 12 10 8 7 4 3 2 7 12 4 5 6 4 9 8 7 6 9 15 22 23 15 18 21 24 23 28 32 37 38 34 30 28 25 25 24 24 25 26 26
68 32 20 15 13 13 7 4 2 2 3 4 1 2 4 3 2 12 5 3 4 2 5 10 10 12 13 15 16 18 20 23 28 34 37 34 32 31 31 31 29 28 29 29
53 20 18 15 17 12 8 7 4 3 5 7 5 3 1 5 4 4 4 6 8 7 2 4 6 8 11 14 16 17 19 20 22 24 28 32 32 31 31 31 31 31 32 32
27 19 17 13 11 9 10 6 4 3 2 4 9 9 6 7 5 7 8 6 8 10 10 7 6 8 9 9 11 12 14 16 19 21 23 26 28 30 33 35 36 36 35 33
22 20 20 15 15 11 11 10 8 7 8 8 8 9 15 11 10 6 8 9 10 9 11 10 8 10 5 6 5 5 6 6 6 8 12 14 18 22 26 28 29 28 29 31
19 16 20 21 15 15 12 11 14 16 15 14 15 13 13 18 17 14 13 9 7 11 14 13 14 10 6 6 12 10 11 10 7 9 11 12 11 9 9 13 17 20 21 21
17 21 18 19 20 20 17 15 15 17 19 20 21 22 20 17 23 23 19 19 16 16 19 16 17 14 11 8 8 8 6 5 2 2 5 8 8 10 10 11 9 14 17 18

GFSNW_500_spd_078.txt.gz
Wind_Speed
45 48 52 56 61 65 65 57 53 42 33 27 23 22 20 17 14 12 9 9 8 10 8 12 10 12 15 17 19 21 24 20 16 15 20 22 29 26 27 30 27 31 26 22
48 50 52 54 60 64 67 61 56 40 40 31 25 22 19 18 14 12 8 6 5 3 1 3 8 9 16 13 15 19 22 22 22 23 22 22 27 28 24 28 30 32 30 20
48 51 54 55 60 64 68 65 60 48 47 39 29 22 19 19 16 13 11 7 4 3 3 3 1 3 8 11 15 19 16 15 15 14 14 16 19 25 28 26 27 28 30 27
49 52 52 56 59 62 65 67 58 54 50 43 34 28 22 18 17 16 13 10 7 7 6 6 6 6 9 11 10 10 11 12 16 14 14 15 16 21 26 26 25 30 27 24
52 54 53 56 60 60 62 63 62 60 58 53 43 34 29 24 20 17 16 14 12 9 9 9 9 10 10 15 15 11 11 10 11 13 14 16 18 19 20 21 21 21 21 21
51 52 53 54 59 61 65 68 67 66 63 57 54 42 33 31 26 21 19 16 16 15 12 12 14 14 15 14 14 15 13 11 11 13 14 16 19 21 22 22 21 23 23 19
51 52 53 55 58 61 63 66 69 73 73 76 66 52 30 33 33 27 22 19 17 18 17 14 13 15 17 17 17 16 16 14 14 15 17 17 15 20 22 22 23 21 22 21
50 52 54 58 60 61 67 71 75 77 81 84 69 52 37 32 34 28 26 22 18 17 17 18 15 15 16 17 16 16 17 15 16 15 15 15 15 17 18 19 21 21 22 23
51 54 53 56 59 64 68 74 81 83 87 86 72 46 34 26 31 28 29 25 20 18 17 19 18 16 16 18 18 17 16 16 16 14 15 15 15 14 14 15 15 15 18 19
50 52 52 54 58 61 69 76 84 91 92 82 58 32 19 21 26 25 30 25 22 19 18 17 18 19 19 18 19 21 19 19 17 16 15 15 14 13 14 13 13 12 14 14
44 43 48 53 55 63 70 77 88 96 85 57 43 24 13 20 22 22 29 28 24 21 19 17 17 16 17 17 17 16 17 18 17 16 17 16 13 14 14 13 14 15 14 13
40 36 43 55 60 67 70 79 90 96 60 40 26 12 15 20 20 23 24 30 25 22 22 18 17 16 15 17 18 17 16 16 17 16 18 16 16 15 15 14 14 13 11 11
34 37 47 55 61 66 74 81 91 88 47 23 15 6 12 16 22 19 20 29 31 27 24 21 19 16 15 16 19 18 17 16 16 17 17 15 16 16 15 13 14 11 11 11
34 41 47 54 61 67 75 82 87 68 31 10 8 4 8 12 19 17 19 20 25 31 28 25 22 18 16 15 18 21 19 17 17 17 17 15 16 17 16 15 15 13 14 14
35 43 51 58 64 70 76 80 71 48 21 5 5 5 8 11 17 19 17 18 18 28 31 28 24 21 17 15 13 16 23 22 20 19 16 17 17 18 16 16 16 16 16 16
37 47 53 56 63 69 73 69 52 29 5 7 6 9 8 9 11 18 18 18 18 16 29 30 27 23 22 18 13 17 15 18 19 20 21 21 20 19 19 19 19 19 19 20
39 44 55 56 65 71 66 57 28 7 4 4 6 6 7 5 7 13 17 19 17 20 18 25 29 28 27 23 16 19 17 16 16 17 19 18 17 17 17 16 17 19 20 21
40 47 53 59 64 65 51 24 7 6 4 8 9 5 4 6 7 9 11 13 15 23 23 21 23 28 33 27 22 22 21 20 18 17 16 14 14 14 14 15 15 16 17 19
42 47 51 57 62 47 29 6 8 8 9 12 10 11 12 12 15 16 17 16 15 16 20 24 25 25 26 26 28 28 28 28 26 24 22 20 18 17 18 19 19 20 19 18
42 48 54 61 59 37 14 13 15 12 13 15 13 3 2 5 6 14 20 22 22 22 20 20 20 25 26 25 25 28 33 35 33 32 32 31 29 26 24 24 24 24 24 23
42 47 53 57 57 17 13 14 13 14 14 12 3 3 6 9 6 3 5 8 11 16 22 25 24 25 25 26 28 27 28 32 36 38 38 39 37 34 31 29 28 27 25 24
42 44 52 55 42 13 14 14 13 13 11 7 6 5 5 5 6 8 4 1 2 1 3 9 12 19 21 22 20 21 22 23 26 30 36 38 38 38 37 34 33 32 31 30
44 45 50 52 24 15 17 14 14 13 9 9 12 8 5 2 1 4 5 5 4 5 4 1 6 9 12 14 16 19 20 21 22 23 24 28 31 34 37 37 35 34 34 35
44 47 50 34 20 16 14 14 15 13 9 5 5 10 9 7 7 7 8 6 7 6 7 8 6 8 7 7 10 16 20 19 18 18 19 20 21 22 24 28 31 35 36 35
45 47 41 27 20 18 16 13 13 14 12 9 9 10 8 12 12 11 9 10 7 7 8 5 6 6 11 12 8 8 10 11 10 9 9 11 13 15 19 24 28 31 32 35
45 43 31 20 18 21 18 18 20 17 17 18 15 15 14 14 14 16 15 12 9 7 9 7 9 10 12 10 6 8 10 11 10 10 10 11 12 14 15 14 12 13 17 22
45 35 25 20 19 20 21 21 21 21 21 19 20 23 23 21 20 19 22 20 17 16 14 15 15 16 17 12 9 16 16 17 16 11 6 3 5 7 8 9 12 14 13 12

GFSNW_500_spd_081.txt.gz
Wind_Speed
55 58 56 57 58 60 62 64 64 61 52 45 42 42 31 27 25 20 17 14 6 2 5 10 18 5 4 10 16 17 26 40 29 28 27 31 33 31 27 24 24 26 25 17
55 59 55 55 59 58 61 64 64 65 60 55 43 41 35 25 24 21 18 13 11 6 4 3 8 6 8 10 20 19 19 18 21 23 24 28 28 32 33 23 29 27 27 20
55 57 54 54 57 57 60 62 64 65 63 64 60 47 40 29 21 23 20 15 11 11 8 3 7 10 12 13 17 21 21 21 16 14 14 15 18 20 31 34 31 26 24 22
54 55 52 52 56 58 59 62 64 68 69 69 67 65 54 32 22 20 20 18 14 12 12 8 7 11 10 13 17 19 19 19 19 20 20 21 24 28 32 33 29 29 21 26
54 53 49 52 56 60 60 63 65 68 70 74 78 79 59 31 26 23 21 20 17 14 14 14 11 13 15 12 13 20 18 18 19 20 19 17 18 21 23 25 27 23 24 25
53 51 49 51 55 58 61 63 65 70 75 79 83 83 66 37 25 21 24 23 20 19 16 15 14 15 16 17 18 16 15 15 15 17 18 19 20 19 21 22 25 26 29 22
53 49 49 49 53 56 62 64 66 69 74 81 89 89 67 41 27 27 24 24 23 20 20 19 15 15 16 18 19 19 19 16 15 14 16 18 16 17 19 20 22 22 18 18
49 46 47 47 50 58 62 66 68 72 76 87 91 88 63 37 26 25 23 24 21 20 19 19 19 16 17 18 18 20 21 18 17 18 17 15 17 15 15 17 19 22 21 20
46 44 45 44 51 58 65 65 70 74 79 87 91 67 44 29 13 18 20 20 22 20 18 17 20 18 17 19 18 18 18 18 18 17 17 15 15 16 15 15 17 19 21 21
44 45 44 44 51 58 64 68 70 76 80 86 78 51 32 20 5 23 21 22 20 20 18 16 16 19 19 19 19 20 20 19 18 18 17 15 15 15 14 15 15 15 16 17
44 42 41 44 50 58 63 67 70 73 80 83 62 42 26 9 13 22 23 23 18 18 18 17 15 16 19 19 19 19 20 21 20 21 17 18 17 15 16 15 14 15 15 17
43 37 37 44 51 56 61 65 69 72 75 76 54 28 17 0 12 18 8 24 28 25 20 18 18 16 16 19 20 20 19 18 19 20 20 18 19 17 16 16 15 14 17 17
39 32 32 39 47 54 60 65 68 72 69 62 38 19 10 2 10 11 10 10 28 22 22 20 18 18 17 18 20 20 20 19 18 19 19 19 20 18 18 17 16 20 16 16
32 31 33 35 44 52 59 63 66 68 65 45 22 11 8 6 9 13 13 8 20 28 22 21 22 19 16 16 18 21 21 20 20 19 20 19 19 19 19 18 13 13 17 12
30 29 28 35 40 49 55 60 64 63 58 37 14 13 10 7 8 11 16 11 14 21 31 28 25 20 17 16 14 15 22 23 21 20 19 19 20 19 19 19 18 16 15 15
27 23 25 31 39 43 49 54 55 54 35 16 14 14 12 9 8 8 18 12 14 15 17 29 28 23 21 19 14 19 16 21 25 24 21 21 21 21 20 20 19 19 19 18
20 23 28 34 37 42 47 51 49 33 20 10 12 14 13 10 11 11 12 17 17 17 15 16 26 28 28 23 15 21 18 15 17 20 22 24 25 23 22 22 22 22 22 22
19 23 29 33 35 41 49 47 33 22 15 12 14 16 16 12 13 12 11 15 19 20 18 18 19 26 31 28 20 22 21 19 17 16 17 19 20 21 22 22 21 20 19 20
21 24 28 32 35 40 43 44 25 17 18 16 18 21 22 21 24 23 22 18 16 18 19 22 23 22 22 23 24 27 26 25 22 21 19 18 17 18 19 19 18 18 18 18
18 22 27 30 34 41 45 34 24 19 17 18 19 23 17 13 15 17 21 25 23 20 19 19 19 21 24 24 23 26 31 32 29 29 25 24 22 22 23 23 23 23 23 23
19 22 28 30 35 40 42 33 22 20 14 15 15 15 14 14 14 10 7 8 13 14 20 22 22 21 23 25 25 24 26 32 34 34 33 33 32 32 32 32 31 31 30 29
17 22 29 32 35 39 41 28 21 17 15 13 13 12 13 15 17 2 4 5 5 3 6 9 15 20 23 23 23 23 24 27 29 30 32 34 35 36 37 38 38 38 37 35
20 25 30 31 37 43 41 28 20 16 14 14 13 16 15 12 9 8 9 8 5 6 6 3 5 9 12 14 16 18 20 21 24 26 27 28 30 32 33 34 36 36 36 38
23 26 30 31 36 41 43 28 19 17 14 14 12 11 10 14 14 14 14 13 10 8 9 8 10 9 11 12 12 12 16 20 22 23 24 23 23 24 25 26 26 27 28 31
26 28 29 33 37 43 39 26 20 17 15 14 16 14 12 12 12 16 16 15 12 10 8 9 8 8 8 10 9 11 11 13 17 18 18 18 18 17 18 19 21 22 25 28
26 27 30 34 40 40 32 25 23 22 20 19 20 21 19 17 16 15 17 19 17 14 12 10 8 8 11 17 15 11 10 11 10 10 11 9 9 11 12 11 12 14 16 18
27 29 33 36 40 37 28 25 24 24 22 22 22 23 23 23 23 23 23 24 24 22 21 17 16 17 17 18 13 12 14 15 15 15 17 16 12 9 7 8 11 11 11 13

GFSNW_500_spd_084.txt.gz
Wind_Speed
42 45 48 51 55 57 59 59 61 63 67 69 70 65 63 56 36 30 19 12 10 14 11 10 7 5 3 10 16 13 33 38 36 22 26 32 31 32 33 31 29 28 27 26
40 44 47 50 53 56 58 58 58 62 66 70 74 73 71 70 44 30 23 15 10 11 8 5 3 5 5 11 13 14 33 38 29 22 32 38 32 30 32 32 30 27 26 26
38 44 47 49 52 55 57 59 59 63 67 72 77 84 83 78 48 23 20 20 12 10 8 5 5 4 0 9 17 15 24 27 32 21 22 21 27 27 26 27 27 25 27 23
39 43 47 48 50 54 57 58 59 62 69 73 79 88 88 82 52 22 17 17 13 12 10 8 13 17 13 10 12 15 19 21 27 21 18 19 23 26 29 33 33 34 25 29
40 41 45 47 49 52 56 57 57 63 69 75 82 87 90 86 51 22 15 14 15 18 13 12 14 17 18 16 16 16 17 22 20 19 23 24 23 25 28 28 27 33 30 28
41 42 42 46 48 51 55 55 58 62 71 75 81 85 90 81 57 23 15 18 15 19 19 15 14 17 18 17 17 18 18 18 18 19 20 20 19 19 22 25 28 29 31 28
40 40 42 47 48 49 54 55 60 64 70 75 80 85 85 79 51 25 19 23 17 19 19 20 15 15 18 19 18 17 17 19 18 16 20 20 16 19 19 21 22 25 21 22
43 41 43 47 47 48 53 55 59 65 68 73 79 82 80 62 43 23 18 30 14 19 18 19 19 15 15 17 20 20 19 21 19 18 17 15 17 17 17 17 19 23 20 21
43 40 44 46 45 47 53 56 59 60 66 72 76 76 73 51 33 13 20 22 12 13 14 14 15 17 15 16 17 17 18 20 20 17 16 15 14 15 16 15 17 17 17 19
41 43 44 44 44 46 52 53 55 59 66 69 72 72 62 40 17 15 26 21 16 21 16 14 10 15 17 17 16 17 18 18 19 18 16 15 15 16 16 18 15 14 14 15
43 44 43 41 42 45 50 53 54 58 63 67 69 67 46 29 7 20 21 16 13 9 15 15 13 12 13 16 16 16 17 18 18 19 18 17 16 16 17 15 13 13 14 15
39 42 41 40 41 45 48 50 52 55 61 64 65 57 37 20 11 15 12 11 16 9 16 17 15 13 11 15 17 18 18 19 19 21 22 20 18 17 17 15 14 13 13 15
39 39 38 38 39 43 45 47 50 53 56 61 58 43 34 18 3 18 12 6 18 21 22 17 15 16 14 14 15 17 18 18 17 18 19 20 19 18 18 17 15 15 17 19
38 36 36 35 34 37 39 43 44 51 54 53 46 28 23 18 11 8 18 12 8 17 25 22 19 17 17 15 16 16 18 17 18 18 19 18 19 18 19 18 18 18 17 20
37 36 35 30 30 29 32 35 42 47 49 51 40 31 22 17 12 10 9 18 12 10 15 23 20 19 16 13 13 15 17 20 19 20 20 18 19 19 19 19 19 20 16 16
35 36 34 32 22 25 28 31 41 43 46 43 31 26 21 16 13 12 11 15 12 11 11 18 25 26 20 18 14 18 16 15 19 22 22 21 21 20 21 20 20 21 20 18
33 34 34 29 18 22 26 32 36 39 44 34 28 21 20 14 12 11 12 11 16 16 14 15 17 23 28 24 17 18 20 17 15 18 23 25 24 23 23 23 22 22 22 22
34 29 28 20 18 22 25 28 32 39 40 31 25 21 21 21 17 16 13 15 15 16 19 18 18 18 20 26 19 26 25 19 19 16 15 18 22 25 27 27 26 25 23 23
35 28 22 13 17 21 22 25 31 36 35 30 23 20 22 21 19 17 16 19 21 21 20 20 20 19 20 19 23 29 30 26 23 21 19 17 16 17 20 22 23 23 23 23
35 28 15 12 18 19 22 28 30 35 33 23 19 18 16 16 17 19 19 16 17 22 23 21 20 21 21 24 21 23 31 33 30 26 25 23 19 18 18 19 20 20 21 22
32 25 13 15 18 20 25 25 31 35 31 22 22 17 15 13 17 21 15 10 6 7 9 17 22 21 20 20 21 20 22 27 29 30 30 29 27 26 26 26 26 27 28 28
29 20 12 17 18 18 20 27 34 38 32 24 22 19 16 15 14 10 6 12 12 8 8 7 10 12 17 20 21 20 20 22 24 26 28 29 31 33 33 34 34 35 36 38
28 17 16 21 19 19 22 27 35 39 35 24 20 17 15 17 16 14 13 16 14 13 11 8 8 7 11 11 12 15 18 21 23 23 24 26 27 28 29 29 31 32 33 34
25 20 21 22 22 21 23 28 33 38 35 23 19 17 15 14 14 16 16 18 17 17 13 10 10 10 13 12 12 11 12 14 17 20 21 23 24 25 25 26 26 26 26 27
24 23 22 22 23 21 23 26 32 36 31 23 19 18 18 19 16 15 16 17 19 18 15 14 14 11 12 13 11 11 10 11 13 17 20 22 23 22 21 21 20 20 20 20
26 20 23 24 21 21 24 28 32 32 30 24 23 23 22 22 22 20 19 19 20 20 20 19 19 13 10 15 16 16 14 12 11 12 15 17 18 17 14 12 13 11 10 10
23 24 25 24 21 21 25 29 31 33 28 23 24 24 25 27 25 24 25 25 25 23 24 25 27 24 20 16 12 8 10 14 14 15 15 16 17 16 16 16 13 12 11 12

GFSNW_500_spd_087.txt.gz
Wind_Speed
25 28 32 35 42 46 48 52 57 59 60 65 71 77 83 85 77 48 21 7 10 8 5 7 5 8 4 10 18 17 10 30 31 31 34 29 24 26 24 23 23 23 24 26
24 29 31 36 40 43 47 50 54 59 61 66 72 75 82 84 84 50 17 4 5 8 3 2 6 2 8 13 15 10 11 32 31 24 27 28 30 28 28 26 25 24 23 23
24 29 32 35 36 41 47 49 54 58 59 65 69 73 79 83 80 50 11 4 4 8 2 3 8 1 6 9 7 8 15 27 32 20 20 28 25 23 22 25 26 24 21 15
25 28 30 33 37 42 46 49 52 54 57 63 67 73 78 83 77 60 21 11 15 5 7 7 7 8 6 12 13 5 19 20 29 24 18 19 22 24 24 25 25 27 23 21
26 27 33 34 37 42 45 47 50 53 55 61 66 72 77 83 74 64 30 14 25 9 13 12 11 13 7 10 9 12 17 25 31 24 16 20 19 22 24 28 26 27 26 23
27 30 32 35 37 40 44 46 47 49 53 58 64 69 76 79 71 64 32 10 23 13 15 13 12 14 15 14 13 13 15 19 26 30 21 20 20 21 23 24 24 28 28 24
31 32 32 34 37 40 43 43 45 47 51 57 63 68 73 74 66 52 24 20 17 11 15 15 12 12 13 15 14 15 14 15 19 19 21 21 19 20 21 21 23 26 24 22
33 30 32 33 37 39 38 41 43 45 49 54 60 66 70 69 64 42 9 26 17 16 12 13 13 9 11 13 13 12 17 17 18 17 15 15 17 18 19 18 20 21 18 20
31 32 34 35 35 35 35 39 41 44 47 53 56 62 64 62 53 23 19 21 10 14 14 10 11 13 11 11 11 12 13 14 16 14 13 12 13 15 17 17 19 17 15 18
33 35 37 34 33 32 33 35 39 42 45 50 54 60 59 56 40 8 18 13 8 8 12 7 7 10 12 12 11 13 15 16 16 19 16 15 15 16 16 17 16 14 14 16
36 35 34 31 31 29 31 33 36 42 43 47 51 55 53 47 26 8 12 7 7 8 5 8 10 9 10 11 12 12 14 16 17 18 17 17 13 14 16 15 13 14 14 15
36 37 34 28 28 28 28 33 35 39 42 45 48 51 47 38 24 3 14 9 3 5 5 12 11 12 12 13 13 14 13 14 16 17 17 17 17 18 18 16 15 14 14 15
39 37 29 29 25 25 27 32 34 34 39 42 46 47 43 36 25 10 13 13 9 10 13 9 11 13 14 14 15 13 14 14 16 17 18 18 18 20 19 16 17 15 14 14
36 32 28 28 24 25 28 32 33 32 36 39 43 43 41 31 24 15 8 18 11 8 14 19 18 18 17 17 16 14 14 14 16 18 18 17 16 16 17 17 18 17 16 17
33 32 30 27 20 24 28 30 30 32 34 37 40 41 38 32 23 16 14 13 21 22 13 16 21 21 20 17 15 16 15 15 16 19 17 17 18 16 16 16 18 17 18 17
29 34 32 23 21 23 26 24 25 30 32 36 40 40 35 29 22 19 16 14 13 19 15 13 14 19 20 18 17 18 16 15 15 15 19 20 20 19 17 17 18 18 18 19
28 32 32 25 23 25 25 21 26 28 32 34 37 37 34 29 24 21 18 17 14 13 16 15 13 13 14 18 22 20 23 19 16 16 16 19 23 23 21 20 20 20 20 20
37 32 30 26 24 26 21 18 18 25 29 32 35 35 34 29 24 22 20 18 21 18 14 13 15 18 16 15 21 26 30 24 19 19 17 16 17 22 25 25 23 23 23 22
46 40 32 24 22 24 20 14 19 21 27 30 34 35 33 27 24 23 23 22 18 18 20 16 15 16 19 19 18 17 31 31 27 23 20 19 17 16 17 19 23 25 26 27
45 44 35 22 19 20 19 14 17 18 21 30 30 34 29 25 23 21 23 20 14 12 11 11 15 18 17 18 19 18 18 22 29 29 26 24 22 20 18 17 17 18 18 19
45 44 28 23 18 16 14 13 15 19 24 26 26 32 29 22 21 19 15 10 13 14 10 13 11 12 16 18 18 18 16 19 20 24 27 26 27 25 24 24 24 22 21 22
51 35 24 24 19 16 16 15 18 21 24 22 27 32 29 21 18 18 15 14 15 14 13 11 11 6 6 11 16 19 19 18 21 22 23 23 23 25 26 27 28 28 27 27
47 29 23 24 20 21 18 18 20 21 20 26 29 33 26 21 18 16 17 17 16 15 15 16 12 12 11 13 14 12 14 17 19 19 22 22 22 22 22 23 24 24 25 27
39 25 25 23 20 22 20 19 20 20 22 25 30 32 29 21 19 18 17 16 15 17 16 15 13 13 12 12 14 13 12 12 14 18 20 21 21 21 20 20 20 21 23 24
31 27 28 25 24 24 22 20 19 21 23 24 29 32 29 22 21 21 20 19 18 16 15 16 16 17 15 15 13 12 11 10 11 13 16 19 20 21 21 20 20 19 20 20
31 29 26 25 26 24 20 21 20 22 24 27 29 30 27 22 25 24 23 24 23 23 22 21 19 19 20 19 14 13 13 11 11 13 12 14 14 15 17 18 19 16 17 16
30 28 27 27 25 23 22 23 23 24 25 26 28 28 26 26 24 24 24 25 26 26 27 28 26 23 22 22 25 22 16 12 11 11 13 13 15 17 18 19 20 19 20 21

GFSNW_500_spd_090.txt.gz
Wind_Speed
13 15 20 23 25 30 34 38 41 45 50 55 59 65 71 77 79 68 28 7 8 5 5 8 15 9 9 14 11 12 9 8 34 33 34 31 29 24 19 20 19 25 27 26
13 13 19 22 25 30 33 37 39 44 49 55 58 64 69 74 78 71 35 7 12 5 4 7 11 7 4 12 10 6 4 15 33 33 28 24 30 20 18 18 19 21 21 21
13 15 17 23 25 30 35 36 39 42 48 53 56 62 66 72 76 69 38 7 12 6 6 8 10 9 9 13 11 7 10 28 26 27 26 23 19 15 17 20 20 19 17 14
13 16 16 22 26 29 34 36 37 41 45 50 53 59 62 67 73 70 40 11 14 8 7 11 12 10 13 9 10 9 17 21 27 25 24 26 21 21 17 19 21 21 19 18
13 17 20 23 25 29 33 37 36 39 42 47 52 56 58 62 70 66 45 16 13 9 7 11 12 16 12 10 7 4 9 19 26 23 14 16 22 23 21 21 19 17 19 19
14 18 21 24 24 29 34 34 33 36 41 44 49 52 54 58 65 63 46 10 19 15 9 9 11 12 13 18 12 10 10 18 28 28 20 16 17 17 19 21 23 24 20 20
20 18 19 20 24 30 33 32 33 34 37 41 45 48 52 56 62 60 44 4 22 13 9 8 8 10 13 12 10 8 11 14 20 24 26 19 15 17 18 19 19 19 19 20
19 21 20 23 25 30 32 31 32 32 35 39 43 46 50 54 59 54 35 5 17 13 9 9 7 8 10 13 13 8 11 13 16 18 23 21 19 19 19 18 17 17 16 17
26 25 24 24 25 30 32 30 30 29 33 37 40 44 49 52 55 47 21 3 7 5 6 10 11 9 8 8 10 11 12 14 15 15 17 17 19 19 17 17 19 18 17 17
28 28 25 25 25 30 30 29 27 27 31 33 37 41 45 48 51 43 25 8 2 6 7 7 9 13 12 9 8 10 12 14 15 16 18 18 18 18 16 17 17 16 17 17
20 23 24 24 26 29 30 27 26 27 27 31 34 37 42 45 46 37 26 7 4 6 5 10 10 10 14 14 12 11 11 14 16 18 20 22 18 17 18 18 17 17 18 19
25 23 23 25 28 26 27 26 25 25 26 29 32 36 40 42 43 38 24 10 6 10 9 9 13 12 10 12 14 14 13 14 15 15 17 19 19 19 19 18 17 17 18 18
22 23 23 23 20 24 25 24 24 23 24 28 31 35 38 41 40 40 28 15 16 19 16 15 12 14 13 12 13 12 14 14 16 17 17 18 18 18 19 20 19 18 19 18
26 24 19 22 18 20 20 24 21 23 25 26 29 33 36 38 39 36 29 21 15 16 17 16 17 20 18 15 14 14 14 14 15 17 18 19 18 18 18 19 21 19 20 19
35 29 24 20 16 16 17 21 20 21 25 26 28 31 35 36 37 36 31 26 21 19 20 21 18 17 22 21 17 16 16 17 17 17 17 19 18 17 17 17 18 20 20 20
32 33 28 24 18 16 14 20 20 22 25 25 26 29 34 36 37 37 33 28 23 21 18 20 23 22 18 22 20 21 21 20 19 17 17 17 20 19 18 18 18 19 20 20
28 27 21 23 22 19 14 18 19 21 24 24 24 28 32 35 36 37 35 30 23 22 22 18 21 20 19 16 21 23 25 23 21 19 19 17 16 18 20 19 19 20 21 20
35 33 26 26 29 23 17 21 21 22 24 22 22 27 30 34 36 37 35 33 29 23 20 22 21 19 23 19 20 23 25 28 27 24 22 20 17 15 16 20 21 22 22 22
47 43 34 28 27 29 20 17 19 23 21 20 22 25 29 33 33 35 32 31 27 22 17 15 19 23 21 21 22 19 17 21 26 29 24 22 20 18 16 16 17 22 24 26
46 41 38 34 33 23 18 16 17 19 19 18 22 24 28 31 32 34 30 27 23 18 18 14 13 11 17 20 19 18 17 18 17 18 26 28 26 23 19 19 18 16 16 17
42 36 33 36 30 21 15 14 14 16 18 20 20 22 25 28 31 31 27 25 20 17 16 14 15 15 12 14 17 18 17 18 20 22 21 21 26 28 26 25 24 22 21 20
35 38 38 38 31 21 15 16 15 18 18 19 19 21 22 27 28 31 26 23 21 19 18 16 15 14 12 12 11 12 16 18 19 20 22 22 22 21 23 25 27 28 27 26
46 41 43 42 34 23 18 15 15 19 19 19 19 20 23 25 28 31 29 22 19 20 18 18 17 15 14 15 15 15 13 14 17 22 23 22 22 22 23 23 23 23 24 25
52 47 50 45 33 20 17 16 18 20 18 17 18 19 24 23 27 31 31 22 22 20 18 17 16 16 15 15 16 17 15 14 14 14 15 19 21 20 21 22 22 21 21 21
52 53 49 40 21 17 19 20 20 21 19 18 19 21 22 23 27 30 33 26 23 21 23 22 20 18 15 14 17 16 14 11 13 13 15 17 18 18 18 19 19 19 20 20
57 54 47 28 20 19 21 23 22 22 21 21 21 22 25 25 26 29 32 27 24 25 26 26 25 25 21 19 17 17 19 16 12 12 13 13 13 14 15 16 17 18 19 19
54 49 37 25 19 21 25 24 24 24 22 23 23 25 26 27 28 28 29 26 25 26 26 26 24 23 21 23 24 23 22 21 24 22 16 14 14 14 15 17 18 19 20 22

GFSNW_500_spd_093.txt.gz
Wind_Speed
20 16 14 12 14 19 23 26 29 32 35 42 47 52 56 62 68 73 51 10 8 8 7 13 16 12 16 14 13 13 9 14 24 37 40 26 34 28 22 21 18 20 18 24
21 14 13 12 13 19 22 26 28 29 34 41 45 50 54 58 64 69 55 10 5 6 7 11 11 10 13 15 13 12 8 10 17 24 26 24 34 26 20 22 17 16 16 20
20 13 13 10 12 19 23 25 29 30 34 39 43 46 49 54 59 65 56 17 7 7 7 8 8 9 10 11 11 9 14 11 15 24 22 28 24 15 14 16 16 16 15 15
20 14 12 12 15 18 22 25 28 30 34 36 40 43 47 52 56 60 57 27 5 8 7 5 7 7 15 15 12 14 13 11 25 24 19 17 26 17 15 14 14 15 17 18
22 23 12 15 18 15 20 26 29 29 32 34 38 40 44 48 53 57 54 30 6 10 8 5 5 10 7 10 14 11 16 18 16 24 18 17 19 14 14 11 13 14 16 17
23 19 16 15 14 15 20 24 28 30 30 32 34 38 41 45 49 53 54 32 6 11 9 7 7 3 5 8 8 7 7 12 20 20 14 13 13 15 15 16 15 14 14 19
25 21 17 18 15 17 19 23 29 30 29 31 33 36 38 42 46 51 49 29 4 5 5 9 7 5 4 5 1 3 5 12 19 22 17 15 11 13 14 13 15 16 17 18
24 20 17 15 19 18 18 23 26 28 27 29 31 33 37 41 44 49 49 30 8 6 4 8 8 9 10 9 6 5 9 10 13 18 20 22 18 15 14 15 15 14 13 14
20 18 19 19 20 17 18 22 24 24 25 27 28 31 35 38 41 44 45 29 10 3 7 10 10 8 9 11 14 14 12 13 13 14 17 24 26 25 23 19 18 15 14 15
25 21 17 18 20 18 18 21 22 22 22 24 26 27 32 36 38 41 44 34 20 8 9 10 11 11 11 12 11 12 13 14 15 15 17 20 22 23 21 20 18 16 17 17
26 20 16 15 13 15 18 18 21 19 20 22 24 26 30 33 35 37 41 35 27 13 9 11 13 12 13 13 14 12 13 14 16 18 18 21 21 20 20 20 18 18 18 18
26 27 26 19 16 18 15 17 17 15 17 20 22 24 27 30 32 34 39 41 36 20 12 15 17 15 16 15 13 13 13 15 15 18 20 21 21 23 22 21 19 19 20 20
36 25 24 21 15 14 14 16 14 13 16 18 21 22 25 28 30 31 35 39 40 29 19 20 22 20 17 18 16 15 13 13 15 16 18 20 21 23 24 24 23 22 22 22
34 24 20 18 17 14 13 12 13 13 15 15 18 20 23 26 28 29 33 38 40 37 26 20 21 22 20 21 18 18 17 16 16 17 17 19 20 21 21 22 23 22 23 24
35 31 25 24 20 18 15 11 10 12 17 16 18 19 21 23 25 28 30 35 37 38 33 25 19 23 21 17 21 23 21 19 20 19 19 20 21 22 22 21 21 19 21 24
34 26 27 27 25 23 17 12 11 15 21 19 16 17 19 21 23 26 28 33 36 37 35 31 24 20 23 25 22 22 27 24 24 21 21 21 21 21 22 22 22 21 21 22
34 28 24 17 12 14 17 18 15 21 23 18 16 16 18 20 22 25 28 32 35 34 34 30 25 21 19 22 23 23 25 27 26 25 23 22 20 20 20 22 23 22 22 23
32 31 27 19 15 16 16 17 21 19 18 19 17 17 16 18 21 24 27 30 35 33 34 31 27 20 21 21 24 25 23 25 28 27 26 25 24 22 20 19 20 24 24 23
33 33 28 26 28 21 20 20 16 14 16 17 17 17 16 17 20 23 25 28 32 32 30 29 25 22 19 20 25 24 25 24 24 26 29 31 31 27 24 22 21 20 22 26
33 30 31 29 30 24 24 21 19 12 14 17 17 16 16 16 19 21 24 27 30 31 27 29 26 22 20 19 19 24 24 23 25 27 24 22 28 31 27 25 23 23 20 19
34 35 29 30 29 26 24 23 17 12 13 18 17 17 16 16 19 20 22 25 29 30 27 28 25 23 21 19 16 15 17 21 23 24 26 24 22 24 29 31 29 28 26 23
35 35 34 28 29 27 27 22 16 14 16 18 19 17 15 16 19 20 22 24 28 29 29 29 22 24 22 19 20 20 18 17 18 23 25 24 24 25 25 26 29 31 30 31
40 39 35 30 31 33 31 23 18 19 17 19 20 18 16 17 20 20 23 25 27 29 30 30 25 23 21 20 20 21 21 22 19 18 19 24 26 23 23 25 25 26 27 26
39 39 38 37 41 39 31 20 16 18 20 22 21 20 17 18 21 22 25 25 28 28 30 29 28 25 22 20 20 21 21 20 19 19 17 16 16 18 19 21 24 25 25 25
42 43 42 40 40 41 32 20 17 18 23 24 23 21 20 21 23 23 25 27 28 27 29 28 29 28 25 24 25 23 21 19 19 20 16 17 16 17 19 19 18 18 19 19
42 42 39 36 39 34 22 22 18 21 25 25 24 24 23 24 24 25 27 27 26 27 27 29 30 31 29 26 25 25 25 24 23 20 21 14 14 15 15 16 18 20 21 21
42 40 38 39 40 32 25 19 20 25 28 27 27 26 26 26 27 27 28 27 28 27 28 29 31 31 28 26 25 26 26 26 26 26 24 23 25 20 17 17 17 18 20 20

GFSNW_500_spd_096.txt.gz
Wind_Speed
27 25 23 20 20 12 14 18 23 24 24 28 34 39 43 48 54 59 61 24 8 7 14 19 18 10 11 14 16 12 5 5 18 17 30 27 28 24 23 20 20 18 14 16
25 24 24 20 15 10 13 18 22 23 23 27 33 38 40 45 50 56 59 31 5 6 11 17 20 15 17 16 17 15 5 2 12 24 29 27 16 21 19 18 17 17 9 10
28 26 21 15 10 9 15 16 19 22 23 26 31 35 37 42 48 53 56 38 4 6 11 15 16 11 9 12 15 10 10 7 6 20 26 22 14 20 17 17 11 14 8 19
28 25 24 15 10 7 13 15 17 21 25 24 29 32 33 39 43 49 53 43 12 2 7 11 10 13 10 10 12 12 11 7 6 12 18 21 12 17 15 10 18 13 12 12
26 27 22 15 11 11 11 13 16 21 23 24 27 28 32 36 40 47 49 44 23 2 4 7 9 9 12 13 8 10 11 7 10 15 11 12 19 11 9 10 11 12 14 16
24 25 22 23 13 9 11 13 15 19 20 22 25 27 30 34 37 42 47 45 20 5 3 3 1 5 6 10 10 9 7 11 12 13 11 9 15 11 8 8 9 8 11 18
23 27 25 18 15 11 11 12 13 17 20 20 23 25 28 32 35 40 45 44 28 14 4 4 3 4 2 2 5 6 4 5 9 14 13 10 10 10 11 11 11 10 12 12
24 24 25 16 10 9 10 12 13 15 19 19 21 23 27 30 33 36 41 42 37 17 6 6 8 10 9 8 8 4 3 6 11 16 19 17 14 11 8 9 7 9 12 15
29 26 23 21 16 10 12 12 13 14 17 16 18 21 25 28 30 33 38 42 40 26 12 10 10 9 10 9 12 14 12 11 10 13 17 22 18 20 18 14 12 12 12 13
37 23 21 20 15 11 12 10 12 13 14 14 17 19 22 25 27 28 33 39 40 35 22 12 12 11 11 11 12 12 13 14 14 14 17 17 20 21 21 23 20 17 16 16
36 27 24 17 11 12 11 8 9 11 12 12 14 17 20 22 25 27 29 35 38 39 31 18 12 12 13 13 13 12 13 15 16 17 18 19 18 18 19 19 17 18 19 18
33 29 20 21 13 13 10 8 7 10 11 11 12 16 17 20 21 24 27 30 35 38 36 29 20 15 16 16 15 14 12 15 16 17 18 19 18 19 22 21 21 20 20 20
34 26 26 23 18 16 11 7 6 10 9 10 13 14 16 17 20 21 23 27 33 35 37 36 31 20 18 18 16 18 16 14 15 17 18 18 20 21 22 24 24 23 21 20
33 29 22 22 19 15 11 6 7 7 6 10 13 13 13 15 17 20 22 25 31 33 34 37 37 27 19 17 18 18 18 17 16 17 17 20 19 21 21 23 23 23 23 23
34 34 28 22 17 16 12 10 10 8 7 12 16 14 12 14 16 18 20 23 27 30 32 35 37 35 20 16 20 16 18 21 21 18 19 19 19 21 22 23 24 23 23 24
31 29 21 20 22 19 17 17 15 12 12 16 15 14 13 13 14 17 18 21 25 28 29 33 37 39 30 15 15 19 23 21 24 24 22 24 21 20 22 23 24 23 24 24
37 31 26 25 22 20 19 16 14 14 14 13 15 15 14 13 14 15 16 19 23 26 29 32 36 38 34 24 17 17 20 20 22 24 27 25 24 22 21 21 22 24 25 24
38 35 33 26 19 19 13 10 8 7 7 10 15 16 15 16 14 13 15 18 22 25 27 31 33 36 36 30 23 19 21 22 22 22 24 29 28 26 24 24 23 22 22 25
33 37 35 27 24 24 17 16 14 11 11 11 13 18 17 17 14 14 14 17 20 24 26 29 31 33 34 32 26 23 19 21 22 21 24 24 28 30 30 29 27 25 24 23
34 36 32 27 26 22 20 21 18 13 10 10 13 19 20 19 17 14 15 17 19 22 25 26 29 31 32 33 28 22 21 18 18 22 23 24 27 26 27 32 36 30 28 27
38 36 34 31 26 26 25 23 19 10 8 10 16 21 23 22 18 16 15 17 19 21 24 25 26 29 32 34 30 24 22 21 19 18 21 25 25 25 27 25 27 32 30 30
38 38 35 31 26 25 23 23 18 10 7 13 18 23 24 24 20 18 17 18 20 22 25 25 25 27 31 34 31 27 23 23 22 22 22 22 23 26 25 25 24 27 33 36
43 39 39 32 30 32 26 22 18 15 12 16 20 24 26 24 23 21 19 20 21 22 24 25 25 26 29 33 35 29 25 24 25 24 22 22 22 22 23 25 24 24 26 28
40 36 40 39 34 32 30 25 21 18 17 19 22 26 25 25 23 23 22 22 23 25 25 25 25 25 29 32 35 33 28 26 25 24 22 22 24 22 21 20 20 23 22 24
36 32 36 36 37 34 31 26 24 20 17 23 25 27 26 25 25 25 24 26 26 26 27 27 26 27 27 30 35 36 32 28 25 26 26 23 22 23 20 19 20 22 21 19
29 30 32 27 30 31 26 25 24 19 22 22 25 28 26 26 27 25 26 29 28 28 29 28 29 28 29 30 35 37 36 30 25 25 26 26 25 26 26 22 19 19 18 19
34 34 34 35 31 27 26 24 23 22 21 22 26 28 27 27 27 26 29 31 30 31 32 31 31 29 31 32 35 38 37 33 29 28 28 28 29 29 29 28 27 21 18 18

GFSNW_500_spd_099.txt.gz
Wind_Speed
33 31 27 25 22 19 15 6 10 13 13 15 19 24 31 35 42 48 53 50 28 20 23 24 23 15 13 10 14 12 8 12 16 14 21 20 25 24 18 26 25 24 23 20
29 29 24 23 22 20 13 3 8 12 13 13 18 23 29 32 39 45 52 51 34 17 20 22 16 16 16 18 14 13 12 11 16 21 24 21 18 24 19 21 20 24 20 17
33 27 24 21 21 19 9 2 5 10 12 12 17 22 27 29 37 43 49 50 36 16 17 17 16 12 12 13 14 14 14 10 12 17 21 17 17 13 17 17 18 18 11 20
32 28 25 22 22 18 10 2 4 9 9 11 15 21 25 27 33 40 46 48 41 20 13 14 15 13 9 13 13 11 9 6 4 10 14 17 16 6 19 16 12 13 9 15
39 32 27 23 18 16 11 3 2 7 8 10 14 19 22 25 29 38 42 44 42 24 10 8 14 13 10 12 9 7 7 5 4 3 11 14 14 9 14 12 16 15 14 14
37 31 27 27 17 13 10 3 2 6 9 10 13 17 20 23 27 34 39 42 41 27 13 6 7 8 9 8 8 4 5 1 4 8 9 5 15 13 9 8 14 15 17 17
37 28 25 24 20 14 10 4 1 4 8 9 12 14 18 21 24 29 34 38 40 38 21 5 4 5 4 4 5 3 4 7 5 6 9 7 7 14 6 8 10 9 8 9
37 30 28 22 22 19 13 7 3 3 6 7 11 13 16 19 23 26 31 34 37 37 28 13 6 6 6 6 6 5 1 6 9 9 10 11 9 10 8 8 10 11 11 12
37 31 27 20 21 18 15 10 4 2 4 6 10 11 14 19 21 24 26 32 35 36 29 20 10 8 10 9 9 7 8 8 9 11 14 17 17 16 13 12 13 10 8 10
38 34 26 21 22 17 12 9 6 2 3 5 7 9 13 17 18 20 23 28 32 33 34 32 21 11 10 9 11 12 12 11 11 13 13 12 15 20 22 23 19 16 15 14
40 29 22 24 25 19 14 10 7 3 2 3 5 9 11 14 16 19 20 24 28 32 34 34 30 18 11 13 13 12 14 15 14 13 15 16 15 16 19 21 22 22 23 21
37 35 27 22 23 18 14 10 7 4 1 2 4 8 9 12 14 16 18 20 24 28 31 34 34 28 18 12 14 14 13 14 15 16 16 16 18 19 20 21 21 20 20 20
43 37 31 27 24 18 15 10 9 4 3 3 4 8 8 10 12 16 17 19 21 26 28 32 34 34 30 16 10 16 14 16 14 14 16 18 17 20 21 21 21 22 22 22
38 40 33 25 25 19 15 12 9 6 4 5 5 11 9 10 12 15 17 18 19 22 25 29 32 34 34 26 17 14 14 15 15 14 16 15 17 17 19 22 23 23 23 24
37 40 30 27 25 19 17 14 12 6 5 7 9 10 9 10 12 13 16 18 19 21 23 26 29 33 36 36 27 13 12 16 16 16 19 17 17 19 19 21 21 22 23 24
36 34 34 29 25 21 19 17 14 9 10 9 9 9 10 11 12 13 15 17 19 20 22 25 28 32 35 36 33 26 14 15 22 20 20 20 21 21 22 22 23 23 23 24
39 37 33 30 22 21 17 18 16 13 12 10 9 9 11 12 13 14 14 17 18 19 21 23 26 30 32 34 34 36 26 13 14 18 20 19 21 27 26 24 22 22 23 25
37 38 34 27 21 16 13 15 14 15 15 12 9 12 15 14 14 15 14 16 19 20 20 21 24 27 30 30 33 35 34 22 14 17 17 17 19 20 26 27 27 25 24 24
37 35 32 25 25 18 15 16 16 11 12 13 13 15 17 16 17 17 17 17 19 20 20 21 23 26 27 28 29 32 33 32 23 16 15 18 19 20 21 25 30 31 30 28
38 37 27 29 25 21 21 22 18 15 14 14 13 15 17 15 19 20 19 20 20 21 21 21 22 23 25 27 27 29 31 31 26 19 18 17 18 21 23 21 23 23 31 35
38 34 36 30 27 25 27 25 19 15 14 15 13 13 15 15 19 22 22 22 23 22 22 22 22 23 24 26 26 27 29 32 32 25 20 19 20 21 21 23 24 24 27 26
37 35 31 32 31 30 30 25 23 19 15 11 12 12 13 17 20 24 24 24 25 26 24 23 23 24 24 25 25 27 28 31 33 30 24 21 21 21 20 21 21 23 23 24
39 36 33 35 34 36 31 26 23 18 19 18 16 17 19 19 22 25 25 24 25 28 26 25 25 26 26 26 25 26 27 29 33 33 29 23 21 21 22 20 21 21 21 23
43 37 37 37 37 33 26 26 25 21 19 18 18 21 22 23 25 26 27 26 27 29 28 27 27 28 29 28 27 26 28 30 32 35 33 28 23 23 23 22 21 22 21 23
34 35 38 38 35 34 32 29 21 21 24 21 22 23 23 24 25 27 27 25 30 30 29 29 30 31 31 31 29 28 28 31 32 35 34 32 25 23 23 23 24 24 22 20
32 37 40 36 35 31 30 26 23 22 20 20 21 23 23 23 26 28 26 27 31 31 30 31 32 34 35 33 32 31 30 32 33 35 35 35 27 24 22 22 25 26 27 26
35 32 35 29 28 26 22 18 19 20 19 20 24 24 22 23 29 29 26 30 30 30 31 32 34 36 37 35 34 34 33 33 34 35 36 35 31 28 27 26 28 30 32 29

GFSNW_500_spd_102.txt.gz
Wind_Speed
43 37 37 29 26 24 22 18 11 4 2 1 6 10 16 22 29 35 45 48 44 28 28 26 15 12 14 17 13 11 8 4 6 13 22 33 24 27 25 21 23 24 22 21
42 36 35 29 25 24 24 18 11 6 3 2 4 9 15 21 26 32 42 45 44 26 24 23 20 18 17 13 10 8 9 5 5 7 15 31 21 17 19 26 27 25 22 22
40 36 32 29 29 23 23 19 11 6 4 3 3 8 14 19 23 29 38 43 43 27 19 21 17 16 19 20 18 9 10 6 6 6 11 20 23 17 14 15 20 21 22 27
40 39 31 28 24 22 22 19 12 8 6 5 3 7 13 16 21 26 34 40 41 31 15 16 17 14 17 15 19 11 9 12 11 9 10 9 12 7 13 17 17 17 18 15
45 36 32 30 23 23 23 20 13 10 7 6 4 7 12 13 18 24 30 36 38 36 19 10 13 13 11 10 11 11 9 9 12 14 13 13 11 5 15 17 16 15 7 15
39 37 33 27 25 21 24 18 15 11 7 7 4 7 10 11 16 22 27 32 34 33 25 9 7 10 10 9 7 7 6 6 4 4 9 12 13 10 13 14 15 17 15 15
40 40 32 30 25 23 24 18 16 12 9 9 6 6 8 11 14 18 24 29 33 34 30 15 3 3 4 5 5 2 2 5 7 7 7 7 7 14 14 14 16 18 19 18
44 40 34 30 25 27 26 19 17 12 10 9 6 6 8 10 13 17 21 25 28 32 31 25 11 2 3 5 6 4 2 5 6 9 9 9 9 11 13 9 14 14 15 14
42 41 37 29 27 28 24 20 17 12 10 8 6 6 7 9 12 15 19 23 25 31 32 31 24 12 2 5 9 10 10 11 11 12 14 16 15 15 14 13 14 15 15 14
42 39 32 33 29 26 27 22 16 13 12 9 7 5 6 8 11 13 16 21 24 26 30 31 30 23 11 4 7 12 13 13 15 16 15 15 18 22 22 21 17 16 16 16
43 36 37 37 24 27 27 22 16 14 11 9 8 3 5 6 9 11 14 18 22 23 27 30 32 31 23 14 8 9 14 15 15 16 16 17 17 17 20 24 27 26 24 24
41 41 38 27 29 31 24 20 18 14 10 8 7 3 3 4 7 10 12 15 18 21 24 27 30 33 31 28 15 7 8 15 16 14 16 16 16 19 19 20 23 27 29 29
39 38 34 28 30 30 24 21 19 15 9 9 7 1 1 2 4 8 10 12 16 18 20 24 27 31 33 31 27 24 9 10 14 13 14 14 15 16 18 20 21 23 24 27
36 38 33 31 34 30 27 23 20 14 12 11 7 2 1 1 2 5 8 11 14 17 19 21 24 27 31 33 32 32 23 11 9 13 14 16 16 16 18 19 20 21 23 25
39 36 35 36 32 32 27 23 18 17 13 10 7 4 4 3 4 5 7 11 14 17 19 20 22 25 28 32 33 33 32 24 8 12 15 16 18 18 17 19 19 20 21 23
39 36 38 36 36 31 25 23 19 17 11 9 9 6 5 5 7 7 8 11 13 16 19 21 23 24 26 30 31 31 32 31 27 11 16 20 18 17 18 19 20 20 22 23
40 41 40 34 32 31 26 24 23 19 12 11 12 9 7 9 9 10 10 11 14 17 20 21 24 25 25 27 29 30 30 29 28 25 12 15 17 21 19 23 30 28 26 24
41 40 39 36 33 29 27 23 20 19 16 16 14 12 11 12 12 12 13 13 14 17 20 22 23 25 26 26 27 28 29 29 28 26 23 16 15 17 19 22 21 24 26 28
44 39 42 37 33 29 25 20 18 18 16 16 15 13 15 16 15 13 15 15 16 18 20 23 23 25 25 25 25 26 26 27 27 26 24 23 18 16 17 19 20 23 24 28
42 43 43 40 32 29 22 17 17 17 18 14 15 15 17 16 15 15 16 15 17 19 22 25 24 25 26 26 25 25 25 25 26 27 25 24 22 18 18 19 20 23 24 25
43 47 42 36 30 29 22 21 20 20 20 17 14 14 16 15 16 16 16 16 18 20 23 25 27 26 28 27 27 27 27 25 25 26 27 27 26 24 19 19 21 21 22 25
40 41 41 36 33 28 26 22 20 21 20 14 17 18 18 16 16 18 19 19 20 21 24 26 28 28 29 29 28 29 29 28 26 25 26 27 27 27 25 21 21 23 22 23
40 41 37 35 34 33 28 24 20 22 21 21 18 20 20 19 21 23 24 23 20 23 25 27 28 30 31 31 30 31 31 30 29 27 26 27 28 29 28 24 21 25 24 22
44 39 37 38 38 32 28 26 28 27 24 22 21 23 25 24 27 28 26 27 23 25 26 28 29 31 32 33 32 32 33 32 31 29 28 27 28 29 29 26 23 22 26 26
42 36 35 36 34 32 31 30 29 26 24 23 23 25 25 27 31 29 30 27 26 28 29 29 29 31 33 34 34 34 36 34 33 31 29 28 28 29 29 28 24 23 23 25
41 38 39 37 34 33 31 30 28 23 24 27 25 25 26 28 30 30 30 26 27 30 31 32 31 32 34 35 36 37 37 36 34 33 31 30 29 29 30 29 27 25 26 29
48 47 43 37 35 34 32 28 23 19 18 21 22 24 26 28 30 31 27 27 30 30 32 33 33 33 34 36 36 37 38 36 36 34 34 32 31 30 30 30 29 28 28 28

GFSNW_500_spd_105.txt.gz
Wind_Speed
48 44 42 42 35 39 29 23 23 17 12 10 6 2 3 10 17 23 31 41 43 35 29 19 23 18 17 11 9 10 12 9 15 19 16 10 19 16 16 22 15 23 16 17
51 46 46 42 35 36 31 24 25 19 14 11 8 3 2 10 16 21 29 37 42 34 25 18 21 15 17 10 9 8 9 11 7 10 16 14 16 15 16 18 13 15 15 14
48 46 45 42 37 32 30 24 25 20 16 12 9 4 3 9 14 19 26 34 38 32 22 19 14 15 14 12 5 6 2 7 9 9 12 10 16 15 17 18 17 15 16 17
50 43 45 39 39 32 28 29 26 20 18 14 10 6 4 8 12 16 23 30 35 32 21 16 11 12 11 10 9 4 4 4 6 6 8 15 13 8 9 13 17 23 20 18
49 56 51 41 38 30 25 31 26 20 19 15 11 7 4 7 10 15 19 27 33 32 24 17 9 7 10 12 9 4 7 4 1 3 8 9 12 9 9 11 13 14 17 19
45 48 43 34 35 29 26 31 25 22 20 16 12 8 5 6 9 13 17 24 30 32 29 17 7 7 6 6 9 9 5 7 6 4 10 10 11 11 11 13 16 17 17 16
48 47 41 37 36 32 32 33 26 22 20 17 13 9 6 7 8 12 15 21 27 28 32 27 14 3 3 3 2 4 9 10 12 10 12 13 14 15 15 14 16 17 18 14
54 47 38 36 31 28 34 31 24 22 21 17 13 10 7 7 7 11 14 18 24 28 31 30 24 16 6 5 8 6 6 6 9 11 10 9 9 8 9 11 14 15 16 18
48 46 41 31 33 28 35 32 25 22 22 18 14 10 7 6 6 9 13 15 19 23 27 31 28 22 16 5 6 12 13 13 10 10 12 14 13 12 13 11 10 12 15 18
45 44 40 34 31 32 35 32 26 24 22 18 14 9 7 6 6 7 10 14 17 21 23 28 30 27 26 16 5 6 11 15 14 14 14 15 17 19 18 17 15 15 18 18
44 42 38 31 30 39 33 31 26 23 22 18 14 9 7 5 5 6 9 12 15 17 21 24 27 31 27 27 22 11 6 10 13 15 15 17 19 19 22 24 23 23 21 22
44 43 37 32 32 33 33 31 25 23 20 18 14 8 8 6 4 6 7 11 13 17 19 21 25 28 30 29 28 21 10 10 6 10 16 19 16 19 22 22 24 27 29 29
45 43 37 32 33 32 38 31 26 23 19 17 14 8 8 7 4 3 5 8 12 15 18 21 23 26 28 29 31 33 27 23 5 4 10 15 17 18 20 21 23 24 26 27
46 42 39 39 33 38 35 30 26 23 18 18 15 8 8 7 5 2 2 6 10 13 16 19 21 23 25 28 28 31 31 30 25 11 6 12 16 17 18 19 20 21 23 25
44 39 38 39 41 37 33 31 28 22 20 17 15 8 7 6 4 1 2 5 8 12 15 18 20 22 24 26 27 30 30 30 30 23 16 6 10 17 20 21 21 19 20 21
41 41 34 40 41 36 34 31 27 21 18 14 15 9 6 5 2 3 4 5 8 11 14 17 19 22 23 25 27 28 29 30 30 28 26 20 10 13 18 20 23 23 23 23
36 41 37 42 40 38 34 30 27 24 20 16 14 11 7 5 3 5 6 7 8 10 13 16 19 22 23 25 27 28 28 29 29 29 27 26 23 15 12 17 23 25 24 28
44 34 37 37 40 39 34 32 28 26 21 17 14 14 10 8 7 8 8 8 9 10 13 16 19 21 24 24 26 28 29 29 28 28 27 25 23 22 17 14 17 22 25 28
45 40 37 42 40 37 33 30 27 25 22 17 15 16 13 10 11 10 10 9 10 13 14 16 19 22 23 24 26 27 29 28 28 26 25 24 24 22 20 17 16 17 21 25
45 35 42 42 41 38 33 29 27 22 20 19 17 15 13 13 14 12 10 11 12 16 17 18 20 23 25 25 26 27 29 29 28 27 25 23 22 21 21 22 19 17 18 23
45 38 38 38 38 35 30 28 25 22 19 18 14 13 14 15 15 14 11 12 14 18 21 22 21 23 26 27 27 28 29 30 29 30 28 25 23 22 21 21 21 20 18 19
42 35 40 42 39 36 33 28 24 22 20 16 17 16 16 17 18 16 15 16 17 20 25 25 22 24 26 28 29 29 30 31 30 30 29 28 26 25 23 22 22 21 21 19
38 39 41 45 43 39 38 28 18 17 18 22 20 18 16 17 17 19 21 22 21 26 26 26 25 25 27 29 30 31 31 32 32 32 32 30 29 27 25 24 23 23 23 22
46 39 46 49 45 38 32 25 22 23 24 24 22 19 19 19 22 24 26 26 27 27 27 28 28 27 29 30 31 32 32 32 33 34 34 32 30 28 27 26 25 25 25 25
49 42 49 49 42 37 33 29 26 23 21 22 24 23 22 23 25 25 27 28 28 28 30 30 30 30 32 31 32 34 34 34 35 36 35 34 31 29 29 27 26 27 27 26
40 41 44 43 41 38 34 30 26 25 25 25 25 25 25 27 28 28 28 27 27 30 32 32 34 34 34 33 33 35 35 36 36 37 37 35 32 31 30 29 27 27 28 28
39 39 43 39 38 35 34 32 29 28 28 29 27 27 27 29 30 26 25 27 28 31 33 35 36 37 36 34 35 36 37 38 38 39 39 37 35 34 32 30 28 28 28 29

GFSNW_500_spd_108.txt.gz
Wind_Speed
53 68 67 59 47 44 43 35 30 28 22 17 14 9 6 3 7 14 23 33 40 38 32 24 18 13 7 10 12 12 7 6 4 8 11 12 10 13 16 20 14 16 15 14
62 70 66 52 43 43 41 32 30 27 22 20 15 11 8 5 7 14 22 30 38 38 29 21 19 11 5 10 16 17 13 8 6 2 2 6 5 3 20 20 16 18 17 14
68 66 62 57 42 36 33 36 30 28 22 20 16 13 9 6 8 13 20 28 34 36 28 21 16 8 4 4 10 13 14 16 10 9 3 2 6 5 5 9 9 14 9 8
68 58 55 53 43 35 29 34 32 28 24 20 16 14 10 8 9 13 18 25 31 34 29 19 12 10 3 2 3 11 13 13 16 8 9 9 11 6 4 8 9 9 10 11
60 57 53 44 40 33 37 32 34 28 26 21 17 15 11 8 8 12 17 22 27 31 30 24 11 7 6 6 1 5 5 7 11 8 6 5 2 1 0 3 6 16 18 14
58 52 45 43 38 35 36 37 32 28 26 22 18 15 12 9 8 11 14 19 25 27 30 26 16 7 2 3 4 2 1 4 3 3 5 4 6 6 5 7 9 11 15 18
46 45 43 37 41 34 39 36 32 30 26 22 19 16 13 10 8 9 12 16 22 25 28 29 25 14 5 1 3 6 7 5 6 6 5 8 9 10 10 11 11 9 13 16
42 39 42 39 39 32 42 36 31 30 26 23 19 16 13 11 8 9 11 16 18 24 28 28 28 22 18 7 7 7 5 8 12 11 10 10 11 10 9 10 12 14 15 15
47 44 43 38 37 35 42 37 32 29 26 23 19 16 13 11 9 10 11 13 17 21 26 29 29 30 24 24 13 7 11 12 8 8 13 13 12 11 9 8 8 12 14 15
46 44 36 41 36 45 41 35 31 30 26 23 19 15 13 11 10 10 12 12 16 18 22 24 28 28 31 27 28 20 10 8 12 14 12 13 15 15 15 15 15 13 14 15
47 46 38 35 38 44 41 34 31 30 26 23 19 16 13 10 10 9 10 11 14 16 19 22 24 28 28 31 32 31 26 13 7 7 13 14 17 16 17 19 19 19 19 19
45 40 40 35 41 42 41 34 31 29 26 24 18 15 13 10 8 8 8 9 11 14 17 20 22 24 27 29 31 32 29 29 20 14 7 8 16 16 18 20 22 23 24 25
42 41 34 30 37 42 39 35 31 28 25 23 18 14 13 9 7 6 6 7 9 12 15 17 20 23 24 26 28 29 30 31 29 28 23 13 9 12 17 20 21 22 25 27
44 42 35 33 40 43 39 35 32 28 24 22 18 13 12 9 7 5 3 3 7 10 12 15 18 20 22 24 24 27 27 29 28 26 28 25 19 7 11 15 19 20 21 23
43 41 36 38 45 41 39 35 33 27 25 24 18 12 12 10 7 5 3 1 4 7 10 13 16 18 20 22 23 25 26 26 27 25 24 25 24 21 14 9 15 18 20 21
43 42 37 37 40 40 39 33 31 28 22 22 18 11 10 9 6 2 0 1 3 6 9 12 14 17 18 19 22 23 25 25 25 24 23 23 22 22 21 17 11 14 18 20
41 41 36 38 35 40 38 33 29 26 22 19 18 13 9 9 4 1 2 2 3 5 8 11 13 15 17 20 21 24 24 24 25 25 23 20 18 19 19 19 16 14 13 17
39 41 36 40 41 41 38 34 30 25 23 20 17 14 10 10 6 4 4 4 4 5 7 11 14 16 17 19 22 24 25 26 26 26 25 22 20 17 16 16 16 15 15 15
39 40 35 44 43 40 37 34 31 26 22 18 15 13 12 10 9 7 7 7 6 6 9 12 15 17 18 19 22 25 27 28 29 29 28 26 23 19 17 16 15 15 15 16
33 37 35 42 41 39 37 34 30 26 24 20 16 13 12 13 10 10 10 9 7 8 11 14 16 18 19 21 22 24 27 29 29 30 30 29 26 23 21 19 17 16 16 18
35 33 34 38 40 40 37 34 31 26 24 21 17 14 12 12 12 13 11 10 10 9 15 19 19 20 20 21 22 24 27 29 29 29 30 30 28 25 24 22 21 19 19 20
36 32 29 35 37 38 36 33 31 27 25 19 17 15 13 12 13 14 13 14 14 14 17 22 21 23 22 22 24 25 27 29 30 30 31 31 30 28 26 25 24 23 21 22
37 35 32 36 39 40 38 36 29 24 20 22 21 19 16 13 13 15 16 16 16 20 19 23 24 24 24 24 26 27 29 31 32 32 32 33 32 30 28 27 26 25 24 22
36 36 35 37 40 39 36 32 29 26 24 24 23 21 18 16 17 17 20 20 20 19 21 24 25 25 26 27 29 30 31 33 33 34 34 34 34 33 31 29 29 27 26 25
37 35 38 37 38 38 36 35 31 24 23 26 24 20 19 21 21 19 22 24 22 24 25 23 25 26 28 30 31 32 34 35 35 37 36 37 37 35 33 32 30 29 29 28
41 39 37 34 36 39 39 36 35 30 26 23 21 21 21 23 24 21 26 25 26 26 25 25 25 28 30 31 32 35 37 38 37 38 38 39 39 39 36 34 32 31 30 29
47 41 40 34 34 42 41 38 35 33 27 25 25 25 25 24 24 26 26 22 20 23 25 26 27 30 31 33 35 37 39 39 39 39 39 41 42 41 39 37 35 33 32 31

GFSNW_500_spd_111.txt.gz
Wind_Speed
29 38 45 44 37 44 53 46 38 32 20 24 23 18 15 12 11 13 18 27 34 31 27 13 14 18 20 20 17 6 6 12 12 18 14 21 10 13 15 12 16 11 10 11
25 30 48 53 51 55 56 44 35 26 22 27 23 19 16 14 13 15 19 26 33 33 26 19 12 14 15 18 21 17 6 4 11 16 16 19 16 14 15 15 16 16 13 15
21 34 53 60 63 59 56 42 31 27 30 29 24 21 18 16 15 16 21 26 32 32 28 20 14 6 10 10 17 17 19 11 10 9 11 14 18 18 16 13 15 19 15 14
36 52 66 67 60 53 45 37 29 32 33 29 25 22 19 17 16 16 20 26 31 34 31 25 16 10 6 7 10 13 18 20 11 10 14 17 16 11 8 7 8 8 8 9
50 63 65 58 52 49 41 34 29 35 34 30 26 23 20 17 16 17 19 23 28 33 34 33 21 13 6 3 5 7 10 14 13 13 10 12 11 10 8 6 4 4 3 2
63 61 58 54 46 39 31 36 40 38 33 30 28 24 21 19 15 16 18 21 24 30 33 35 28 20 12 4 4 2 5 7 9 8 8 7 5 4 3 2 2 1 3 8
65 58 50 46 40 34 32 41 40 36 33 31 28 24 20 17 16 16 17 20 21 25 29 33 33 29 20 9 4 2 3 1 2 3 2 1 1 3 2 3 5 4 5 6
58 55 48 42 31 26 37 43 39 37 33 30 28 25 21 17 15 16 16 17 20 23 27 30 31 34 29 23 19 10 3 4 6 6 5 4 5 5 7 7 8 7 6 7
52 49 45 37 33 37 44 42 39 36 32 29 27 23 20 18 16 15 16 17 19 21 24 26 29 31 31 31 29 25 16 6 4 5 7 8 8 6 6 5 6 8 9 12
48 47 40 34 33 45 44 39 38 35 31 29 26 24 21 17 16 15 15 16 17 19 22 24 25 28 29 32 32 30 27 20 11 3 6 9 10 10 10 10 9 9 10 10
42 36 29 29 33 41 42 39 37 35 31 28 25 22 20 18 15 14 14 14 16 18 20 23 23 24 27 29 28 31 30 29 25 19 9 1 6 10 12 14 12 15 16 16
36 33 33 29 33 42 39 38 37 34 31 28 24 22 19 17 15 13 12 13 14 15 17 19 21 23 24 25 28 28 28 29 27 27 22 19 10 2 8 14 15 17 18 20
32 31 30 31 41 42 38 37 35 33 30 25 23 21 18 15 13 12 11 10 11 12 14 16 18 19 20 21 24 25 26 27 27 27 25 23 22 17 10 2 11 16 20 21
33 32 28 42 46 43 39 36 34 32 28 24 20 19 17 14 11 9 7 7 8 9 10 13 15 17 17 19 21 24 24 25 25 24 25 23 22 21 19 13 8 5 11 18
36 31 36 45 45 40 36 35 33 30 28 23 20 19 17 13 10 7 5 3 3 5 8 11 12 14 16 18 20 21 23 23 23 23 23 22 21 19 17 15 14 11 7 9
36 32 37 46 44 39 35 33 30 28 26 23 17 17 17 14 11 8 5 3 1 3 6 9 11 13 15 15 17 20 21 22 23 22 22 23 21 18 14 13 13 9 9 9
34 31 37 45 45 41 36 33 32 28 24 24 18 15 15 13 10 6 4 3 1 1 5 8 10 12 12 14 16 18 20 21 22 23 23 22 21 17 15 13 9 7 6 6
36 32 40 44 43 41 37 34 31 28 24 25 21 15 13 14 9 4 1 2 1 0 3 8 10 10 11 13 15 17 19 20 22 23 23 23 22 20 16 15 13 11 9 9
36 34 37 43 42 41 36 33 33 29 25 22 22 18 14 12 10 4 1 1 3 1 3 7 10 11 12 12 14 16 19 21 22 23 23 24 24 23 20 17 15 15 14 14
36 36 33 36 39 39 38 35 33 30 26 23 20 16 13 12 11 7 4 5 3 3 3 7 13 12 12 13 14 17 19 21 23 24 24 25 27 26 24 22 20 17 16 16
36 39 33 36 40 42 39 36 31 28 24 22 18 13 10 11 12 10 6 8 6 6 8 9 14 13 13 14 15 18 20 22 24 25 26 27 28 29 28 25 24 21 18 19
36 38 34 40 41 41 41 38 33 29 27 23 18 14 12 13 12 10 8 8 8 7 12 13 15 16 15 15 16 18 21 23 25 26 27 27 29 30 30 28 27 24 21 21
38 37 35 41 43 41 39 37 33 27 22 21 21 17 16 15 13 10 9 9 10 13 13 14 15 16 16 17 18 20 21 24 27 27 29 28 29 32 32 31 30 29 26 24
40 35 35 39 44 43 37 34 28 27 26 25 22 18 18 17 16 13 12 12 13 16 19 17 16 16 16 17 20 23 23 26 29 30 32 33 33 34 34 34 33 33 30 27
40 39 35 34 37 37 36 37 33 28 26 26 24 22 19 20 19 18 18 18 18 21 21 19 15 16 17 19 22 24 25 28 32 34 35 36 36 36 37 37 36 36 34 31
43 41 38 33 34 36 36 35 32 31 28 27 23 21 20 20 21 17 20 22 22 22 18 15 16 16 18 20 23 26 28 30 34 37 38 39 38 38 39 39 39 39 37 34
48 42 41 36 35 35 34 33 34 33 32 28 22 21 22 22 22 20 22 23 23 22 18 19 20 21 22 24 27 29 31 33 37 39 41 41 40 41 40 41 41 42 40 37

GFSNW_500_spd_114.txt.gz
Wind_Speed
18 24 24 29 31 29 33 38 37 35 37 20 24 24 21 19 16 16 16 14 19 19 12 14 18 23 18 16 16 11 13 18 19 22 13 17 22 22 21 24 21 15 17 22
21 28 30 36 34 32 40 41 40 39 30 25 26 23 23 21 19 19 19 17 22 21 15 11 13 16 17 19 16 14 15 15 17 24 17 15 19 23 24 26 23 18 16 21
22 33 40 41 39 37 45 43 42 35 25 28 26 27 25 24 23 23 23 24 25 24 21 13 5 11 13 13 16 16 18 20 18 20 22 19 21 20 23 22 21 21 19 19
23 41 49 49 45 47 50 46 39 27 30 30 28 29 26 25 23 24 26 28 30 29 24 19 10 7 9 10 14 19 17 16 20 23 24 20 18 17 19 15 18 13 20 17
36 48 60 57 57 56 51 44 36 30 34 32 31 30 27 24 23 23 25 28 29 30 27 22 17 10 3 3 7 12 16 15 15 14 17 19 17 16 15 14 13 14 16 15
45 54 63 64 61 54 46 42 26 34 34 34 33 30 27 24 22 21 23 25 28 30 31 30 25 20 11 5 5 6 11 13 12 12 12 12 13 12 11 10 9 7 5 5
57 62 63 58 51 44 39 28 34 38 36 35 33 31 27 24 22 20 22 22 23 27 29 29 30 27 23 16 8 3 3 6 7 8 7 5 6 6 6 4 4 4 2 2
61 57 53 47 46 42 34 37 41 38 37 34 33 31 27 23 21 21 21 20 21 24 27 29 26 27 31 27 22 16 7 2 3 4 3 4 3 5 6 3 4 4 1 1
53 47 44 41 37 34 40 44 41 39 36 33 32 30 27 25 22 21 21 20 20 22 24 25 26 32 32 27 29 29 22 12 8 4 4 4 3 2 1 4 1 5 4 5
46 42 39 32 30 42 45 42 42 37 35 33 31 28 25 22 22 20 20 20 21 20 23 25 26 27 28 30 33 34 32 29 22 17 11 4 5 7 8 4 3 5 5 5
41 38 29 22 33 43 42 42 39 35 34 32 30 27 25 23 20 19 18 19 18 19 20 22 23 25 24 28 30 29 31 32 31 27 19 13 14 3 5 4 10 10 11 12
32 25 19 22 41 44 42 41 38 34 33 32 28 25 22 21 19 18 17 16 16 16 17 19 21 22 24 24 26 27 29 30 29 29 27 27 24 18 10 2 7 13 16 18
28 24 24 32 40 41 40 39 36 33 32 29 27 24 21 19 17 16 15 14 14 13 14 15 17 19 19 20 22 24 26 27 26 26 26 25 25 22 19 17 11 3 9 15
23 26 29 37 38 39 39 37 34 31 30 28 25 22 20 17 16 14 12 11 10 10 11 13 14 15 15 17 19 20 21 23 23 25 25 23 22 20 19 17 13 11 9 8
21 22 28 36 39 38 37 36 33 31 29 27 25 21 19 17 13 11 10 8 7 7 9 10 12 13 13 15 16 17 17 18 20 20 22 21 20 18 17 15 11 9 7 6
23 23 31 39 40 36 36 35 33 30 27 26 23 21 19 15 11 8 6 5 5 6 6 7 9 9 10 12 13 14 14 15 16 16 18 18 19 18 15 12 10 8 5 4
23 28 35 38 37 34 35 34 33 29 26 24 23 21 17 15 11 8 6 5 4 4 5 5 6 7 7 8 9 11 13 13 14 15 15 16 16 15 15 14 10 7 5 5
23 29 38 39 37 32 32 34 33 30 27 23 22 21 19 17 12 8 6 6 4 4 3 3 4 4 5 4 6 8 10 12 13 13 15 15 16 16 16 16 14 10 8 7
25 30 38 41 39 34 35 33 31 28 27 24 20 19 20 18 13 8 6 5 5 6 4 0 4 4 5 6 5 6 8 11 13 14 14 16 17 18 17 18 18 15 12 10
28 27 35 40 41 38 37 35 32 30 26 28 23 19 17 16 15 11 5 2 6 7 6 6 6 7 6 7 8 8 9 10 13 15 17 18 20 21 21 21 20 20 18 15
31 27 28 37 42 43 38 35 34 33 28 26 24 20 17 14 14 12 9 5 5 9 10 10 12 8 9 9 10 10 11 13 14 16 19 21 23 24 25 25 24 23 23 20
36 32 30 34 41 43 42 37 34 32 30 27 23 21 16 14 14 14 12 7 4 6 8 10 14 11 12 12 11 12 13 14 16 18 20 23 26 28 29 29 28 27 26 27
40 38 36 34 37 43 42 39 33 32 27 26 26 23 19 15 15 15 13 9 8 8 9 13 14 13 14 14 13 14 17 17 18 20 23 25 30 32 32 33 32 31 30 31
44 42 42 41 40 41 43 37 37 35 33 30 27 25 21 16 18 17 14 12 10 10 12 17 17 15 13 14 16 18 20 19 20 22 26 29 33 36 36 36 36 36 35 35
45 46 45 44 38 39 40 41 41 36 33 32 30 28 23 21 19 19 18 17 16 15 13 15 14 11 12 14 16 17 19 21 22 25 30 33 35 38 40 40 40 40 39 38
48 48 46 41 40 40 43 41 43 36 33 34 31 29 25 21 22 19 19 18 16 15 15 15 14 13 15 16 18 20 21 23 25 28 32 36 39 41 44 44 42 43 42 41
55 49 48 43 41 39 40 45 39 37 35 31 32 30 28 26 24 20 19 19 20 18 18 20 18 19 17 17 19 21 23 25 28 32 36 40 42 44 46 47 46 45 44 43

GFSNW_500_spd_117.txt.gz
Wind_Speed
12 9 23 28 28 33 30 29 30 36 32 26 19 15 18 14 11 6 5 10 8 12 15 17 13 15 15 12 11 13 18 15 16 17 19 16 17 21 18 20 23 24 30 31
14 20 30 32 34 34 32 32 34 32 29 21 19 22 18 16 13 9 7 13 15 11 13 12 10 11 15 15 11 13 16 18 16 13 16 21 25 25 20 18 17 22 22 29
23 30 35 36 36 35 35 35 34 31 26 16 23 21 21 18 18 15 17 17 17 15 9 11 8 8 14 14 14 17 14 19 18 18 21 22 27 26 20 13 17 19 23 24
33 36 39 41 37 38 37 35 32 28 22 23 24 24 24 24 21 22 21 22 20 17 13 10 9 7 9 12 14 16 16 17 19 20 17 19 24 25 23 18 19 16 22 18
43 42 42 40 41 40 39 38 30 25 24 26 27 26 25 26 25 24 23 25 24 20 18 13 8 6 3 6 11 16 17 17 15 16 16 18 21 22 21 20 21 19 21 18
51 51 48 43 45 43 38 33 26 22 29 27 29 28 27 27 26 25 25 27 27 24 23 19 13 10 6 6 8 11 12 14 14 13 14 15 17 17 16 16 15 15 16 15
60 58 53 48 46 43 37 31 24 32 30 30 30 28 26 24 23 22 24 25 25 25 25 23 21 21 15 9 7 8 8 8 10 11 11 11 11 11 10 11 14 14 12 11
62 56 51 49 44 39 35 27 32 32 30 30 30 29 27 24 22 22 22 24 25 28 27 25 24 26 27 22 16 9 6 4 5 6 8 7 9 9 9 10 13 12 10 7
50 49 46 42 37 33 28 30 34 31 31 31 31 28 26 24 22 21 21 21 23 26 27 27 27 29 30 27 28 24 16 12 7 1 1 2 6 7 10 10 11 7 6 5
41 38 36 32 29 28 37 38 33 32 32 31 30 27 25 23 22 22 21 21 21 23 25 26 26 28 30 30 32 29 29 26 21 17 13 13 8 4 8 12 10 5 3 1
32 27 25 24 25 36 37 35 33 33 32 30 29 26 24 22 21 20 20 19 19 20 22 23 24 27 27 30 30 31 33 31 30 26 24 21 30 22 22 22 11 5 2 4
24 17 18 27 35 37 35 33 33 32 30 29 27 24 22 20 19 18 17 17 17 18 20 20 22 23 24 27 26 27 28 30 29 30 30 31 31 30 29 25 23 19 14 8
14 16 24 35 38 36 34 32 31 31 29 26 26 24 21 19 17 16 15 15 14 15 15 16 17 18 19 21 23 25 24 25 26 27 26 27 27 27 27 26 24 23 21 20
6 17 29 34 33 32 31 30 30 28 26 25 24 21 20 18 16 14 13 12 12 13 13 13 14 13 15 16 18 19 20 22 22 23 22 22 21 22 22 21 20 19 17 15
11 18 31 33 31 30 28 29 28 27 25 24 22 20 18 17 15 13 11 9 8 9 10 10 10 11 12 12 14 15 16 17 18 18 19 20 19 19 18 16 15 14 13 12
13 21 27 32 32 29 27 27 26 27 24 23 22 19 18 16 12 10 8 7 6 6 6 6 6 7 8 9 10 12 12 13 15 15 16 17 18 18 17 16 14 11 9 8
16 21 26 30 31 31 28 27 26 25 24 22 21 19 17 14 10 8 7 6 5 4 3 3 3 3 3 4 6 7 9 11 11 13 14 15 16 16 17 16 15 15 14 9
20 19 27 30 32 32 30 28 26 24 25 24 22 19 18 14 11 8 7 8 7 6 4 2 1 1 1 1 1 3 5 6 8 9 11 13 15 15 16 17 18 17 16 15
24 23 26 33 36 34 31 29 28 24 22 22 23 22 19 16 12 9 8 9 8 10 9 6 3 4 5 5 5 4 5 6 7 9 11 12 15 17 18 20 21 21 20 20
30 24 27 34 38 36 35 33 31 29 25 22 23 23 22 20 17 12 9 8 10 12 12 11 9 9 8 9 9 8 7 8 10 9 11 13 16 19 20 22 24 25 24 23
31 25 25 37 40 39 38 38 37 33 30 26 23 21 20 21 20 17 15 12 10 11 13 12 10 10 14 12 10 10 10 10 12 13 13 14 18 21 23 24 27 29 29 28
34 31 28 34 42 42 41 42 40 35 31 29 29 25 22 20 19 19 20 17 13 10 8 7 8 10 13 15 14 12 13 14 16 15 16 16 19 22 25 28 30 32 33 33
41 40 37 37 40 46 46 42 42 40 32 29 28 29 29 26 22 20 22 21 16 14 10 9 11 13 13 13 13 14 15 16 17 16 17 19 21 25 27 30 33 35 36 36
46 46 45 44 41 44 48 44 41 37 37 39 36 34 33 29 27 25 23 23 20 15 10 11 14 13 11 10 11 13 13 15 16 17 19 21 25 29 31 34 37 39 40 40
53 51 50 49 45 40 41 45 45 46 43 41 41 40 37 34 33 27 25 24 23 16 17 15 16 15 14 14 14 15 16 18 20 21 22 25 29 33 36 38 40 42 43 43
61 58 52 49 47 45 42 43 46 48 49 48 45 45 41 39 37 30 26 26 21 21 21 17 18 17 17 18 19 18 18 19 21 23 26 30 33 36 39 41 42 44 45 45
70 62 56 54 52 49 48 49 47 47 49 46 48 44 42 40 40 34 28 22 26 28 22 21 20 20 19 20 21 21 21 22 24 28 30 32 35 39 41 44 45 47 47 48

GFSNW_500_spd_120.txt.gz
Wind_Speed
17 20 30 33 36 36 33 32 33 29 27 24 20 10 7 5 0 2 4 6 15 15 15 16 17 14 9 7 12 14 11 14 16 15 12 18 19 19 16 19 24 30 37 38
28 32 36 37 38 37 35 35 35 30 26 21 17 10 9 8 3 2 4 6 15 12 11 10 14 14 10 9 9 12 11 10 11 15 18 18 16 18 12 16 21 26 38 36
35 40 39 39 39 40 37 35 32 29 20 16 13 13 14 11 8 8 9 10 11 11 10 9 12 13 12 12 10 13 18 15 16 18 18 16 14 12 18 16 17 26 34 29
41 41 42 41 41 40 37 33 32 27 18 18 20 18 18 13 12 12 14 15 13 12 11 9 8 11 13 12 14 15 18 20 20 24 22 21 16 22 21 19 23 24 30 28
43 43 42 41 41 39 34 30 26 21 21 22 21 21 18 16 19 21 22 20 18 16 12 9 8 6 11 15 17 16 15 14 16 18 17 21 20 20 21 21 23 27 25 26
44 43 43 42 39 34 32 29 24 22 26 23 23 22 19 19 23 24 26 24 23 22 19 12 8 9 9 11 13 13 13 13 14 17 16 14 14 15 15 16 18 21 21 22
43 44 42 41 32 32 28 28 25 23 26 25 23 21 21 21 23 22 23 24 24 24 25 23 18 11 10 11 11 11 12 12 13 12 12 12 11 13 14 15 16 16 15 17
42 41 38 35 32 28 27 27 27 26 25 25 22 20 22 22 24 23 24 27 26 27 27 26 25 24 20 11 9 8 8 7 9 10 11 13 12 11 11 13 13 14 13 14
35 34 31 27 28 27 27 31 27 25 24 22 21 21 22 22 24 23 23 24 25 27 28 28 28 30 30 26 23 14 12 9 6 5 6 10 14 14 11 9 8 10 13 14
28 27 27 27 26 28 28 26 26 23 22 21 20 20 20 21 22 23 23 24 24 26 27 29 31 30 33 32 32 29 28 24 23 21 16 12 13 13 12 12 15 10 10 11
17 18 20 27 30 28 28 26 24 22 19 19 19 19 20 20 20 20 21 21 22 24 24 25 27 29 31 32 31 32 33 34 31 31 30 27 28 30 27 24 21 18 17 16
13 15 25 29 28 25 25 23 22 19 17 18 18 18 18 17 17 18 18 19 20 21 22 24 26 25 27 29 30 32 31 32 34 36 36 37 37 36 35 35 35 33 32 33
14 20 27 27 25 23 21 20 19 17 16 16 16 16 16 15 15 16 15 16 16 16 18 19 21 22 23 25 27 28 26 29 30 29 30 30 28 28 29 29 29 29 28 27
16 21 22 21 21 20 18 17 15 15 15 15 15 14 13 13 13 14 14 13 14 14 15 15 17 17 20 19 22 23 23 25 27 27 26 26 26 25 25 24 22 21 21 20
20 22 19 18 17 16 15 15 13 14 14 14 14 13 12 11 10 10 10 10 10 10 11 12 12 13 15 16 17 19 19 20 21 21 22 22 22 23 23 23 22 21 20 18
22 22 22 19 17 16 15 15 14 15 13 14 13 12 11 9 7 6 5 6 6 6 7 6 7 8 10 12 12 13 14 14 16 15 17 18 19 19 20 20 20 20 18 18
22 25 24 24 21 18 18 18 16 17 16 15 15 13 12 9 7 5 5 4 3 2 2 2 2 2 4 6 7 7 8 9 9 11 12 13 14 15 15 16 17 17 16 16
21 24 27 27 27 24 22 21 19 19 20 18 16 15 14 11 9 7 7 7 7 6 5 3 2 2 2 2 1 1 3 4 4 6 7 8 10 10 12 13 15 16 17 18
23 24 27 29 30 30 29 26 24 23 23 22 21 19 18 16 13 10 9 9 10 10 10 8 5 4 5 5 6 5 5 5 5 4 5 5 6 9 11 13 14 16 18 19
27 28 28 27 29 31 33 35 32 30 28 25 25 24 22 20 18 15 12 10 11 12 13 11 10 10 9 9 9 10 9 8 8 8 7 7 7 9 12 15 17 18 20 22
34 29 27 31 33 37 37 39 40 36 33 29 26 25 25 23 22 21 18 16 14 12 10 8 7 8 9 10 9 9 10 11 11 11 11 10 9 10 14 17 20 22 24 25
38 35 33 35 34 36 43 41 42 41 37 34 29 25 23 24 24 25 24 24 21 16 12 8 8 8 9 10 10 10 10 11 13 14 14 14 13 14 16 21 24 26 29 30
42 42 41 39 42 40 42 44 43 44 39 33 34 33 29 28 26 26 26 27 25 22 17 12 15 12 11 11 10 11 11 12 14 15 15 17 18 18 20 24 28 31 33 36
55 53 53 53 47 44 39 44 47 44 40 39 38 38 36 36 35 35 34 32 28 26 21 17 18 17 15 13 12 13 14 15 16 17 19 21 22 23 25 29 31 34 37 39
42 60 65 59 50 46 44 42 44 47 46 44 43 44 43 41 42 41 42 39 34 25 20 26 23 22 20 18 17 16 17 18 20 21 22 22 23 26 29 30 33 38 40 42
39 33 37 57 58 54 48 48 47 46 49 50 50 51 51 49 47 46 45 43 33 23 26 31 29 26 26 23 22 20 21 21 22 24 25 26 27 30 30 33 37 40 42 43
42 37 40 46 56 56 55 54 53 50 47 49 54 56 55 51 49 47 47 42 35 30 31 36 35 31 30 29 26 25 24 24 25 28 31 32 34 33 34 36 40 43 45 46